<?xml version="1.0" encoding="UTF-8" standalone="no" ?>
<gpx xmlns="http://www.topografix.com/GPX/1/1" xmlns:xsi="http://www.w3.org/2001/XMLSchema-instance" xsi:schemaLocation="http://www.topografix.com/GPX/1/1 http://www.topografix.com/GPX/1/1/gpx.xsd" version="1.1" creator="VisuGPX - https://www.visugpx.com">
  <metadata>
    <name>Randonnée Wildenstein</name>
    <desc><![CDATA[ Wildenstein- fermes de la Huss- sommet du Rainkopf- col de l’Etang- col de Bramont-  ]]></desc>
  </metadata>
  <trk>
    <name><![CDATA[2018-05-21 16:16:48]]></name>
    <trkseg>
      <trkpt lat="47.97657" lon="6.96092">
        <ele>580.25</ele>
        <time>2018-05-21T07:09:59Z</time>
      </trkpt>
      <trkpt lat="47.97657" lon="6.96093">
        <ele>580.25</ele>
        <time>2018-05-21T07:10:00Z</time>
      </trkpt>
      <trkpt lat="47.97661" lon="6.96089">
        <ele>579.67</ele>
        <time>2018-05-21T07:10:27Z</time>
      </trkpt>
      <trkpt lat="47.97662" lon="6.96086">
        <ele>579.51</ele>
        <time>2018-05-21T07:10:49Z</time>
      </trkpt>
      <trkpt lat="47.97662" lon="6.96087">
        <ele>579.02</ele>
        <time>2018-05-21T07:11:07Z</time>
      </trkpt>
      <trkpt lat="47.97662" lon="6.96087">
        <ele>579.28</ele>
        <time>2018-05-21T07:11:22Z</time>
      </trkpt>
      <trkpt lat="47.97661" lon="6.96087">
        <ele>579.2</ele>
        <time>2018-05-21T07:11:43Z</time>
      </trkpt>
      <trkpt lat="47.97661" lon="6.96089">
        <ele>578.94</ele>
        <time>2018-05-21T07:12:01Z</time>
      </trkpt>
      <trkpt lat="47.97662" lon="6.96088">
        <ele>578.94</ele>
        <time>2018-05-21T07:12:23Z</time>
      </trkpt>
      <trkpt lat="47.97662" lon="6.96088">
        <ele>576.02</ele>
        <time>2018-05-21T07:12:27Z</time>
      </trkpt>
      <trkpt lat="47.9766" lon="6.9609">
        <ele>567.81</ele>
        <time>2018-05-21T07:12:29Z</time>
      </trkpt>
      <trkpt lat="47.97661" lon="6.96091">
        <ele>590.66</ele>
        <time>2018-05-21T07:12:30Z</time>
      </trkpt>
      <trkpt lat="47.9766" lon="6.96091">
        <ele>579.23</ele>
        <time>2018-05-21T07:12:31Z</time>
      </trkpt>
      <trkpt lat="47.97667" lon="6.96081">
        <ele>579.2</ele>
        <time>2018-05-21T07:12:45Z</time>
      </trkpt>
      <trkpt lat="47.97671" lon="6.96082">
        <ele>578.65</ele>
        <time>2018-05-21T07:13:07Z</time>
      </trkpt>
      <trkpt lat="47.97678" lon="6.96083">
        <ele>578.63</ele>
        <time>2018-05-21T07:13:13Z</time>
      </trkpt>
      <trkpt lat="47.97685" lon="6.96083">
        <ele>578.68</ele>
        <time>2018-05-21T07:13:18Z</time>
      </trkpt>
      <trkpt lat="47.97691" lon="6.9608">
        <ele>578.35</ele>
        <time>2018-05-21T07:13:33Z</time>
      </trkpt>
      <trkpt lat="47.97695" lon="6.96077">
        <ele>578.54</ele>
        <time>2018-05-21T07:13:50Z</time>
      </trkpt>
      <trkpt lat="47.97695" lon="6.96076">
        <ele>578.78</ele>
        <time>2018-05-21T07:14:14Z</time>
      </trkpt>
      <trkpt lat="47.97698" lon="6.96079">
        <ele>578.29</ele>
        <time>2018-05-21T07:14:33Z</time>
      </trkpt>
      <trkpt lat="47.97694" lon="6.96078">
        <ele>578.42</ele>
        <time>2018-05-21T07:14:50Z</time>
      </trkpt>
      <trkpt lat="47.97694" lon="6.96074">
        <ele>578.92</ele>
        <time>2018-05-21T07:15:10Z</time>
      </trkpt>
      <trkpt lat="47.97685" lon="6.96076">
        <ele>578.59</ele>
        <time>2018-05-21T07:15:34Z</time>
      </trkpt>
      <trkpt lat="47.97678" lon="6.96089">
        <ele>577.9</ele>
        <time>2018-05-21T07:15:45Z</time>
      </trkpt>
      <trkpt lat="47.97671" lon="6.96103">
        <ele>578.42</ele>
        <time>2018-05-21T07:15:59Z</time>
      </trkpt>
      <trkpt lat="47.97668" lon="6.96109">
        <ele>578.33</ele>
        <time>2018-05-21T07:16:03Z</time>
      </trkpt>
      <trkpt lat="47.97656" lon="6.96128">
        <ele>577.59</ele>
        <time>2018-05-21T07:16:17Z</time>
      </trkpt>
      <trkpt lat="47.97645" lon="6.96135">
        <ele>577.54</ele>
        <time>2018-05-21T07:16:27Z</time>
      </trkpt>
      <trkpt lat="47.97641" lon="6.96136">
        <ele>577.38</ele>
        <time>2018-05-21T07:16:30Z</time>
      </trkpt>
      <trkpt lat="47.97639" lon="6.96139">
        <ele>577.12</ele>
        <time>2018-05-21T07:16:32Z</time>
      </trkpt>
      <trkpt lat="47.97627" lon="6.96141">
        <ele>577.21</ele>
        <time>2018-05-21T07:16:43Z</time>
      </trkpt>
      <trkpt lat="47.97622" lon="6.96147">
        <ele>578.5</ele>
        <time>2018-05-21T07:16:54Z</time>
      </trkpt>
      <trkpt lat="47.9762" lon="6.96147">
        <ele>579.22</ele>
        <time>2018-05-21T07:16:57Z</time>
      </trkpt>
      <trkpt lat="47.97617" lon="6.96147">
        <ele>579.75</ele>
        <time>2018-05-21T07:17:05Z</time>
      </trkpt>
      <trkpt lat="47.97616" lon="6.96148">
        <ele>580.71</ele>
        <time>2018-05-21T07:17:07Z</time>
      </trkpt>
      <trkpt lat="47.97616" lon="6.96155">
        <ele>580.33</ele>
        <time>2018-05-21T07:17:19Z</time>
      </trkpt>
      <trkpt lat="47.97616" lon="6.96162">
        <ele>583.4</ele>
        <time>2018-05-21T07:17:28Z</time>
      </trkpt>
      <trkpt lat="47.97611" lon="6.96169">
        <ele>584.68</ele>
        <time>2018-05-21T07:17:42Z</time>
      </trkpt>
      <trkpt lat="47.97598" lon="6.96171">
        <ele>586.04</ele>
        <time>2018-05-21T07:17:59Z</time>
      </trkpt>
      <trkpt lat="47.97589" lon="6.9617">
        <ele>589.16</ele>
        <time>2018-05-21T07:18:13Z</time>
      </trkpt>
      <trkpt lat="47.97578" lon="6.96176">
        <ele>591.14</ele>
        <time>2018-05-21T07:18:34Z</time>
      </trkpt>
      <trkpt lat="47.97575" lon="6.96179">
        <ele>591.72</ele>
        <time>2018-05-21T07:18:40Z</time>
      </trkpt>
      <trkpt lat="47.97564" lon="6.96183">
        <ele>594.5</ele>
        <time>2018-05-21T07:18:59Z</time>
      </trkpt>
      <trkpt lat="47.97561" lon="6.96187">
        <ele>594.61</ele>
        <time>2018-05-21T07:19:18Z</time>
      </trkpt>
      <trkpt lat="47.97557" lon="6.96191">
        <ele>598.01</ele>
        <time>2018-05-21T07:19:27Z</time>
      </trkpt>
      <trkpt lat="47.97549" lon="6.96198">
        <ele>600.2</ele>
        <time>2018-05-21T07:19:49Z</time>
      </trkpt>
      <trkpt lat="47.97542" lon="6.96207">
        <ele>600.13</ele>
        <time>2018-05-21T07:20:12Z</time>
      </trkpt>
      <trkpt lat="47.97539" lon="6.96206">
        <ele>603.49</ele>
        <time>2018-05-21T07:20:18Z</time>
      </trkpt>
      <trkpt lat="47.97531" lon="6.96215">
        <ele>607.24</ele>
        <time>2018-05-21T07:20:38Z</time>
      </trkpt>
      <trkpt lat="47.97525" lon="6.96227">
        <ele>608.67</ele>
        <time>2018-05-21T07:21:00Z</time>
      </trkpt>
      <trkpt lat="47.97518" lon="6.96233">
        <ele>611.72</ele>
        <time>2018-05-21T07:21:21Z</time>
      </trkpt>
      <trkpt lat="47.97513" lon="6.96242">
        <ele>613.23</ele>
        <time>2018-05-21T07:21:39Z</time>
      </trkpt>
      <trkpt lat="47.97508" lon="6.96254">
        <ele>616.48</ele>
        <time>2018-05-21T07:21:56Z</time>
      </trkpt>
      <trkpt lat="47.97507" lon="6.96258">
        <ele>616.43</ele>
        <time>2018-05-21T07:22:02Z</time>
      </trkpt>
      <trkpt lat="47.97503" lon="6.96267">
        <ele>618.11</ele>
        <time>2018-05-21T07:22:21Z</time>
      </trkpt>
      <trkpt lat="47.975" lon="6.9627">
        <ele>621.13</ele>
        <time>2018-05-21T07:22:31Z</time>
      </trkpt>
      <trkpt lat="47.97495" lon="6.96273">
        <ele>622.65</ele>
        <time>2018-05-21T07:22:50Z</time>
      </trkpt>
      <trkpt lat="47.97492" lon="6.96281">
        <ele>623</ele>
        <time>2018-05-21T07:23:11Z</time>
      </trkpt>
      <trkpt lat="47.97489" lon="6.96285">
        <ele>626.08</ele>
        <time>2018-05-21T07:23:22Z</time>
      </trkpt>
      <trkpt lat="47.97478" lon="6.96289">
        <ele>628.18</ele>
        <time>2018-05-21T07:23:39Z</time>
      </trkpt>
      <trkpt lat="47.97474" lon="6.96288">
        <ele>629.64</ele>
        <time>2018-05-21T07:23:49Z</time>
      </trkpt>
      <trkpt lat="47.97467" lon="6.96298">
        <ele>632.17</ele>
        <time>2018-05-21T07:24:06Z</time>
      </trkpt>
      <trkpt lat="47.9746" lon="6.96306">
        <ele>634.45</ele>
        <time>2018-05-21T07:24:25Z</time>
      </trkpt>
      <trkpt lat="47.97456" lon="6.96316">
        <ele>637.1</ele>
        <time>2018-05-21T07:24:44Z</time>
      </trkpt>
      <trkpt lat="47.9745" lon="6.96328">
        <ele>640.04</ele>
        <time>2018-05-21T07:25:04Z</time>
      </trkpt>
      <trkpt lat="47.97442" lon="6.96334">
        <ele>641.01</ele>
        <time>2018-05-21T07:25:25Z</time>
      </trkpt>
      <trkpt lat="47.97435" lon="6.9634">
        <ele>644.22</ele>
        <time>2018-05-21T07:25:43Z</time>
      </trkpt>
      <trkpt lat="47.97428" lon="6.96344">
        <ele>644.64</ele>
        <time>2018-05-21T07:26:02Z</time>
      </trkpt>
      <trkpt lat="47.97417" lon="6.96348">
        <ele>646.26</ele>
        <time>2018-05-21T07:26:21Z</time>
      </trkpt>
      <trkpt lat="47.97409" lon="6.96357">
        <ele>648.8</ele>
        <time>2018-05-21T07:26:39Z</time>
      </trkpt>
      <trkpt lat="47.97403" lon="6.9636">
        <ele>649.34</ele>
        <time>2018-05-21T07:26:51Z</time>
      </trkpt>
      <trkpt lat="47.97392" lon="6.96365">
        <ele>652.77</ele>
        <time>2018-05-21T07:27:10Z</time>
      </trkpt>
      <trkpt lat="47.9738" lon="6.96375">
        <ele>654.02</ele>
        <time>2018-05-21T07:27:30Z</time>
      </trkpt>
      <trkpt lat="47.97366" lon="6.96376">
        <ele>657.24</ele>
        <time>2018-05-21T07:27:46Z</time>
      </trkpt>
      <trkpt lat="47.97352" lon="6.96384">
        <ele>659.43</ele>
        <time>2018-05-21T07:28:10Z</time>
      </trkpt>
      <trkpt lat="47.9735" lon="6.9638">
        <ele>659.18</ele>
        <time>2018-05-21T07:28:11Z</time>
      </trkpt>
      <trkpt lat="47.97348" lon="6.96374">
        <ele>658.79</ele>
        <time>2018-05-21T07:28:16Z</time>
      </trkpt>
      <trkpt lat="47.97349" lon="6.96375">
        <ele>658.58</ele>
        <time>2018-05-21T07:28:43Z</time>
      </trkpt>
      <trkpt lat="47.97343" lon="6.96379">
        <ele>658.18</ele>
        <time>2018-05-21T07:29:07Z</time>
      </trkpt>
      <trkpt lat="47.97341" lon="6.96381">
        <ele>658.68</ele>
        <time>2018-05-21T07:29:17Z</time>
      </trkpt>
      <trkpt lat="47.97341" lon="6.96382">
        <ele>657.95</ele>
        <time>2018-05-21T07:29:27Z</time>
      </trkpt>
      <trkpt lat="47.97346" lon="6.96384">
        <ele>658.32</ele>
        <time>2018-05-21T07:29:53Z</time>
      </trkpt>
      <trkpt lat="47.97343" lon="6.96379">
        <ele>657.6</ele>
        <time>2018-05-21T07:30:03Z</time>
      </trkpt>
      <trkpt lat="47.97342" lon="6.96376">
        <ele>657.84</ele>
        <time>2018-05-21T07:30:05Z</time>
      </trkpt>
      <trkpt lat="47.97336" lon="6.96379">
        <ele>657.95</ele>
        <time>2018-05-21T07:30:33Z</time>
      </trkpt>
      <trkpt lat="47.97336" lon="6.96371">
        <ele>658.11</ele>
        <time>2018-05-21T07:30:53Z</time>
      </trkpt>
      <trkpt lat="47.97337" lon="6.96379">
        <ele>658.73</ele>
        <time>2018-05-21T07:31:19Z</time>
      </trkpt>
      <trkpt lat="47.97339" lon="6.9638">
        <ele>658.2</ele>
        <time>2018-05-21T07:31:26Z</time>
      </trkpt>
      <trkpt lat="47.97345" lon="6.96381">
        <ele>658.26</ele>
        <time>2018-05-21T07:31:36Z</time>
      </trkpt>
      <trkpt lat="47.97344" lon="6.96374">
        <ele>658.62</ele>
        <time>2018-05-21T07:31:58Z</time>
      </trkpt>
      <trkpt lat="47.97339" lon="6.96376">
        <ele>658.65</ele>
        <time>2018-05-21T07:32:21Z</time>
      </trkpt>
      <trkpt lat="47.97338" lon="6.96378">
        <ele>659.02</ele>
        <time>2018-05-21T07:32:28Z</time>
      </trkpt>
      <trkpt lat="47.97325" lon="6.96392">
        <ele>660.89</ele>
        <time>2018-05-21T07:32:49Z</time>
      </trkpt>
      <trkpt lat="47.97315" lon="6.964">
        <ele>662.38</ele>
        <time>2018-05-21T07:33:08Z</time>
      </trkpt>
      <trkpt lat="47.97309" lon="6.96408">
        <ele>664.49</ele>
        <time>2018-05-21T07:33:29Z</time>
      </trkpt>
      <trkpt lat="47.97306" lon="6.96414">
        <ele>667.86</ele>
        <time>2018-05-21T07:33:44Z</time>
      </trkpt>
      <trkpt lat="47.97304" lon="6.96423">
        <ele>666.92</ele>
        <time>2018-05-21T07:33:58Z</time>
      </trkpt>
      <trkpt lat="47.97297" lon="6.96434">
        <ele>669.46</ele>
        <time>2018-05-21T07:34:19Z</time>
      </trkpt>
      <trkpt lat="47.97295" lon="6.96438">
        <ele>669.38</ele>
        <time>2018-05-21T07:34:28Z</time>
      </trkpt>
      <trkpt lat="47.97285" lon="6.96448">
        <ele>673.63</ele>
        <time>2018-05-21T07:34:48Z</time>
      </trkpt>
      <trkpt lat="47.97274" lon="6.96455">
        <ele>676.95</ele>
        <time>2018-05-21T07:35:08Z</time>
      </trkpt>
      <trkpt lat="47.97274" lon="6.96455">
        <ele>676.84</ele>
        <time>2018-05-21T07:35:09Z</time>
      </trkpt>
      <trkpt lat="47.97264" lon="6.96459">
        <ele>680.51</ele>
        <time>2018-05-21T07:35:25Z</time>
      </trkpt>
      <trkpt lat="47.97255" lon="6.96468">
        <ele>682.17</ele>
        <time>2018-05-21T07:35:43Z</time>
      </trkpt>
      <trkpt lat="47.97255" lon="6.96474">
        <ele>682.77</ele>
        <time>2018-05-21T07:36:02Z</time>
      </trkpt>
      <trkpt lat="47.97254" lon="6.96476">
        <ele>686.21</ele>
        <time>2018-05-21T07:36:09Z</time>
      </trkpt>
      <trkpt lat="47.97246" lon="6.9648">
        <ele>687.94</ele>
        <time>2018-05-21T07:36:21Z</time>
      </trkpt>
      <trkpt lat="47.97237" lon="6.96482">
        <ele>689.3</ele>
        <time>2018-05-21T07:36:41Z</time>
      </trkpt>
      <trkpt lat="47.97236" lon="6.96483">
        <ele>690.39</ele>
        <time>2018-05-21T07:36:44Z</time>
      </trkpt>
      <trkpt lat="47.97228" lon="6.96487">
        <ele>692.69</ele>
        <time>2018-05-21T07:37:05Z</time>
      </trkpt>
      <trkpt lat="47.97224" lon="6.9649">
        <ele>693.9</ele>
        <time>2018-05-21T07:37:22Z</time>
      </trkpt>
      <trkpt lat="47.97221" lon="6.965">
        <ele>697.11</ele>
        <time>2018-05-21T07:37:41Z</time>
      </trkpt>
      <trkpt lat="47.97211" lon="6.96508">
        <ele>698.95</ele>
        <time>2018-05-21T07:38:02Z</time>
      </trkpt>
      <trkpt lat="47.97203" lon="6.96516">
        <ele>702.23</ele>
        <time>2018-05-21T07:38:23Z</time>
      </trkpt>
      <trkpt lat="47.97202" lon="6.96531">
        <ele>705.31</ele>
        <time>2018-05-21T07:38:47Z</time>
      </trkpt>
      <trkpt lat="47.97189" lon="6.96545">
        <ele>706.93</ele>
        <time>2018-05-21T07:39:08Z</time>
      </trkpt>
      <trkpt lat="47.97176" lon="6.96559">
        <ele>709.85</ele>
        <time>2018-05-21T07:39:30Z</time>
      </trkpt>
      <trkpt lat="47.97171" lon="6.96578">
        <ele>710.53</ele>
        <time>2018-05-21T07:39:49Z</time>
      </trkpt>
      <trkpt lat="47.97171" lon="6.96589">
        <ele>713.61</ele>
        <time>2018-05-21T07:40:05Z</time>
      </trkpt>
      <trkpt lat="47.97173" lon="6.96611">
        <ele>715.61</ele>
        <time>2018-05-21T07:40:29Z</time>
      </trkpt>
      <trkpt lat="47.97174" lon="6.96633">
        <ele>718.17</ele>
        <time>2018-05-21T07:40:50Z</time>
      </trkpt>
      <trkpt lat="47.97178" lon="6.96656">
        <ele>720.19</ele>
        <time>2018-05-21T07:41:08Z</time>
      </trkpt>
      <trkpt lat="47.97183" lon="6.96673">
        <ele>722.17</ele>
        <time>2018-05-21T07:41:29Z</time>
      </trkpt>
      <trkpt lat="47.97187" lon="6.96686">
        <ele>725.65</ele>
        <time>2018-05-21T07:41:46Z</time>
      </trkpt>
      <trkpt lat="47.97199" lon="6.96703">
        <ele>727.88</ele>
        <time>2018-05-21T07:42:08Z</time>
      </trkpt>
      <trkpt lat="47.97205" lon="6.96719">
        <ele>729.15</ele>
        <time>2018-05-21T07:42:24Z</time>
      </trkpt>
      <trkpt lat="47.9721" lon="6.96729">
        <ele>729.9</ele>
        <time>2018-05-21T07:42:40Z</time>
      </trkpt>
      <trkpt lat="47.97212" lon="6.96741">
        <ele>731.02</ele>
        <time>2018-05-21T07:42:58Z</time>
      </trkpt>
      <trkpt lat="47.97214" lon="6.9675">
        <ele>731.82</ele>
        <time>2018-05-21T07:43:15Z</time>
      </trkpt>
      <trkpt lat="47.97213" lon="6.96749">
        <ele>731.37</ele>
        <time>2018-05-21T07:43:40Z</time>
      </trkpt>
      <trkpt lat="47.97212" lon="6.96756">
        <ele>732.26</ele>
        <time>2018-05-21T07:43:56Z</time>
      </trkpt>
      <trkpt lat="47.97211" lon="6.96758">
        <ele>732.5</ele>
        <time>2018-05-21T07:44:16Z</time>
      </trkpt>
      <trkpt lat="47.97211" lon="6.96759">
        <ele>729.47</ele>
        <time>2018-05-21T07:44:26Z</time>
      </trkpt>
      <trkpt lat="47.97211" lon="6.96759">
        <ele>732.91</ele>
        <time>2018-05-21T07:44:27Z</time>
      </trkpt>
      <trkpt lat="47.9721" lon="6.9676">
        <ele>735.93</ele>
        <time>2018-05-21T07:45:04Z</time>
      </trkpt>
      <trkpt lat="47.9721" lon="6.9676">
        <ele>732.19</ele>
        <time>2018-05-21T07:45:05Z</time>
      </trkpt>
      <trkpt lat="47.97207" lon="6.9677">
        <ele>734.12</ele>
        <time>2018-05-21T07:45:26Z</time>
      </trkpt>
      <trkpt lat="47.97198" lon="6.96785">
        <ele>736.79</ele>
        <time>2018-05-21T07:45:45Z</time>
      </trkpt>
      <trkpt lat="47.97186" lon="6.96794">
        <ele>739.93</ele>
        <time>2018-05-21T07:46:06Z</time>
      </trkpt>
      <trkpt lat="47.97182" lon="6.96809">
        <ele>741.86</ele>
        <time>2018-05-21T07:46:23Z</time>
      </trkpt>
      <trkpt lat="47.97181" lon="6.96817">
        <ele>742.05</ele>
        <time>2018-05-21T07:46:39Z</time>
      </trkpt>
      <trkpt lat="47.97174" lon="6.96821">
        <ele>742.89</ele>
        <time>2018-05-21T07:46:52Z</time>
      </trkpt>
      <trkpt lat="47.97165" lon="6.96838">
        <ele>744.35</ele>
        <time>2018-05-21T07:47:10Z</time>
      </trkpt>
      <trkpt lat="47.97157" lon="6.96854">
        <ele>745.69</ele>
        <time>2018-05-21T07:47:26Z</time>
      </trkpt>
      <trkpt lat="47.97158" lon="6.96874">
        <ele>747.82</ele>
        <time>2018-05-21T07:47:42Z</time>
      </trkpt>
      <trkpt lat="47.97167" lon="6.96891">
        <ele>750.06</ele>
        <time>2018-05-21T07:48:00Z</time>
      </trkpt>
      <trkpt lat="47.97177" lon="6.96902">
        <ele>751.4</ele>
        <time>2018-05-21T07:48:17Z</time>
      </trkpt>
      <trkpt lat="47.97192" lon="6.96907">
        <ele>754.08</ele>
        <time>2018-05-21T07:48:36Z</time>
      </trkpt>
      <trkpt lat="47.97209" lon="6.9691">
        <ele>754.92</ele>
        <time>2018-05-21T07:48:57Z</time>
      </trkpt>
      <trkpt lat="47.97227" lon="6.96914">
        <ele>756.62</ele>
        <time>2018-05-21T07:49:18Z</time>
      </trkpt>
      <trkpt lat="47.9724" lon="6.96917">
        <ele>758.05</ele>
        <time>2018-05-21T07:49:40Z</time>
      </trkpt>
      <trkpt lat="47.97253" lon="6.96921">
        <ele>759.29</ele>
        <time>2018-05-21T07:50:02Z</time>
      </trkpt>
      <trkpt lat="47.97259" lon="6.96922">
        <ele>760.14</ele>
        <time>2018-05-21T07:50:09Z</time>
      </trkpt>
      <trkpt lat="47.9728" lon="6.96926">
        <ele>763.3</ele>
        <time>2018-05-21T07:50:31Z</time>
      </trkpt>
      <trkpt lat="47.97301" lon="6.96925">
        <ele>765.7</ele>
        <time>2018-05-21T07:50:55Z</time>
      </trkpt>
      <trkpt lat="47.97304" lon="6.96924">
        <ele>766.15</ele>
        <time>2018-05-21T07:50:59Z</time>
      </trkpt>
      <trkpt lat="47.97325" lon="6.9693">
        <ele>768.73</ele>
        <time>2018-05-21T07:51:20Z</time>
      </trkpt>
      <trkpt lat="47.97342" lon="6.96933">
        <ele>770.99</ele>
        <time>2018-05-21T07:51:39Z</time>
      </trkpt>
      <trkpt lat="47.97356" lon="6.96933">
        <ele>774.08</ele>
        <time>2018-05-21T07:51:59Z</time>
      </trkpt>
      <trkpt lat="47.97371" lon="6.96936">
        <ele>775.69</ele>
        <time>2018-05-21T07:52:20Z</time>
      </trkpt>
      <trkpt lat="47.97383" lon="6.96946">
        <ele>776.51</ele>
        <time>2018-05-21T07:52:43Z</time>
      </trkpt>
      <trkpt lat="47.97383" lon="6.96947">
        <ele>777.57</ele>
        <time>2018-05-21T07:52:44Z</time>
      </trkpt>
      <trkpt lat="47.97372" lon="6.96954">
        <ele>779.66</ele>
        <time>2018-05-21T07:53:07Z</time>
      </trkpt>
      <trkpt lat="47.97363" lon="6.96964">
        <ele>780.74</ele>
        <time>2018-05-21T07:53:25Z</time>
      </trkpt>
      <trkpt lat="47.97349" lon="6.96974">
        <ele>783.67</ele>
        <time>2018-05-21T07:53:45Z</time>
      </trkpt>
      <trkpt lat="47.97346" lon="6.96977">
        <ele>783.58</ele>
        <time>2018-05-21T07:53:51Z</time>
      </trkpt>
      <trkpt lat="47.97325" lon="6.96988">
        <ele>785.39</ele>
        <time>2018-05-21T07:54:13Z</time>
      </trkpt>
      <trkpt lat="47.97321" lon="6.96994">
        <ele>787.27</ele>
        <time>2018-05-21T07:54:27Z</time>
      </trkpt>
      <trkpt lat="47.97325" lon="6.97">
        <ele>788.97</ele>
        <time>2018-05-21T07:54:50Z</time>
      </trkpt>
      <trkpt lat="47.97336" lon="6.97004">
        <ele>790.97</ele>
        <time>2018-05-21T07:55:12Z</time>
      </trkpt>
      <trkpt lat="47.97348" lon="6.97009">
        <ele>792.53</ele>
        <time>2018-05-21T07:55:33Z</time>
      </trkpt>
      <trkpt lat="47.97361" lon="6.97007">
        <ele>793.72</ele>
        <time>2018-05-21T07:55:54Z</time>
      </trkpt>
      <trkpt lat="47.97368" lon="6.97004">
        <ele>795.28</ele>
        <time>2018-05-21T07:56:08Z</time>
      </trkpt>
      <trkpt lat="47.97374" lon="6.97007">
        <ele>796.95</ele>
        <time>2018-05-21T07:56:18Z</time>
      </trkpt>
      <trkpt lat="47.97377" lon="6.97009">
        <ele>796.51</ele>
        <time>2018-05-21T07:56:20Z</time>
      </trkpt>
      <trkpt lat="47.97394" lon="6.97017">
        <ele>798.63</ele>
        <time>2018-05-21T07:56:45Z</time>
      </trkpt>
      <trkpt lat="47.97402" lon="6.97019">
        <ele>799.83</ele>
        <time>2018-05-21T07:56:55Z</time>
      </trkpt>
      <trkpt lat="47.97408" lon="6.97018">
        <ele>799.98</ele>
        <time>2018-05-21T07:57:04Z</time>
      </trkpt>
      <trkpt lat="47.97428" lon="6.97026">
        <ele>802.09</ele>
        <time>2018-05-21T07:57:31Z</time>
      </trkpt>
      <trkpt lat="47.97447" lon="6.97032">
        <ele>804.7</ele>
        <time>2018-05-21T07:57:56Z</time>
      </trkpt>
      <trkpt lat="47.97454" lon="6.97036">
        <ele>804.69</ele>
        <time>2018-05-21T07:58:03Z</time>
      </trkpt>
      <trkpt lat="47.97457" lon="6.97039">
        <ele>804.89</ele>
        <time>2018-05-21T07:58:08Z</time>
      </trkpt>
      <trkpt lat="47.97465" lon="6.97043">
        <ele>806.44</ele>
        <time>2018-05-21T07:58:20Z</time>
      </trkpt>
      <trkpt lat="47.97476" lon="6.9705">
        <ele>807.37</ele>
        <time>2018-05-21T07:58:39Z</time>
      </trkpt>
      <trkpt lat="47.97484" lon="6.97052">
        <ele>808.77</ele>
        <time>2018-05-21T07:59:01Z</time>
      </trkpt>
      <trkpt lat="47.97485" lon="6.97056">
        <ele>810.12</ele>
        <time>2018-05-21T07:59:07Z</time>
      </trkpt>
      <trkpt lat="47.97489" lon="6.97055">
        <ele>811.37</ele>
        <time>2018-05-21T07:59:14Z</time>
      </trkpt>
      <trkpt lat="47.97499" lon="6.97059">
        <ele>812.35</ele>
        <time>2018-05-21T07:59:32Z</time>
      </trkpt>
      <trkpt lat="47.97509" lon="6.97071">
        <ele>814.21</ele>
        <time>2018-05-21T07:59:50Z</time>
      </trkpt>
      <trkpt lat="47.97516" lon="6.97088">
        <ele>815.28</ele>
        <time>2018-05-21T08:00:11Z</time>
      </trkpt>
      <trkpt lat="47.9752" lon="6.97089">
        <ele>815.45</ele>
        <time>2018-05-21T08:00:13Z</time>
      </trkpt>
      <trkpt lat="47.97542" lon="6.97104">
        <ele>816.62</ele>
        <time>2018-05-21T08:00:31Z</time>
      </trkpt>
      <trkpt lat="47.97558" lon="6.97122">
        <ele>817.84</ele>
        <time>2018-05-21T08:00:48Z</time>
      </trkpt>
      <trkpt lat="47.9756" lon="6.97124">
        <ele>818.15</ele>
        <time>2018-05-21T08:00:50Z</time>
      </trkpt>
      <trkpt lat="47.97567" lon="6.9713">
        <ele>818.32</ele>
        <time>2018-05-21T08:00:59Z</time>
      </trkpt>
      <trkpt lat="47.97569" lon="6.97132">
        <ele>817.93</ele>
        <time>2018-05-21T08:01:02Z</time>
      </trkpt>
      <trkpt lat="47.97571" lon="6.97135">
        <ele>818.65</ele>
        <time>2018-05-21T08:01:09Z</time>
      </trkpt>
      <trkpt lat="47.97575" lon="6.97141">
        <ele>821.31</ele>
        <time>2018-05-21T08:01:26Z</time>
      </trkpt>
      <trkpt lat="47.97569" lon="6.97147">
        <ele>823.26</ele>
        <time>2018-05-21T08:01:47Z</time>
      </trkpt>
      <trkpt lat="47.97555" lon="6.97153">
        <ele>825.46</ele>
        <time>2018-05-21T08:02:07Z</time>
      </trkpt>
      <trkpt lat="47.97544" lon="6.97159">
        <ele>826.41</ele>
        <time>2018-05-21T08:02:29Z</time>
      </trkpt>
      <trkpt lat="47.97534" lon="6.97164">
        <ele>828.24</ele>
        <time>2018-05-21T08:02:48Z</time>
      </trkpt>
      <trkpt lat="47.97522" lon="6.97168">
        <ele>829.49</ele>
        <time>2018-05-21T08:03:09Z</time>
      </trkpt>
      <trkpt lat="47.97513" lon="6.97171">
        <ele>830.44</ele>
        <time>2018-05-21T08:03:27Z</time>
      </trkpt>
      <trkpt lat="47.97496" lon="6.97182">
        <ele>832.07</ele>
        <time>2018-05-21T08:03:51Z</time>
      </trkpt>
      <trkpt lat="47.97494" lon="6.97181">
        <ele>831.6</ele>
        <time>2018-05-21T08:03:52Z</time>
      </trkpt>
      <trkpt lat="47.9749" lon="6.97196">
        <ele>832.38</ele>
        <time>2018-05-21T08:04:04Z</time>
      </trkpt>
      <trkpt lat="47.97482" lon="6.97203">
        <ele>832.7</ele>
        <time>2018-05-21T08:04:26Z</time>
      </trkpt>
      <trkpt lat="47.97468" lon="6.97207">
        <ele>834.41</ele>
        <time>2018-05-21T08:04:50Z</time>
      </trkpt>
      <trkpt lat="47.97454" lon="6.97217">
        <ele>836.82</ele>
        <time>2018-05-21T08:05:07Z</time>
      </trkpt>
      <trkpt lat="47.97443" lon="6.97217">
        <ele>838.4</ele>
        <time>2018-05-21T08:05:18Z</time>
      </trkpt>
      <trkpt lat="47.9744" lon="6.9722">
        <ele>838.4</ele>
        <time>2018-05-21T08:05:22Z</time>
      </trkpt>
      <trkpt lat="47.97437" lon="6.97222">
        <ele>837.77</ele>
        <time>2018-05-21T08:05:26Z</time>
      </trkpt>
      <trkpt lat="47.97426" lon="6.97228">
        <ele>839.2</ele>
        <time>2018-05-21T08:05:42Z</time>
      </trkpt>
      <trkpt lat="47.9742" lon="6.97223">
        <ele>840.79</ele>
        <time>2018-05-21T08:06:03Z</time>
      </trkpt>
      <trkpt lat="47.97422" lon="6.97213">
        <ele>841.25</ele>
        <time>2018-05-21T08:06:18Z</time>
      </trkpt>
      <trkpt lat="47.97429" lon="6.97213">
        <ele>842.85</ele>
        <time>2018-05-21T08:06:39Z</time>
      </trkpt>
      <trkpt lat="47.9743" lon="6.97216">
        <ele>843.6</ele>
        <time>2018-05-21T08:06:59Z</time>
      </trkpt>
      <trkpt lat="47.97434" lon="6.97218">
        <ele>843.9</ele>
        <time>2018-05-21T08:07:02Z</time>
      </trkpt>
      <trkpt lat="47.97435" lon="6.9722">
        <ele>843.85</ele>
        <time>2018-05-21T08:07:04Z</time>
      </trkpt>
      <trkpt lat="47.97441" lon="6.97227">
        <ele>845.24</ele>
        <time>2018-05-21T08:07:27Z</time>
      </trkpt>
      <trkpt lat="47.97428" lon="6.97226">
        <ele>846.87</ele>
        <time>2018-05-21T08:07:51Z</time>
      </trkpt>
      <trkpt lat="47.97413" lon="6.97238">
        <ele>847.96</ele>
        <time>2018-05-21T08:08:13Z</time>
      </trkpt>
      <trkpt lat="47.97411" lon="6.97239">
        <ele>848.29</ele>
        <time>2018-05-21T08:08:17Z</time>
      </trkpt>
      <trkpt lat="47.97395" lon="6.97236">
        <ele>849.71</ele>
        <time>2018-05-21T08:08:43Z</time>
      </trkpt>
      <trkpt lat="47.97377" lon="6.97244">
        <ele>851.26</ele>
        <time>2018-05-21T08:09:06Z</time>
      </trkpt>
      <trkpt lat="47.97366" lon="6.97253">
        <ele>852.05</ele>
        <time>2018-05-21T08:09:26Z</time>
      </trkpt>
      <trkpt lat="47.97356" lon="6.97237">
        <ele>851.97</ele>
        <time>2018-05-21T08:09:49Z</time>
      </trkpt>
      <trkpt lat="47.97355" lon="6.97236">
        <ele>851.42</ele>
        <time>2018-05-21T08:09:52Z</time>
      </trkpt>
      <trkpt lat="47.97338" lon="6.97233">
        <ele>852.67</ele>
        <time>2018-05-21T08:10:14Z</time>
      </trkpt>
      <trkpt lat="47.9732" lon="6.97249">
        <ele>855.18</ele>
        <time>2018-05-21T08:10:34Z</time>
      </trkpt>
      <trkpt lat="47.97304" lon="6.97243">
        <ele>857.39</ele>
        <time>2018-05-21T08:10:56Z</time>
      </trkpt>
      <trkpt lat="47.97301" lon="6.97246">
        <ele>857.91</ele>
        <time>2018-05-21T08:11:02Z</time>
      </trkpt>
      <trkpt lat="47.97293" lon="6.97252">
        <ele>861.06</ele>
        <time>2018-05-21T08:11:21Z</time>
      </trkpt>
      <trkpt lat="47.97293" lon="6.97253">
        <ele>861.35</ele>
        <time>2018-05-21T08:11:29Z</time>
      </trkpt>
      <trkpt lat="47.97296" lon="6.97263">
        <ele>861.09</ele>
        <time>2018-05-21T08:11:54Z</time>
      </trkpt>
      <trkpt lat="47.97293" lon="6.97272">
        <ele>860.5</ele>
        <time>2018-05-21T08:12:02Z</time>
      </trkpt>
      <trkpt lat="47.97294" lon="6.97275">
        <ele>861.68</ele>
        <time>2018-05-21T08:12:14Z</time>
      </trkpt>
      <trkpt lat="47.97295" lon="6.97279">
        <ele>861.13</ele>
        <time>2018-05-21T08:12:15Z</time>
      </trkpt>
      <trkpt lat="47.97293" lon="6.97285">
        <ele>860.99</ele>
        <time>2018-05-21T08:12:44Z</time>
      </trkpt>
      <trkpt lat="47.97287" lon="6.97276">
        <ele>860.63</ele>
        <time>2018-05-21T08:13:10Z</time>
      </trkpt>
      <trkpt lat="47.97286" lon="6.97282">
        <ele>860.65</ele>
        <time>2018-05-21T08:13:40Z</time>
      </trkpt>
      <trkpt lat="47.97287" lon="6.97281">
        <ele>860.35</ele>
        <time>2018-05-21T08:14:06Z</time>
      </trkpt>
      <trkpt lat="47.97286" lon="6.97275">
        <ele>860.57</ele>
        <time>2018-05-21T08:14:33Z</time>
      </trkpt>
      <trkpt lat="47.97282" lon="6.97267">
        <ele>861.64</ele>
        <time>2018-05-21T08:14:59Z</time>
      </trkpt>
      <trkpt lat="47.97283" lon="6.97266">
        <ele>860.6</ele>
        <time>2018-05-21T08:15:11Z</time>
      </trkpt>
      <trkpt lat="47.97283" lon="6.97262">
        <ele>861</ele>
        <time>2018-05-21T08:15:38Z</time>
      </trkpt>
      <trkpt lat="47.97286" lon="6.97262">
        <ele>860.59</ele>
        <time>2018-05-21T08:16:06Z</time>
      </trkpt>
      <trkpt lat="47.97287" lon="6.97265">
        <ele>860.4</ele>
        <time>2018-05-21T08:16:26Z</time>
      </trkpt>
      <trkpt lat="47.97294" lon="6.97276">
        <ele>860.6</ele>
        <time>2018-05-21T08:16:58Z</time>
      </trkpt>
      <trkpt lat="47.97291" lon="6.97272">
        <ele>860.92</ele>
        <time>2018-05-21T08:17:29Z</time>
      </trkpt>
      <trkpt lat="47.9729" lon="6.97272">
        <ele>861.14</ele>
        <time>2018-05-21T08:17:32Z</time>
      </trkpt>
      <trkpt lat="47.97298" lon="6.97272">
        <ele>862.74</ele>
        <time>2018-05-21T08:17:54Z</time>
      </trkpt>
      <trkpt lat="47.97313" lon="6.9728">
        <ele>864.83</ele>
        <time>2018-05-21T08:18:15Z</time>
      </trkpt>
      <trkpt lat="47.97322" lon="6.97286">
        <ele>868.2</ele>
        <time>2018-05-21T08:18:33Z</time>
      </trkpt>
      <trkpt lat="47.97334" lon="6.97293">
        <ele>870.01</ele>
        <time>2018-05-21T08:18:53Z</time>
      </trkpt>
      <trkpt lat="47.97339" lon="6.97299">
        <ele>871.19</ele>
        <time>2018-05-21T08:19:07Z</time>
      </trkpt>
      <trkpt lat="47.97355" lon="6.97318">
        <ele>874.01</ele>
        <time>2018-05-21T08:19:31Z</time>
      </trkpt>
      <trkpt lat="47.9737" lon="6.97333">
        <ele>875.64</ele>
        <time>2018-05-21T08:19:51Z</time>
      </trkpt>
      <trkpt lat="47.97378" lon="6.97344">
        <ele>877.78</ele>
        <time>2018-05-21T08:20:05Z</time>
      </trkpt>
      <trkpt lat="47.97386" lon="6.97353">
        <ele>878.91</ele>
        <time>2018-05-21T08:20:24Z</time>
      </trkpt>
      <trkpt lat="47.97402" lon="6.97366">
        <ele>881.07</ele>
        <time>2018-05-21T08:20:44Z</time>
      </trkpt>
      <trkpt lat="47.97414" lon="6.97378">
        <ele>882.4</ele>
        <time>2018-05-21T08:21:07Z</time>
      </trkpt>
      <trkpt lat="47.97433" lon="6.97379">
        <ele>884.57</ele>
        <time>2018-05-21T08:21:26Z</time>
      </trkpt>
      <trkpt lat="47.97444" lon="6.97363">
        <ele>887.18</ele>
        <time>2018-05-21T08:21:49Z</time>
      </trkpt>
      <trkpt lat="47.97449" lon="6.9737">
        <ele>888.17</ele>
        <time>2018-05-21T08:22:04Z</time>
      </trkpt>
      <trkpt lat="47.9745" lon="6.97379">
        <ele>889.5</ele>
        <time>2018-05-21T08:22:17Z</time>
      </trkpt>
      <trkpt lat="47.9745" lon="6.9739">
        <ele>889.08</ele>
        <time>2018-05-21T08:22:30Z</time>
      </trkpt>
      <trkpt lat="47.97449" lon="6.97401">
        <ele>892.64</ele>
        <time>2018-05-21T08:22:40Z</time>
      </trkpt>
      <trkpt lat="47.97449" lon="6.97416">
        <ele>893.09</ele>
        <time>2018-05-21T08:22:56Z</time>
      </trkpt>
      <trkpt lat="47.97454" lon="6.97424">
        <ele>896.63</ele>
        <time>2018-05-21T08:23:19Z</time>
      </trkpt>
      <trkpt lat="47.97455" lon="6.97424">
        <ele>896.08</ele>
        <time>2018-05-21T08:23:21Z</time>
      </trkpt>
      <trkpt lat="47.9745" lon="6.97418">
        <ele>899.12</ele>
        <time>2018-05-21T08:23:45Z</time>
      </trkpt>
      <trkpt lat="47.97438" lon="6.97416">
        <ele>893.54</ele>
        <time>2018-05-21T08:24:02Z</time>
      </trkpt>
      <trkpt lat="47.97437" lon="6.97416">
        <ele>900</ele>
        <time>2018-05-21T08:24:03Z</time>
      </trkpt>
      <trkpt lat="47.97434" lon="6.97415">
        <ele>902.37</ele>
        <time>2018-05-21T08:24:11Z</time>
      </trkpt>
      <trkpt lat="47.97424" lon="6.97411">
        <ele>902.17</ele>
        <time>2018-05-21T08:24:28Z</time>
      </trkpt>
      <trkpt lat="47.97408" lon="6.9739">
        <ele>904.89</ele>
        <time>2018-05-21T08:24:53Z</time>
      </trkpt>
      <trkpt lat="47.97397" lon="6.9739">
        <ele>907.52</ele>
        <time>2018-05-21T08:25:17Z</time>
      </trkpt>
      <trkpt lat="47.97397" lon="6.97391">
        <ele>907.14</ele>
        <time>2018-05-21T08:25:18Z</time>
      </trkpt>
      <trkpt lat="47.97397" lon="6.974">
        <ele>907.55</ele>
        <time>2018-05-21T08:25:37Z</time>
      </trkpt>
      <trkpt lat="47.97396" lon="6.97408">
        <ele>910.98</ele>
        <time>2018-05-21T08:25:49Z</time>
      </trkpt>
      <trkpt lat="47.97392" lon="6.97403">
        <ele>911.4</ele>
        <time>2018-05-21T08:26:13Z</time>
      </trkpt>
      <trkpt lat="47.97394" lon="6.97409">
        <ele>914.53</ele>
        <time>2018-05-21T08:26:31Z</time>
      </trkpt>
      <trkpt lat="47.97391" lon="6.9743">
        <ele>916.89</ele>
        <time>2018-05-21T08:26:54Z</time>
      </trkpt>
      <trkpt lat="47.974" lon="6.97452">
        <ele>918.4</ele>
        <time>2018-05-21T08:27:15Z</time>
      </trkpt>
      <trkpt lat="47.97405" lon="6.97473">
        <ele>919.7</ele>
        <time>2018-05-21T08:27:37Z</time>
      </trkpt>
      <trkpt lat="47.97405" lon="6.97498">
        <ele>922.86</ele>
        <time>2018-05-21T08:28:02Z</time>
      </trkpt>
      <trkpt lat="47.97405" lon="6.97503">
        <ele>923.77</ele>
        <time>2018-05-21T08:28:07Z</time>
      </trkpt>
      <trkpt lat="47.97415" lon="6.97521">
        <ele>925.33</ele>
        <time>2018-05-21T08:28:28Z</time>
      </trkpt>
      <trkpt lat="47.97415" lon="6.97521">
        <ele>924.64</ele>
        <time>2018-05-21T08:28:29Z</time>
      </trkpt>
      <trkpt lat="47.97416" lon="6.97526">
        <ele>925.8</ele>
        <time>2018-05-21T08:28:37Z</time>
      </trkpt>
      <trkpt lat="47.97419" lon="6.97539">
        <ele>926.64</ele>
        <time>2018-05-21T08:28:48Z</time>
      </trkpt>
      <trkpt lat="47.9742" lon="6.97542">
        <ele>928.66</ele>
        <time>2018-05-21T08:28:54Z</time>
      </trkpt>
      <trkpt lat="47.97439" lon="6.97548">
        <ele>929.63</ele>
        <time>2018-05-21T08:29:15Z</time>
      </trkpt>
      <trkpt lat="47.97437" lon="6.97551">
        <ele>930.96</ele>
        <time>2018-05-21T08:29:33Z</time>
      </trkpt>
      <trkpt lat="47.97426" lon="6.97543">
        <ele>933.09</ele>
        <time>2018-05-21T08:29:53Z</time>
      </trkpt>
      <trkpt lat="47.97412" lon="6.97538">
        <ele>935.05</ele>
        <time>2018-05-21T08:30:16Z</time>
      </trkpt>
      <trkpt lat="47.97392" lon="6.97508">
        <ele>937.12</ele>
        <time>2018-05-21T08:30:39Z</time>
      </trkpt>
      <trkpt lat="47.97379" lon="6.97495">
        <ele>939.62</ele>
        <time>2018-05-21T08:31:02Z</time>
      </trkpt>
      <trkpt lat="47.97365" lon="6.97491">
        <ele>941.78</ele>
        <time>2018-05-21T08:31:20Z</time>
      </trkpt>
      <trkpt lat="47.9736" lon="6.97484">
        <ele>942.38</ele>
        <time>2018-05-21T08:31:33Z</time>
      </trkpt>
      <trkpt lat="47.97351" lon="6.97487">
        <ele>945.48</ele>
        <time>2018-05-21T08:31:56Z</time>
      </trkpt>
      <trkpt lat="47.97357" lon="6.97497">
        <ele>948.75</ele>
        <time>2018-05-21T08:32:13Z</time>
      </trkpt>
      <trkpt lat="47.97358" lon="6.97506">
        <ele>947.89</ele>
        <time>2018-05-21T08:32:36Z</time>
      </trkpt>
      <trkpt lat="47.97357" lon="6.97505">
        <ele>947.55</ele>
        <time>2018-05-21T08:32:49Z</time>
      </trkpt>
      <trkpt lat="47.9735" lon="6.97517">
        <ele>947.59</ele>
        <time>2018-05-21T08:33:03Z</time>
      </trkpt>
      <trkpt lat="47.97345" lon="6.97523">
        <ele>947.87</ele>
        <time>2018-05-21T08:33:23Z</time>
      </trkpt>
      <trkpt lat="47.97354" lon="6.97537">
        <ele>951.41</ele>
        <time>2018-05-21T08:33:44Z</time>
      </trkpt>
      <trkpt lat="47.97356" lon="6.97553">
        <ele>953.57</ele>
        <time>2018-05-21T08:33:57Z</time>
      </trkpt>
      <trkpt lat="47.97356" lon="6.97554">
        <ele>952.47</ele>
        <time>2018-05-21T08:33:59Z</time>
      </trkpt>
      <trkpt lat="47.97355" lon="6.97561">
        <ele>954.61</ele>
        <time>2018-05-21T08:34:01Z</time>
      </trkpt>
      <trkpt lat="47.97357" lon="6.97567">
        <ele>954.83</ele>
        <time>2018-05-21T08:34:05Z</time>
      </trkpt>
      <trkpt lat="47.97364" lon="6.97578">
        <ele>956.1</ele>
        <time>2018-05-21T08:34:16Z</time>
      </trkpt>
      <trkpt lat="47.97364" lon="6.97592">
        <ele>957.74</ele>
        <time>2018-05-21T08:34:23Z</time>
      </trkpt>
      <trkpt lat="47.97374" lon="6.97613">
        <ele>960.86</ele>
        <time>2018-05-21T08:34:39Z</time>
      </trkpt>
      <trkpt lat="47.97374" lon="6.97614">
        <ele>960.78</ele>
        <time>2018-05-21T08:34:40Z</time>
      </trkpt>
      <trkpt lat="47.97379" lon="6.97624">
        <ele>963.42</ele>
        <time>2018-05-21T08:34:54Z</time>
      </trkpt>
      <trkpt lat="47.97394" lon="6.97641">
        <ele>967.11</ele>
        <time>2018-05-21T08:35:12Z</time>
      </trkpt>
      <trkpt lat="47.97401" lon="6.97655">
        <ele>968.44</ele>
        <time>2018-05-21T08:35:20Z</time>
      </trkpt>
      <trkpt lat="47.97409" lon="6.97671">
        <ele>971.7</ele>
        <time>2018-05-21T08:35:35Z</time>
      </trkpt>
      <trkpt lat="47.9742" lon="6.97693">
        <ele>974.9</ele>
        <time>2018-05-21T08:35:54Z</time>
      </trkpt>
      <trkpt lat="47.9743" lon="6.97713">
        <ele>978.19</ele>
        <time>2018-05-21T08:36:11Z</time>
      </trkpt>
      <trkpt lat="47.97441" lon="6.97737">
        <ele>981.81</ele>
        <time>2018-05-21T08:36:32Z</time>
      </trkpt>
      <trkpt lat="47.97446" lon="6.97759">
        <ele>984.42</ele>
        <time>2018-05-21T08:36:50Z</time>
      </trkpt>
      <trkpt lat="47.97453" lon="6.97781">
        <ele>988.78</ele>
        <time>2018-05-21T08:37:10Z</time>
      </trkpt>
      <trkpt lat="47.97458" lon="6.97796">
        <ele>990.12</ele>
        <time>2018-05-21T08:37:26Z</time>
      </trkpt>
      <trkpt lat="47.97463" lon="6.97808">
        <ele>992.75</ele>
        <time>2018-05-21T08:37:42Z</time>
      </trkpt>
      <trkpt lat="47.97474" lon="6.97824">
        <ele>995.78</ele>
        <time>2018-05-21T08:38:01Z</time>
      </trkpt>
      <trkpt lat="47.97482" lon="6.97834">
        <ele>998.82</ele>
        <time>2018-05-21T08:38:19Z</time>
      </trkpt>
      <trkpt lat="47.97483" lon="6.9784">
        <ele>999.39</ele>
        <time>2018-05-21T08:38:25Z</time>
      </trkpt>
      <trkpt lat="47.97489" lon="6.97852">
        <ele>1001.84</ele>
        <time>2018-05-21T08:38:40Z</time>
      </trkpt>
      <trkpt lat="47.97491" lon="6.97862">
        <ele>1004.19</ele>
        <time>2018-05-21T08:38:56Z</time>
      </trkpt>
      <trkpt lat="47.97494" lon="6.97881">
        <ele>1008.34</ele>
        <time>2018-05-21T08:39:14Z</time>
      </trkpt>
      <trkpt lat="47.97494" lon="6.97892">
        <ele>1011.69</ele>
        <time>2018-05-21T08:39:31Z</time>
      </trkpt>
      <trkpt lat="47.97499" lon="6.97904">
        <ele>1012.21</ele>
        <time>2018-05-21T08:39:42Z</time>
      </trkpt>
      <trkpt lat="47.97507" lon="6.97918">
        <ele>1015.98</ele>
        <time>2018-05-21T08:39:57Z</time>
      </trkpt>
      <trkpt lat="47.9751" lon="6.97922">
        <ele>1014.56</ele>
        <time>2018-05-21T08:40:03Z</time>
      </trkpt>
      <trkpt lat="47.97512" lon="6.97924">
        <ele>1017.72</ele>
        <time>2018-05-21T08:40:07Z</time>
      </trkpt>
      <trkpt lat="47.97518" lon="6.97935">
        <ele>1021.33</ele>
        <time>2018-05-21T08:40:28Z</time>
      </trkpt>
      <trkpt lat="47.97522" lon="6.97947">
        <ele>1022.64</ele>
        <time>2018-05-21T08:40:41Z</time>
      </trkpt>
      <trkpt lat="47.97526" lon="6.97963">
        <ele>1024.85</ele>
        <time>2018-05-21T08:40:57Z</time>
      </trkpt>
      <trkpt lat="47.97527" lon="6.97967">
        <ele>1025.15</ele>
        <time>2018-05-21T08:40:59Z</time>
      </trkpt>
      <trkpt lat="47.97517" lon="6.97982">
        <ele>1024.21</ele>
        <time>2018-05-21T08:41:28Z</time>
      </trkpt>
      <trkpt lat="47.97519" lon="6.97989">
        <ele>1025.64</ele>
        <time>2018-05-21T08:41:44Z</time>
      </trkpt>
      <trkpt lat="47.97521" lon="6.97996">
        <ele>1025.67</ele>
        <time>2018-05-21T08:42:03Z</time>
      </trkpt>
      <trkpt lat="47.97522" lon="6.9798">
        <ele>1024.35</ele>
        <time>2018-05-21T08:42:23Z</time>
      </trkpt>
      <trkpt lat="47.97523" lon="6.97985">
        <ele>1023.71</ele>
        <time>2018-05-21T08:42:38Z</time>
      </trkpt>
      <trkpt lat="47.97523" lon="6.97992">
        <ele>1018.64</ele>
        <time>2018-05-21T08:43:00Z</time>
      </trkpt>
      <trkpt lat="47.97523" lon="6.97992">
        <ele>1028.37</ele>
        <time>2018-05-21T08:43:01Z</time>
      </trkpt>
      <trkpt lat="47.97523" lon="6.97992">
        <ele>1023.52</ele>
        <time>2018-05-21T08:43:02Z</time>
      </trkpt>
      <trkpt lat="47.97523" lon="6.97992">
        <ele>1019.29</ele>
        <time>2018-05-21T08:43:03Z</time>
      </trkpt>
      <trkpt lat="47.97523" lon="6.97992">
        <ele>1024.51</ele>
        <time>2018-05-21T08:43:04Z</time>
      </trkpt>
      <trkpt lat="47.97523" lon="6.97992">
        <ele>1023.25</ele>
        <time>2018-05-21T08:43:07Z</time>
      </trkpt>
      <trkpt lat="47.97504" lon="6.97983">
        <ele>1022.5</ele>
        <time>2018-05-21T08:43:26Z</time>
      </trkpt>
      <trkpt lat="47.975" lon="6.98002">
        <ele>1022.55</ele>
        <time>2018-05-21T08:43:33Z</time>
      </trkpt>
      <trkpt lat="47.97501" lon="6.98003">
        <ele>1018.82</ele>
        <time>2018-05-21T08:43:35Z</time>
      </trkpt>
      <trkpt lat="47.97501" lon="6.98003">
        <ele>1013.42</ele>
        <time>2018-05-21T08:43:36Z</time>
      </trkpt>
      <trkpt lat="47.97501" lon="6.98003">
        <ele>1030.94</ele>
        <time>2018-05-21T08:43:37Z</time>
      </trkpt>
      <trkpt lat="47.97501" lon="6.98003">
        <ele>1025.61</ele>
        <time>2018-05-21T08:43:38Z</time>
      </trkpt>
      <trkpt lat="47.97501" lon="6.98003">
        <ele>1021.67</ele>
        <time>2018-05-21T08:43:39Z</time>
      </trkpt>
      <trkpt lat="47.97502" lon="6.98003">
        <ele>1022.9</ele>
        <time>2018-05-21T08:43:40Z</time>
      </trkpt>
      <trkpt lat="47.97502" lon="6.98008">
        <ele>1024.08</ele>
        <time>2018-05-21T08:44:15Z</time>
      </trkpt>
      <trkpt lat="47.97505" lon="6.98004">
        <ele>1024.15</ele>
        <time>2018-05-21T08:44:23Z</time>
      </trkpt>
      <trkpt lat="47.975" lon="6.98016">
        <ele>1025.61</ele>
        <time>2018-05-21T08:44:56Z</time>
      </trkpt>
      <trkpt lat="47.97482" lon="6.98006">
        <ele>1025.75</ele>
        <time>2018-05-21T08:45:34Z</time>
      </trkpt>
      <trkpt lat="47.97498" lon="6.98005">
        <ele>1025.5</ele>
        <time>2018-05-21T08:45:49Z</time>
      </trkpt>
      <trkpt lat="47.97498" lon="6.9801">
        <ele>1026.74</ele>
        <time>2018-05-21T08:45:53Z</time>
      </trkpt>
      <trkpt lat="47.97501" lon="6.98021">
        <ele>1030.5</ele>
        <time>2018-05-21T08:46:02Z</time>
      </trkpt>
      <trkpt lat="47.97502" lon="6.9803">
        <ele>1031.29</ele>
        <time>2018-05-21T08:46:10Z</time>
      </trkpt>
      <trkpt lat="47.97501" lon="6.98054">
        <ele>1033.78</ele>
        <time>2018-05-21T08:46:28Z</time>
      </trkpt>
      <trkpt lat="47.97503" lon="6.98071">
        <ele>1034.62</ele>
        <time>2018-05-21T08:46:43Z</time>
      </trkpt>
      <trkpt lat="47.97504" lon="6.98093">
        <ele>1036.07</ele>
        <time>2018-05-21T08:47:09Z</time>
      </trkpt>
      <trkpt lat="47.97505" lon="6.9812">
        <ele>1039.3</ele>
        <time>2018-05-21T08:47:32Z</time>
      </trkpt>
      <trkpt lat="47.97505" lon="6.98121">
        <ele>1036.02</ele>
        <time>2018-05-21T08:47:33Z</time>
      </trkpt>
      <trkpt lat="47.97505" lon="6.98154">
        <ele>1038.11</ele>
        <time>2018-05-21T08:47:50Z</time>
      </trkpt>
      <trkpt lat="47.97507" lon="6.98184">
        <ele>1038.93</ele>
        <time>2018-05-21T08:48:11Z</time>
      </trkpt>
      <trkpt lat="47.97509" lon="6.98208">
        <ele>1042.35</ele>
        <time>2018-05-21T08:48:28Z</time>
      </trkpt>
      <trkpt lat="47.97506" lon="6.98231">
        <ele>1045.71</ele>
        <time>2018-05-21T08:48:49Z</time>
      </trkpt>
      <trkpt lat="47.97506" lon="6.98249">
        <ele>1047.79</ele>
        <time>2018-05-21T08:49:03Z</time>
      </trkpt>
      <trkpt lat="47.97506" lon="6.98268">
        <ele>1051.63</ele>
        <time>2018-05-21T08:49:22Z</time>
      </trkpt>
      <trkpt lat="47.97509" lon="6.98282">
        <ele>1054.83</ele>
        <time>2018-05-21T08:49:42Z</time>
      </trkpt>
      <trkpt lat="47.97507" lon="6.98293">
        <ele>1056.75</ele>
        <time>2018-05-21T08:49:54Z</time>
      </trkpt>
      <trkpt lat="47.97508" lon="6.98308">
        <ele>1060.34</ele>
        <time>2018-05-21T08:50:08Z</time>
      </trkpt>
      <trkpt lat="47.97507" lon="6.98325">
        <ele>1063.39</ele>
        <time>2018-05-21T08:50:24Z</time>
      </trkpt>
      <trkpt lat="47.97509" lon="6.9834">
        <ele>1066.79</ele>
        <time>2018-05-21T08:50:41Z</time>
      </trkpt>
      <trkpt lat="47.97509" lon="6.9834">
        <ele>1066.91</ele>
        <time>2018-05-21T08:50:42Z</time>
      </trkpt>
      <trkpt lat="47.97508" lon="6.98357">
        <ele>1070.02</ele>
        <time>2018-05-21T08:51:01Z</time>
      </trkpt>
      <trkpt lat="47.97504" lon="6.98374">
        <ele>1073.04</ele>
        <time>2018-05-21T08:51:21Z</time>
      </trkpt>
      <trkpt lat="47.97507" lon="6.98386">
        <ele>1076.12</ele>
        <time>2018-05-21T08:51:36Z</time>
      </trkpt>
      <trkpt lat="47.97508" lon="6.98401">
        <ele>1077.94</ele>
        <time>2018-05-21T08:51:54Z</time>
      </trkpt>
      <trkpt lat="47.97515" lon="6.98409">
        <ele>1081.03</ele>
        <time>2018-05-21T08:52:12Z</time>
      </trkpt>
      <trkpt lat="47.97525" lon="6.98414">
        <ele>1084.18</ele>
        <time>2018-05-21T08:52:27Z</time>
      </trkpt>
      <trkpt lat="47.97536" lon="6.98414">
        <ele>1087.96</ele>
        <time>2018-05-21T08:52:47Z</time>
      </trkpt>
      <trkpt lat="47.97543" lon="6.98407">
        <ele>1090.21</ele>
        <time>2018-05-21T08:53:09Z</time>
      </trkpt>
      <trkpt lat="47.97544" lon="6.98405">
        <ele>1090.13</ele>
        <time>2018-05-21T08:53:11Z</time>
      </trkpt>
      <trkpt lat="47.97537" lon="6.98399">
        <ele>1093.09</ele>
        <time>2018-05-21T08:53:39Z</time>
      </trkpt>
      <trkpt lat="47.97535" lon="6.98407">
        <ele>1096.18</ele>
        <time>2018-05-21T08:53:52Z</time>
      </trkpt>
      <trkpt lat="47.97535" lon="6.98409">
        <ele>1095.83</ele>
        <time>2018-05-21T08:53:57Z</time>
      </trkpt>
      <trkpt lat="47.97533" lon="6.98421">
        <ele>1100.05</ele>
        <time>2018-05-21T08:54:11Z</time>
      </trkpt>
      <trkpt lat="47.97541" lon="6.98425">
        <ele>1103.32</ele>
        <time>2018-05-21T08:54:29Z</time>
      </trkpt>
      <trkpt lat="47.97548" lon="6.98426">
        <ele>1106.49</ele>
        <time>2018-05-21T08:54:48Z</time>
      </trkpt>
      <trkpt lat="47.97556" lon="6.98425">
        <ele>1109.59</ele>
        <time>2018-05-21T08:55:00Z</time>
      </trkpt>
      <trkpt lat="47.97557" lon="6.98425">
        <ele>1108.75</ele>
        <time>2018-05-21T08:55:04Z</time>
      </trkpt>
      <trkpt lat="47.97562" lon="6.98426">
        <ele>1109.86</ele>
        <time>2018-05-21T08:55:09Z</time>
      </trkpt>
      <trkpt lat="47.97566" lon="6.98423">
        <ele>1109.88</ele>
        <time>2018-05-21T08:55:21Z</time>
      </trkpt>
      <trkpt lat="47.97568" lon="6.98422">
        <ele>1110.44</ele>
        <time>2018-05-21T08:55:45Z</time>
      </trkpt>
      <trkpt lat="47.97566" lon="6.98419">
        <ele>1109.34</ele>
        <time>2018-05-21T08:55:47Z</time>
      </trkpt>
      <trkpt lat="47.97567" lon="6.98417">
        <ele>1109.44</ele>
        <time>2018-05-21T08:56:02Z</time>
      </trkpt>
      <trkpt lat="47.9756" lon="6.98415">
        <ele>1109.1</ele>
        <time>2018-05-21T08:56:30Z</time>
      </trkpt>
      <trkpt lat="47.97565" lon="6.98414">
        <ele>1108.89</ele>
        <time>2018-05-21T08:56:51Z</time>
      </trkpt>
      <trkpt lat="47.97576" lon="6.98407">
        <ele>1110.07</ele>
        <time>2018-05-21T08:57:10Z</time>
      </trkpt>
      <trkpt lat="47.97578" lon="6.98406">
        <ele>1110.51</ele>
        <time>2018-05-21T08:57:16Z</time>
      </trkpt>
      <trkpt lat="47.97577" lon="6.98397">
        <ele>1110.76</ele>
        <time>2018-05-21T08:57:41Z</time>
      </trkpt>
      <trkpt lat="47.97577" lon="6.98398">
        <ele>1105.92</ele>
        <time>2018-05-21T08:57:53Z</time>
      </trkpt>
      <trkpt lat="47.97577" lon="6.98398">
        <ele>1111.42</ele>
        <time>2018-05-21T08:57:54Z</time>
      </trkpt>
      <trkpt lat="47.97576" lon="6.98398">
        <ele>1111.08</ele>
        <time>2018-05-21T08:57:59Z</time>
      </trkpt>
      <trkpt lat="47.97575" lon="6.98398">
        <ele>1107.59</ele>
        <time>2018-05-21T08:58:17Z</time>
      </trkpt>
      <trkpt lat="47.97575" lon="6.98398">
        <ele>1110.66</ele>
        <time>2018-05-21T08:58:19Z</time>
      </trkpt>
      <trkpt lat="47.97575" lon="6.98399">
        <ele>1110.94</ele>
        <time>2018-05-21T08:58:20Z</time>
      </trkpt>
      <trkpt lat="47.97577" lon="6.98402">
        <ele>1113.98</ele>
        <time>2018-05-21T08:58:26Z</time>
      </trkpt>
      <trkpt lat="47.97577" lon="6.98404">
        <ele>1111.56</ele>
        <time>2018-05-21T08:58:28Z</time>
      </trkpt>
      <trkpt lat="47.97578" lon="6.98402">
        <ele>1111.54</ele>
        <time>2018-05-21T08:58:34Z</time>
      </trkpt>
      <trkpt lat="47.97576" lon="6.984">
        <ele>1111.54</ele>
        <time>2018-05-21T08:58:39Z</time>
      </trkpt>
      <trkpt lat="47.97571" lon="6.98401">
        <ele>1111.17</ele>
        <time>2018-05-21T08:58:58Z</time>
      </trkpt>
      <trkpt lat="47.97571" lon="6.98403">
        <ele>1111.07</ele>
        <time>2018-05-21T08:59:19Z</time>
      </trkpt>
      <trkpt lat="47.9757" lon="6.98403">
        <ele>1113.7</ele>
        <time>2018-05-21T08:59:29Z</time>
      </trkpt>
      <trkpt lat="47.9757" lon="6.98405">
        <ele>1111.78</ele>
        <time>2018-05-21T08:59:32Z</time>
      </trkpt>
      <trkpt lat="47.9757" lon="6.98406">
        <ele>1112.55</ele>
        <time>2018-05-21T08:59:58Z</time>
      </trkpt>
      <trkpt lat="47.97569" lon="6.98407">
        <ele>1113.29</ele>
        <time>2018-05-21T09:00:28Z</time>
      </trkpt>
      <trkpt lat="47.97569" lon="6.98407">
        <ele>1113.52</ele>
        <time>2018-05-21T09:00:55Z</time>
      </trkpt>
      <trkpt lat="47.97569" lon="6.98406">
        <ele>1113.68</ele>
        <time>2018-05-21T09:01:21Z</time>
      </trkpt>
      <trkpt lat="47.97569" lon="6.98407">
        <ele>1114.36</ele>
        <time>2018-05-21T09:01:42Z</time>
      </trkpt>
      <trkpt lat="47.97571" lon="6.9841">
        <ele>1114.91</ele>
        <time>2018-05-21T09:02:08Z</time>
      </trkpt>
      <trkpt lat="47.97569" lon="6.98412">
        <ele>1115.54</ele>
        <time>2018-05-21T09:02:16Z</time>
      </trkpt>
      <trkpt lat="47.9757" lon="6.98414">
        <ele>1115.89</ele>
        <time>2018-05-21T09:02:41Z</time>
      </trkpt>
      <trkpt lat="47.97567" lon="6.98416">
        <ele>1116.41</ele>
        <time>2018-05-21T09:03:06Z</time>
      </trkpt>
      <trkpt lat="47.97565" lon="6.98415">
        <ele>1117.08</ele>
        <time>2018-05-21T09:03:28Z</time>
      </trkpt>
      <trkpt lat="47.97565" lon="6.98415">
        <ele>1117.32</ele>
        <time>2018-05-21T09:03:40Z</time>
      </trkpt>
      <trkpt lat="47.97571" lon="6.98401">
        <ele>1118.3</ele>
        <time>2018-05-21T09:04:05Z</time>
      </trkpt>
      <trkpt lat="47.97574" lon="6.984">
        <ele>1118.28</ele>
        <time>2018-05-21T09:04:08Z</time>
      </trkpt>
      <trkpt lat="47.9758" lon="6.98406">
        <ele>1118.77</ele>
        <time>2018-05-21T09:04:36Z</time>
      </trkpt>
      <trkpt lat="47.97581" lon="6.98405">
        <ele>1119.16</ele>
        <time>2018-05-21T09:05:03Z</time>
      </trkpt>
      <trkpt lat="47.97587" lon="6.98403">
        <ele>1119.44</ele>
        <time>2018-05-21T09:05:23Z</time>
      </trkpt>
      <trkpt lat="47.97599" lon="6.98393">
        <ele>1120.88</ele>
        <time>2018-05-21T09:05:44Z</time>
      </trkpt>
      <trkpt lat="47.97605" lon="6.98384">
        <ele>1120.91</ele>
        <time>2018-05-21T09:06:08Z</time>
      </trkpt>
      <trkpt lat="47.9762" lon="6.98372">
        <ele>1121.83</ele>
        <time>2018-05-21T09:06:26Z</time>
      </trkpt>
      <trkpt lat="47.97627" lon="6.98363">
        <ele>1121.15</ele>
        <time>2018-05-21T09:06:49Z</time>
      </trkpt>
      <trkpt lat="47.97634" lon="6.98359">
        <ele>1122</ele>
        <time>2018-05-21T09:07:02Z</time>
      </trkpt>
      <trkpt lat="47.97659" lon="6.98346">
        <ele>1122.14</ele>
        <time>2018-05-21T09:07:22Z</time>
      </trkpt>
      <trkpt lat="47.97678" lon="6.98342">
        <ele>1122.49</ele>
        <time>2018-05-21T09:07:36Z</time>
      </trkpt>
      <trkpt lat="47.97694" lon="6.98342">
        <ele>1123.9</ele>
        <time>2018-05-21T09:07:49Z</time>
      </trkpt>
      <trkpt lat="47.97707" lon="6.98339">
        <ele>1125.02</ele>
        <time>2018-05-21T09:08:01Z</time>
      </trkpt>
      <trkpt lat="47.97709" lon="6.98335">
        <ele>1125.11</ele>
        <time>2018-05-21T09:08:16Z</time>
      </trkpt>
      <trkpt lat="47.97711" lon="6.98339">
        <ele>1125.81</ele>
        <time>2018-05-21T09:08:37Z</time>
      </trkpt>
      <trkpt lat="47.97717" lon="6.98346">
        <ele>1126.53</ele>
        <time>2018-05-21T09:08:56Z</time>
      </trkpt>
      <trkpt lat="47.97725" lon="6.98351">
        <ele>1128.55</ele>
        <time>2018-05-21T09:09:07Z</time>
      </trkpt>
      <trkpt lat="47.97739" lon="6.98352">
        <ele>1130.43</ele>
        <time>2018-05-21T09:09:24Z</time>
      </trkpt>
      <trkpt lat="47.97742" lon="6.98352">
        <ele>1130.52</ele>
        <time>2018-05-21T09:09:31Z</time>
      </trkpt>
      <trkpt lat="47.97744" lon="6.98353">
        <ele>1131.1</ele>
        <time>2018-05-21T09:09:33Z</time>
      </trkpt>
      <trkpt lat="47.97762" lon="6.98356">
        <ele>1133.34</ele>
        <time>2018-05-21T09:09:51Z</time>
      </trkpt>
      <trkpt lat="47.97782" lon="6.98354">
        <ele>1134.87</ele>
        <time>2018-05-21T09:10:09Z</time>
      </trkpt>
      <trkpt lat="47.978" lon="6.98352">
        <ele>1136.59</ele>
        <time>2018-05-21T09:10:27Z</time>
      </trkpt>
      <trkpt lat="47.97819" lon="6.98352">
        <ele>1138.67</ele>
        <time>2018-05-21T09:10:44Z</time>
      </trkpt>
      <trkpt lat="47.97837" lon="6.98351">
        <ele>1139.33</ele>
        <time>2018-05-21T09:11:02Z</time>
      </trkpt>
      <trkpt lat="47.97849" lon="6.98354">
        <ele>1141.49</ele>
        <time>2018-05-21T09:11:16Z</time>
      </trkpt>
      <trkpt lat="47.97857" lon="6.98359">
        <ele>1142.03</ele>
        <time>2018-05-21T09:11:25Z</time>
      </trkpt>
      <trkpt lat="47.97869" lon="6.98368">
        <ele>1144.04</ele>
        <time>2018-05-21T09:11:41Z</time>
      </trkpt>
      <trkpt lat="47.97874" lon="6.98372">
        <ele>1145.26</ele>
        <time>2018-05-21T09:11:46Z</time>
      </trkpt>
      <trkpt lat="47.97886" lon="6.9838">
        <ele>1146.36</ele>
        <time>2018-05-21T09:11:59Z</time>
      </trkpt>
      <trkpt lat="47.97903" lon="6.98388">
        <ele>1146.71</ele>
        <time>2018-05-21T09:12:16Z</time>
      </trkpt>
      <trkpt lat="47.97915" lon="6.98387">
        <ele>1149.27</ele>
        <time>2018-05-21T09:12:28Z</time>
      </trkpt>
      <trkpt lat="47.9793" lon="6.98388">
        <ele>1150.35</ele>
        <time>2018-05-21T09:12:47Z</time>
      </trkpt>
      <trkpt lat="47.97938" lon="6.98389">
        <ele>1151.13</ele>
        <time>2018-05-21T09:13:02Z</time>
      </trkpt>
      <trkpt lat="47.97939" lon="6.9839">
        <ele>1150.49</ele>
        <time>2018-05-21T09:13:04Z</time>
      </trkpt>
      <trkpt lat="47.97947" lon="6.98402">
        <ele>1151.63</ele>
        <time>2018-05-21T09:13:18Z</time>
      </trkpt>
      <trkpt lat="47.9795" lon="6.98419">
        <ele>1152.8</ele>
        <time>2018-05-21T09:13:31Z</time>
      </trkpt>
      <trkpt lat="47.97957" lon="6.98446">
        <ele>1154.92</ele>
        <time>2018-05-21T09:13:48Z</time>
      </trkpt>
      <trkpt lat="47.97964" lon="6.98467">
        <ele>1156.18</ele>
        <time>2018-05-21T09:14:02Z</time>
      </trkpt>
      <trkpt lat="47.97975" lon="6.98487">
        <ele>1157.44</ele>
        <time>2018-05-21T09:14:19Z</time>
      </trkpt>
      <trkpt lat="47.97976" lon="6.98492">
        <ele>1158.45</ele>
        <time>2018-05-21T09:14:40Z</time>
      </trkpt>
      <trkpt lat="47.97976" lon="6.98492">
        <ele>1158.8</ele>
        <time>2018-05-21T09:14:58Z</time>
      </trkpt>
      <trkpt lat="47.97977" lon="6.98492">
        <ele>1159.23</ele>
        <time>2018-05-21T09:15:16Z</time>
      </trkpt>
      <trkpt lat="47.97977" lon="6.98493">
        <ele>1158.87</ele>
        <time>2018-05-21T09:15:39Z</time>
      </trkpt>
      <trkpt lat="47.97976" lon="6.98494">
        <ele>1160.41</ele>
        <time>2018-05-21T09:15:58Z</time>
      </trkpt>
      <trkpt lat="47.97976" lon="6.98497">
        <ele>1154.44</ele>
        <time>2018-05-21T09:16:04Z</time>
      </trkpt>
      <trkpt lat="47.97975" lon="6.98496">
        <ele>1161.3</ele>
        <time>2018-05-21T09:16:05Z</time>
      </trkpt>
      <trkpt lat="47.97975" lon="6.98496">
        <ele>1159.76</ele>
        <time>2018-05-21T09:16:06Z</time>
      </trkpt>
      <trkpt lat="47.97972" lon="6.98495">
        <ele>1164.92</ele>
        <time>2018-05-21T09:16:16Z</time>
      </trkpt>
      <trkpt lat="47.97975" lon="6.98497">
        <ele>1160.36</ele>
        <time>2018-05-21T09:16:17Z</time>
      </trkpt>
      <trkpt lat="47.97977" lon="6.98509">
        <ele>1160.5</ele>
        <time>2018-05-21T09:16:34Z</time>
      </trkpt>
      <trkpt lat="47.97977" lon="6.98504">
        <ele>1160.44</ele>
        <time>2018-05-21T09:16:42Z</time>
      </trkpt>
      <trkpt lat="47.97993" lon="6.98488">
        <ele>1160.58</ele>
        <time>2018-05-21T09:16:57Z</time>
      </trkpt>
      <trkpt lat="47.98008" lon="6.98478">
        <ele>1161.26</ele>
        <time>2018-05-21T09:17:12Z</time>
      </trkpt>
      <trkpt lat="47.98023" lon="6.98466">
        <ele>1163.42</ele>
        <time>2018-05-21T09:17:29Z</time>
      </trkpt>
      <trkpt lat="47.98038" lon="6.98456">
        <ele>1165.48</ele>
        <time>2018-05-21T09:17:46Z</time>
      </trkpt>
      <trkpt lat="47.98051" lon="6.98447">
        <ele>1166.37</ele>
        <time>2018-05-21T09:18:01Z</time>
      </trkpt>
      <trkpt lat="47.98058" lon="6.98442">
        <ele>1168.37</ele>
        <time>2018-05-21T09:18:09Z</time>
      </trkpt>
      <trkpt lat="47.98072" lon="6.98433">
        <ele>1170.93</ele>
        <time>2018-05-21T09:18:26Z</time>
      </trkpt>
      <trkpt lat="47.98085" lon="6.98423">
        <ele>1171.49</ele>
        <time>2018-05-21T09:18:43Z</time>
      </trkpt>
      <trkpt lat="47.98097" lon="6.98416">
        <ele>1173.92</ele>
        <time>2018-05-21T09:19:03Z</time>
      </trkpt>
      <trkpt lat="47.98105" lon="6.98407">
        <ele>1175.45</ele>
        <time>2018-05-21T09:19:24Z</time>
      </trkpt>
      <trkpt lat="47.98109" lon="6.98403">
        <ele>1175.78</ele>
        <time>2018-05-21T09:19:29Z</time>
      </trkpt>
      <trkpt lat="47.98126" lon="6.98395">
        <ele>1179.26</ele>
        <time>2018-05-21T09:19:47Z</time>
      </trkpt>
      <trkpt lat="47.98135" lon="6.98392">
        <ele>1179.5</ele>
        <time>2018-05-21T09:19:56Z</time>
      </trkpt>
      <trkpt lat="47.98147" lon="6.98391">
        <ele>1181.86</ele>
        <time>2018-05-21T09:20:12Z</time>
      </trkpt>
      <trkpt lat="47.9815" lon="6.98387">
        <ele>1182.59</ele>
        <time>2018-05-21T09:20:33Z</time>
      </trkpt>
      <trkpt lat="47.98158" lon="6.98385">
        <ele>1183.41</ele>
        <time>2018-05-21T09:20:43Z</time>
      </trkpt>
      <trkpt lat="47.98173" lon="6.98382">
        <ele>1184.59</ele>
        <time>2018-05-21T09:21:00Z</time>
      </trkpt>
      <trkpt lat="47.98179" lon="6.98381">
        <ele>1185.35</ele>
        <time>2018-05-21T09:21:07Z</time>
      </trkpt>
      <trkpt lat="47.98182" lon="6.9838">
        <ele>1186.19</ele>
        <time>2018-05-21T09:21:10Z</time>
      </trkpt>
      <trkpt lat="47.98195" lon="6.98373">
        <ele>1187.5</ele>
        <time>2018-05-21T09:21:29Z</time>
      </trkpt>
      <trkpt lat="47.98197" lon="6.98373">
        <ele>1188.27</ele>
        <time>2018-05-21T09:21:44Z</time>
      </trkpt>
      <trkpt lat="47.98197" lon="6.98373">
        <ele>1188.76</ele>
        <time>2018-05-21T09:22:02Z</time>
      </trkpt>
      <trkpt lat="47.98199" lon="6.98373">
        <ele>1188.49</ele>
        <time>2018-05-21T09:22:08Z</time>
      </trkpt>
      <trkpt lat="47.98204" lon="6.98372">
        <ele>1188.82</ele>
        <time>2018-05-21T09:22:13Z</time>
      </trkpt>
      <trkpt lat="47.98208" lon="6.9837">
        <ele>1190.6</ele>
        <time>2018-05-21T09:22:16Z</time>
      </trkpt>
      <trkpt lat="47.98215" lon="6.98368">
        <ele>1190.99</ele>
        <time>2018-05-21T09:22:22Z</time>
      </trkpt>
      <trkpt lat="47.98225" lon="6.98364">
        <ele>1192.01</ele>
        <time>2018-05-21T09:22:37Z</time>
      </trkpt>
      <trkpt lat="47.98228" lon="6.98363">
        <ele>1192.65</ele>
        <time>2018-05-21T09:22:44Z</time>
      </trkpt>
      <trkpt lat="47.98233" lon="6.98361">
        <ele>1193.56</ele>
        <time>2018-05-21T09:22:48Z</time>
      </trkpt>
      <trkpt lat="47.98248" lon="6.98355">
        <ele>1195.32</ele>
        <time>2018-05-21T09:23:01Z</time>
      </trkpt>
      <trkpt lat="47.98266" lon="6.98343">
        <ele>1196.32</ele>
        <time>2018-05-21T09:23:17Z</time>
      </trkpt>
      <trkpt lat="47.98276" lon="6.98338">
        <ele>1196.68</ele>
        <time>2018-05-21T09:23:31Z</time>
      </trkpt>
      <trkpt lat="47.98283" lon="6.98338">
        <ele>1197.97</ele>
        <time>2018-05-21T09:23:39Z</time>
      </trkpt>
      <trkpt lat="47.9829" lon="6.9834">
        <ele>1197.75</ele>
        <time>2018-05-21T09:23:45Z</time>
      </trkpt>
      <trkpt lat="47.98309" lon="6.98334">
        <ele>1199.04</ele>
        <time>2018-05-21T09:24:00Z</time>
      </trkpt>
      <trkpt lat="47.98325" lon="6.98322">
        <ele>1202.23</ele>
        <time>2018-05-21T09:24:12Z</time>
      </trkpt>
      <trkpt lat="47.98335" lon="6.98308">
        <ele>1203.18</ele>
        <time>2018-05-21T09:24:25Z</time>
      </trkpt>
      <trkpt lat="47.98346" lon="6.98292">
        <ele>1204.37</ele>
        <time>2018-05-21T09:24:42Z</time>
      </trkpt>
      <trkpt lat="47.9836" lon="6.98278">
        <ele>1205.28</ele>
        <time>2018-05-21T09:24:58Z</time>
      </trkpt>
      <trkpt lat="47.98365" lon="6.98274">
        <ele>1205.82</ele>
        <time>2018-05-21T09:25:07Z</time>
      </trkpt>
      <trkpt lat="47.98374" lon="6.9827">
        <ele>1205.03</ele>
        <time>2018-05-21T09:25:17Z</time>
      </trkpt>
      <trkpt lat="47.98383" lon="6.98253">
        <ele>1204.93</ele>
        <time>2018-05-21T09:25:37Z</time>
      </trkpt>
      <trkpt lat="47.98384" lon="6.9825">
        <ele>1204.45</ele>
        <time>2018-05-21T09:25:40Z</time>
      </trkpt>
      <trkpt lat="47.98388" lon="6.98241">
        <ele>1205.12</ele>
        <time>2018-05-21T09:25:48Z</time>
      </trkpt>
      <trkpt lat="47.98388" lon="6.98232">
        <ele>1203.72</ele>
        <time>2018-05-21T09:26:03Z</time>
      </trkpt>
      <trkpt lat="47.98393" lon="6.98225">
        <ele>1203.6</ele>
        <time>2018-05-21T09:26:10Z</time>
      </trkpt>
      <trkpt lat="47.98409" lon="6.98208">
        <ele>1201.56</ele>
        <time>2018-05-21T09:26:28Z</time>
      </trkpt>
      <trkpt lat="47.98423" lon="6.98194">
        <ele>1202.37</ele>
        <time>2018-05-21T09:26:42Z</time>
      </trkpt>
      <trkpt lat="47.9844" lon="6.98177">
        <ele>1203.78</ele>
        <time>2018-05-21T09:26:58Z</time>
      </trkpt>
      <trkpt lat="47.98457" lon="6.98161">
        <ele>1203.97</ele>
        <time>2018-05-21T09:27:14Z</time>
      </trkpt>
      <trkpt lat="47.98469" lon="6.98143">
        <ele>1203.57</ele>
        <time>2018-05-21T09:27:29Z</time>
      </trkpt>
      <trkpt lat="47.98483" lon="6.98124">
        <ele>1203.58</ele>
        <time>2018-05-21T09:27:45Z</time>
      </trkpt>
      <trkpt lat="47.98497" lon="6.98103">
        <ele>1203.01</ele>
        <time>2018-05-21T09:28:02Z</time>
      </trkpt>
      <trkpt lat="47.98509" lon="6.98085">
        <ele>1205.09</ele>
        <time>2018-05-21T09:28:17Z</time>
      </trkpt>
      <trkpt lat="47.98518" lon="6.98067">
        <ele>1205.47</ele>
        <time>2018-05-21T09:28:31Z</time>
      </trkpt>
      <trkpt lat="47.98528" lon="6.98052">
        <ele>1208.84</ele>
        <time>2018-05-21T09:28:44Z</time>
      </trkpt>
      <trkpt lat="47.98537" lon="6.9804">
        <ele>1210.17</ele>
        <time>2018-05-21T09:28:58Z</time>
      </trkpt>
      <trkpt lat="47.98544" lon="6.98032">
        <ele>1211.58</ele>
        <time>2018-05-21T09:29:09Z</time>
      </trkpt>
      <trkpt lat="47.98557" lon="6.98027">
        <ele>1213.01</ele>
        <time>2018-05-21T09:29:23Z</time>
      </trkpt>
      <trkpt lat="47.98575" lon="6.98023">
        <ele>1212.87</ele>
        <time>2018-05-21T09:29:41Z</time>
      </trkpt>
      <trkpt lat="47.98587" lon="6.98022">
        <ele>1212.72</ele>
        <time>2018-05-21T09:29:56Z</time>
      </trkpt>
      <trkpt lat="47.9861" lon="6.98019">
        <ele>1214.51</ele>
        <time>2018-05-21T09:30:14Z</time>
      </trkpt>
      <trkpt lat="47.98628" lon="6.98014">
        <ele>1215.13</ele>
        <time>2018-05-21T09:30:31Z</time>
      </trkpt>
      <trkpt lat="47.98643" lon="6.98012">
        <ele>1216.5</ele>
        <time>2018-05-21T09:30:46Z</time>
      </trkpt>
      <trkpt lat="47.9865" lon="6.98009">
        <ele>1218.22</ele>
        <time>2018-05-21T09:30:54Z</time>
      </trkpt>
      <trkpt lat="47.98665" lon="6.98006">
        <ele>1220.11</ele>
        <time>2018-05-21T09:31:11Z</time>
      </trkpt>
      <trkpt lat="47.98669" lon="6.98004">
        <ele>1220.54</ele>
        <time>2018-05-21T09:31:15Z</time>
      </trkpt>
      <trkpt lat="47.9868" lon="6.97997">
        <ele>1219.81</ele>
        <time>2018-05-21T09:31:30Z</time>
      </trkpt>
      <trkpt lat="47.98688" lon="6.97999">
        <ele>1220.07</ele>
        <time>2018-05-21T09:31:47Z</time>
      </trkpt>
      <trkpt lat="47.9869" lon="6.98">
        <ele>1219.73</ele>
        <time>2018-05-21T09:31:50Z</time>
      </trkpt>
      <trkpt lat="47.98694" lon="6.98001">
        <ele>1220.63</ele>
        <time>2018-05-21T09:31:54Z</time>
      </trkpt>
      <trkpt lat="47.987" lon="6.98001">
        <ele>1220.69</ele>
        <time>2018-05-21T09:31:59Z</time>
      </trkpt>
      <trkpt lat="47.98709" lon="6.98006">
        <ele>1221</ele>
        <time>2018-05-21T09:32:15Z</time>
      </trkpt>
      <trkpt lat="47.9871" lon="6.98006">
        <ele>1219.74</ele>
        <time>2018-05-21T09:32:19Z</time>
      </trkpt>
      <trkpt lat="47.98714" lon="6.98007">
        <ele>1220.39</ele>
        <time>2018-05-21T09:32:25Z</time>
      </trkpt>
      <trkpt lat="47.98719" lon="6.98">
        <ele>1220.1</ele>
        <time>2018-05-21T09:32:30Z</time>
      </trkpt>
      <trkpt lat="47.98721" lon="6.97994">
        <ele>1220.7</ele>
        <time>2018-05-21T09:32:42Z</time>
      </trkpt>
      <trkpt lat="47.98722" lon="6.97993">
        <ele>1219.74</ele>
        <time>2018-05-21T09:32:55Z</time>
      </trkpt>
      <trkpt lat="47.98724" lon="6.97991">
        <ele>1220.2</ele>
        <time>2018-05-21T09:32:58Z</time>
      </trkpt>
      <trkpt lat="47.98739" lon="6.97976">
        <ele>1220.87</ele>
        <time>2018-05-21T09:33:15Z</time>
      </trkpt>
      <trkpt lat="47.98757" lon="6.97975">
        <ele>1221.88</ele>
        <time>2018-05-21T09:33:31Z</time>
      </trkpt>
      <trkpt lat="47.98774" lon="6.97974">
        <ele>1223.21</ele>
        <time>2018-05-21T09:33:48Z</time>
      </trkpt>
      <trkpt lat="47.98791" lon="6.97972">
        <ele>1224.76</ele>
        <time>2018-05-21T09:34:06Z</time>
      </trkpt>
      <trkpt lat="47.98802" lon="6.97972">
        <ele>1225.53</ele>
        <time>2018-05-21T09:34:19Z</time>
      </trkpt>
      <trkpt lat="47.98817" lon="6.97977">
        <ele>1226.64</ele>
        <time>2018-05-21T09:34:35Z</time>
      </trkpt>
      <trkpt lat="47.9883" lon="6.97981">
        <ele>1228.18</ele>
        <time>2018-05-21T09:34:50Z</time>
      </trkpt>
      <trkpt lat="47.98838" lon="6.97987">
        <ele>1227.49</ele>
        <time>2018-05-21T09:34:59Z</time>
      </trkpt>
      <trkpt lat="47.98856" lon="6.97999">
        <ele>1228.16</ele>
        <time>2018-05-21T09:35:18Z</time>
      </trkpt>
      <trkpt lat="47.98873" lon="6.98006">
        <ele>1228.38</ele>
        <time>2018-05-21T09:35:35Z</time>
      </trkpt>
      <trkpt lat="47.98892" lon="6.98007">
        <ele>1229.17</ele>
        <time>2018-05-21T09:35:52Z</time>
      </trkpt>
      <trkpt lat="47.98907" lon="6.98004">
        <ele>1229.64</ele>
        <time>2018-05-21T09:36:07Z</time>
      </trkpt>
      <trkpt lat="47.9892" lon="6.98006">
        <ele>1230.7</ele>
        <time>2018-05-21T09:36:23Z</time>
      </trkpt>
      <trkpt lat="47.98929" lon="6.98009">
        <ele>1232.17</ele>
        <time>2018-05-21T09:36:40Z</time>
      </trkpt>
      <trkpt lat="47.98934" lon="6.98011">
        <ele>1232.95</ele>
        <time>2018-05-21T09:36:48Z</time>
      </trkpt>
      <trkpt lat="47.98938" lon="6.98012">
        <ele>1232.63</ele>
        <time>2018-05-21T09:36:52Z</time>
      </trkpt>
      <trkpt lat="47.98958" lon="6.9802">
        <ele>1232.1</ele>
        <time>2018-05-21T09:37:11Z</time>
      </trkpt>
      <trkpt lat="47.98973" lon="6.98022">
        <ele>1233.41</ele>
        <time>2018-05-21T09:37:26Z</time>
      </trkpt>
      <trkpt lat="47.98994" lon="6.98019">
        <ele>1234.02</ele>
        <time>2018-05-21T09:37:45Z</time>
      </trkpt>
      <trkpt lat="47.9901" lon="6.9802">
        <ele>1234.68</ele>
        <time>2018-05-21T09:38:01Z</time>
      </trkpt>
      <trkpt lat="47.99028" lon="6.98022">
        <ele>1236.08</ele>
        <time>2018-05-21T09:38:19Z</time>
      </trkpt>
      <trkpt lat="47.99046" lon="6.98024">
        <ele>1235.65</ele>
        <time>2018-05-21T09:38:36Z</time>
      </trkpt>
      <trkpt lat="47.99064" lon="6.98023">
        <ele>1235.8</ele>
        <time>2018-05-21T09:38:53Z</time>
      </trkpt>
      <trkpt lat="47.99077" lon="6.98018">
        <ele>1236.96</ele>
        <time>2018-05-21T09:39:08Z</time>
      </trkpt>
      <trkpt lat="47.99094" lon="6.98009">
        <ele>1237.24</ele>
        <time>2018-05-21T09:39:26Z</time>
      </trkpt>
      <trkpt lat="47.99109" lon="6.98">
        <ele>1237.39</ele>
        <time>2018-05-21T09:39:42Z</time>
      </trkpt>
      <trkpt lat="47.99114" lon="6.97996">
        <ele>1237.16</ele>
        <time>2018-05-21T09:39:48Z</time>
      </trkpt>
      <trkpt lat="47.99128" lon="6.97987">
        <ele>1238.49</ele>
        <time>2018-05-21T09:40:02Z</time>
      </trkpt>
      <trkpt lat="47.99143" lon="6.97974">
        <ele>1238.88</ele>
        <time>2018-05-21T09:40:19Z</time>
      </trkpt>
      <trkpt lat="47.99158" lon="6.97965">
        <ele>1239.15</ele>
        <time>2018-05-21T09:40:36Z</time>
      </trkpt>
      <trkpt lat="47.99174" lon="6.97955">
        <ele>1239.31</ele>
        <time>2018-05-21T09:40:52Z</time>
      </trkpt>
      <trkpt lat="47.99189" lon="6.97945">
        <ele>1239.89</ele>
        <time>2018-05-21T09:41:08Z</time>
      </trkpt>
      <trkpt lat="47.99205" lon="6.97933">
        <ele>1241.04</ele>
        <time>2018-05-21T09:41:26Z</time>
      </trkpt>
      <trkpt lat="47.99223" lon="6.97923">
        <ele>1241.34</ele>
        <time>2018-05-21T09:41:44Z</time>
      </trkpt>
      <trkpt lat="47.99239" lon="6.97916">
        <ele>1241.19</ele>
        <time>2018-05-21T09:42:01Z</time>
      </trkpt>
      <trkpt lat="47.99257" lon="6.97905">
        <ele>1242.53</ele>
        <time>2018-05-21T09:42:19Z</time>
      </trkpt>
      <trkpt lat="47.99273" lon="6.97898">
        <ele>1243.32</ele>
        <time>2018-05-21T09:42:36Z</time>
      </trkpt>
      <trkpt lat="47.9929" lon="6.97893">
        <ele>1244.25</ele>
        <time>2018-05-21T09:42:54Z</time>
      </trkpt>
      <trkpt lat="47.99306" lon="6.97887">
        <ele>1245.25</ele>
        <time>2018-05-21T09:43:10Z</time>
      </trkpt>
      <trkpt lat="47.99308" lon="6.97886">
        <ele>1244.75</ele>
        <time>2018-05-21T09:43:12Z</time>
      </trkpt>
      <trkpt lat="47.99325" lon="6.97877">
        <ele>1244.7</ele>
        <time>2018-05-21T09:43:29Z</time>
      </trkpt>
      <trkpt lat="47.99341" lon="6.9787">
        <ele>1244.87</ele>
        <time>2018-05-21T09:43:47Z</time>
      </trkpt>
      <trkpt lat="47.99341" lon="6.97871">
        <ele>1245.33</ele>
        <time>2018-05-21T09:44:10Z</time>
      </trkpt>
      <trkpt lat="47.99345" lon="6.9787">
        <ele>1245.63</ele>
        <time>2018-05-21T09:44:37Z</time>
      </trkpt>
      <trkpt lat="47.99348" lon="6.97868">
        <ele>1245.77</ele>
        <time>2018-05-21T09:44:56Z</time>
      </trkpt>
      <trkpt lat="47.99351" lon="6.97867">
        <ele>1246.21</ele>
        <time>2018-05-21T09:44:59Z</time>
      </trkpt>
      <trkpt lat="47.99372" lon="6.9786">
        <ele>1246.47</ele>
        <time>2018-05-21T09:45:20Z</time>
      </trkpt>
      <trkpt lat="47.99389" lon="6.97854">
        <ele>1247.35</ele>
        <time>2018-05-21T09:45:36Z</time>
      </trkpt>
      <trkpt lat="47.99409" lon="6.97849">
        <ele>1246.53</ele>
        <time>2018-05-21T09:45:55Z</time>
      </trkpt>
      <trkpt lat="47.99429" lon="6.97848">
        <ele>1246.58</ele>
        <time>2018-05-21T09:46:13Z</time>
      </trkpt>
      <trkpt lat="47.99446" lon="6.97849">
        <ele>1245.51</ele>
        <time>2018-05-21T09:46:29Z</time>
      </trkpt>
      <trkpt lat="47.99463" lon="6.97849">
        <ele>1245.9</ele>
        <time>2018-05-21T09:46:46Z</time>
      </trkpt>
      <trkpt lat="47.99479" lon="6.97846">
        <ele>1246.7</ele>
        <time>2018-05-21T09:47:02Z</time>
      </trkpt>
      <trkpt lat="47.99499" lon="6.97849">
        <ele>1246.03</ele>
        <time>2018-05-21T09:47:20Z</time>
      </trkpt>
      <trkpt lat="47.99514" lon="6.97851">
        <ele>1247.62</ele>
        <time>2018-05-21T09:47:34Z</time>
      </trkpt>
      <trkpt lat="47.99532" lon="6.97855">
        <ele>1248.97</ele>
        <time>2018-05-21T09:47:51Z</time>
      </trkpt>
      <trkpt lat="47.99549" lon="6.97855">
        <ele>1248.17</ele>
        <time>2018-05-21T09:48:07Z</time>
      </trkpt>
      <trkpt lat="47.99572" lon="6.97857">
        <ele>1248.61</ele>
        <time>2018-05-21T09:48:28Z</time>
      </trkpt>
      <trkpt lat="47.99591" lon="6.97859">
        <ele>1247.56</ele>
        <time>2018-05-21T09:48:47Z</time>
      </trkpt>
      <trkpt lat="47.99611" lon="6.97859">
        <ele>1246.45</ele>
        <time>2018-05-21T09:49:05Z</time>
      </trkpt>
      <trkpt lat="47.99632" lon="6.97857">
        <ele>1247.07</ele>
        <time>2018-05-21T09:49:25Z</time>
      </trkpt>
      <trkpt lat="47.99648" lon="6.97855">
        <ele>1247.41</ele>
        <time>2018-05-21T09:49:42Z</time>
      </trkpt>
      <trkpt lat="47.99664" lon="6.97854">
        <ele>1247.03</ele>
        <time>2018-05-21T09:49:57Z</time>
      </trkpt>
      <trkpt lat="47.99681" lon="6.97853">
        <ele>1247.73</ele>
        <time>2018-05-21T09:50:13Z</time>
      </trkpt>
      <trkpt lat="47.99701" lon="6.97854">
        <ele>1248.92</ele>
        <time>2018-05-21T09:50:33Z</time>
      </trkpt>
      <trkpt lat="47.99719" lon="6.97855">
        <ele>1248.92</ele>
        <time>2018-05-21T09:50:51Z</time>
      </trkpt>
      <trkpt lat="47.99735" lon="6.97852">
        <ele>1250.47</ele>
        <time>2018-05-21T09:51:07Z</time>
      </trkpt>
      <trkpt lat="47.99751" lon="6.9785">
        <ele>1250.51</ele>
        <time>2018-05-21T09:51:23Z</time>
      </trkpt>
      <trkpt lat="47.99766" lon="6.97844">
        <ele>1251.09</ele>
        <time>2018-05-21T09:51:38Z</time>
      </trkpt>
      <trkpt lat="47.99782" lon="6.97832">
        <ele>1251.49</ele>
        <time>2018-05-21T09:51:54Z</time>
      </trkpt>
      <trkpt lat="47.99796" lon="6.97821">
        <ele>1250.97</ele>
        <time>2018-05-21T09:52:08Z</time>
      </trkpt>
      <trkpt lat="47.99804" lon="6.97814">
        <ele>1251.46</ele>
        <time>2018-05-21T09:52:17Z</time>
      </trkpt>
      <trkpt lat="47.99817" lon="6.97799">
        <ele>1252.1</ele>
        <time>2018-05-21T09:52:33Z</time>
      </trkpt>
      <trkpt lat="47.99822" lon="6.97794">
        <ele>1252.15</ele>
        <time>2018-05-21T09:52:39Z</time>
      </trkpt>
      <trkpt lat="47.99834" lon="6.97774">
        <ele>1252.37</ele>
        <time>2018-05-21T09:52:55Z</time>
      </trkpt>
      <trkpt lat="47.99842" lon="6.97762">
        <ele>1253.65</ele>
        <time>2018-05-21T09:53:06Z</time>
      </trkpt>
      <trkpt lat="47.99854" lon="6.97746">
        <ele>1253.92</ele>
        <time>2018-05-21T09:53:22Z</time>
      </trkpt>
      <trkpt lat="47.99864" lon="6.97731">
        <ele>1255.19</ele>
        <time>2018-05-21T09:53:36Z</time>
      </trkpt>
      <trkpt lat="47.99874" lon="6.97717">
        <ele>1255</ele>
        <time>2018-05-21T09:53:49Z</time>
      </trkpt>
      <trkpt lat="47.9988" lon="6.9771">
        <ele>1255.68</ele>
        <time>2018-05-21T09:53:57Z</time>
      </trkpt>
      <trkpt lat="47.99885" lon="6.97705">
        <ele>1255.7</ele>
        <time>2018-05-21T09:54:03Z</time>
      </trkpt>
      <trkpt lat="47.99894" lon="6.97697">
        <ele>1256.5</ele>
        <time>2018-05-21T09:54:13Z</time>
      </trkpt>
      <trkpt lat="47.99908" lon="6.97685">
        <ele>1256.97</ele>
        <time>2018-05-21T09:54:28Z</time>
      </trkpt>
      <trkpt lat="47.99913" lon="6.9768">
        <ele>1257.49</ele>
        <time>2018-05-21T09:54:41Z</time>
      </trkpt>
      <trkpt lat="47.99919" lon="6.97678">
        <ele>1257.09</ele>
        <time>2018-05-21T09:54:46Z</time>
      </trkpt>
      <trkpt lat="47.99939" lon="6.97672">
        <ele>1256.21</ele>
        <time>2018-05-21T09:55:04Z</time>
      </trkpt>
      <trkpt lat="47.99955" lon="6.97674">
        <ele>1256.36</ele>
        <time>2018-05-21T09:55:19Z</time>
      </trkpt>
      <trkpt lat="47.99956" lon="6.97674">
        <ele>1255.93</ele>
        <time>2018-05-21T09:55:20Z</time>
      </trkpt>
      <trkpt lat="47.99974" lon="6.97679">
        <ele>1255.72</ele>
        <time>2018-05-21T09:55:38Z</time>
      </trkpt>
      <trkpt lat="47.99987" lon="6.97686">
        <ele>1255.13</ele>
        <time>2018-05-21T09:55:53Z</time>
      </trkpt>
      <trkpt lat="47.99992" lon="6.97687">
        <ele>1255.28</ele>
        <time>2018-05-21T09:55:57Z</time>
      </trkpt>
      <trkpt lat="48.00011" lon="6.97696">
        <ele>1253.99</ele>
        <time>2018-05-21T09:56:15Z</time>
      </trkpt>
      <trkpt lat="48.00015" lon="6.97698">
        <ele>1253.39</ele>
        <time>2018-05-21T09:56:33Z</time>
      </trkpt>
      <trkpt lat="48.00018" lon="6.97699">
        <ele>1252.97</ele>
        <time>2018-05-21T09:56:36Z</time>
      </trkpt>
      <trkpt lat="48.00026" lon="6.97703">
        <ele>1252.27</ele>
        <time>2018-05-21T09:56:44Z</time>
      </trkpt>
      <trkpt lat="48.00039" lon="6.9771">
        <ele>1250.99</ele>
        <time>2018-05-21T09:57:00Z</time>
      </trkpt>
      <trkpt lat="48.00055" lon="6.97716">
        <ele>1249.27</ele>
        <time>2018-05-21T09:57:16Z</time>
      </trkpt>
      <trkpt lat="48.00071" lon="6.97719">
        <ele>1248.79</ele>
        <time>2018-05-21T09:57:31Z</time>
      </trkpt>
      <trkpt lat="48.00091" lon="6.97725">
        <ele>1248.3</ele>
        <time>2018-05-21T09:57:49Z</time>
      </trkpt>
      <trkpt lat="48.00095" lon="6.97726">
        <ele>1247.57</ele>
        <time>2018-05-21T09:57:53Z</time>
      </trkpt>
      <trkpt lat="48.00111" lon="6.97729">
        <ele>1246.28</ele>
        <time>2018-05-21T09:58:10Z</time>
      </trkpt>
      <trkpt lat="48.0013" lon="6.97733">
        <ele>1244.65</ele>
        <time>2018-05-21T09:58:28Z</time>
      </trkpt>
      <trkpt lat="48.00149" lon="6.97738">
        <ele>1243.64</ele>
        <time>2018-05-21T09:58:45Z</time>
      </trkpt>
      <trkpt lat="48.00166" lon="6.97741">
        <ele>1242.12</ele>
        <time>2018-05-21T09:59:02Z</time>
      </trkpt>
      <trkpt lat="48.00184" lon="6.97743">
        <ele>1240.22</ele>
        <time>2018-05-21T09:59:19Z</time>
      </trkpt>
      <trkpt lat="48.00202" lon="6.97746">
        <ele>1237.91</ele>
        <time>2018-05-21T09:59:37Z</time>
      </trkpt>
      <trkpt lat="48.00219" lon="6.97748">
        <ele>1236.79</ele>
        <time>2018-05-21T09:59:54Z</time>
      </trkpt>
      <trkpt lat="48.00239" lon="6.9775">
        <ele>1234.04</ele>
        <time>2018-05-21T10:00:12Z</time>
      </trkpt>
      <trkpt lat="48.00252" lon="6.97751">
        <ele>1232.61</ele>
        <time>2018-05-21T10:00:26Z</time>
      </trkpt>
      <trkpt lat="48.00271" lon="6.97752">
        <ele>1230.47</ele>
        <time>2018-05-21T10:00:43Z</time>
      </trkpt>
      <trkpt lat="48.0029" lon="6.97763">
        <ele>1229.51</ele>
        <time>2018-05-21T10:01:04Z</time>
      </trkpt>
      <trkpt lat="48.00303" lon="6.97779">
        <ele>1228.48</ele>
        <time>2018-05-21T10:01:21Z</time>
      </trkpt>
      <trkpt lat="48.00314" lon="6.97797">
        <ele>1227.25</ele>
        <time>2018-05-21T10:01:37Z</time>
      </trkpt>
      <trkpt lat="48.00317" lon="6.97802">
        <ele>1226.3</ele>
        <time>2018-05-21T10:01:41Z</time>
      </trkpt>
      <trkpt lat="48.00328" lon="6.9782">
        <ele>1226.05</ele>
        <time>2018-05-21T10:01:56Z</time>
      </trkpt>
      <trkpt lat="48.00336" lon="6.97837">
        <ele>1225.69</ele>
        <time>2018-05-21T10:02:10Z</time>
      </trkpt>
      <trkpt lat="48.00346" lon="6.97856">
        <ele>1225.13</ele>
        <time>2018-05-21T10:02:25Z</time>
      </trkpt>
      <trkpt lat="48.00356" lon="6.97879">
        <ele>1224.46</ele>
        <time>2018-05-21T10:02:41Z</time>
      </trkpt>
      <trkpt lat="48.00366" lon="6.97899">
        <ele>1223.57</ele>
        <time>2018-05-21T10:02:56Z</time>
      </trkpt>
      <trkpt lat="48.00376" lon="6.9792">
        <ele>1222.63</ele>
        <time>2018-05-21T10:03:10Z</time>
      </trkpt>
      <trkpt lat="48.00387" lon="6.97942">
        <ele>1221.5</ele>
        <time>2018-05-21T10:03:24Z</time>
      </trkpt>
      <trkpt lat="48.00395" lon="6.97957">
        <ele>1220.13</ele>
        <time>2018-05-21T10:03:35Z</time>
      </trkpt>
      <trkpt lat="48.00397" lon="6.97963">
        <ele>1220.36</ele>
        <time>2018-05-21T10:03:39Z</time>
      </trkpt>
      <trkpt lat="48.0041" lon="6.97986">
        <ele>1219.07</ele>
        <time>2018-05-21T10:03:56Z</time>
      </trkpt>
      <trkpt lat="48.0041" lon="6.97988">
        <ele>1219.46</ele>
        <time>2018-05-21T10:03:58Z</time>
      </trkpt>
      <trkpt lat="48.00414" lon="6.97997">
        <ele>1218.92</ele>
        <time>2018-05-21T10:04:14Z</time>
      </trkpt>
      <trkpt lat="48.0042" lon="6.97997">
        <ele>1217.96</ele>
        <time>2018-05-21T10:04:27Z</time>
      </trkpt>
      <trkpt lat="48.00424" lon="6.97998">
        <ele>1217.37</ele>
        <time>2018-05-21T10:04:31Z</time>
      </trkpt>
      <trkpt lat="48.00439" lon="6.98">
        <ele>1214.81</ele>
        <time>2018-05-21T10:04:48Z</time>
      </trkpt>
      <trkpt lat="48.00445" lon="6.98">
        <ele>1213.27</ele>
        <time>2018-05-21T10:04:54Z</time>
      </trkpt>
      <trkpt lat="48.00459" lon="6.98">
        <ele>1211.2</ele>
        <time>2018-05-21T10:05:09Z</time>
      </trkpt>
      <trkpt lat="48.0046" lon="6.98001">
        <ele>1211.06</ele>
        <time>2018-05-21T10:05:10Z</time>
      </trkpt>
      <trkpt lat="48.00474" lon="6.98003">
        <ele>1208.4</ele>
        <time>2018-05-21T10:05:25Z</time>
      </trkpt>
      <trkpt lat="48.00475" lon="6.98003">
        <ele>1208.16</ele>
        <time>2018-05-21T10:05:26Z</time>
      </trkpt>
      <trkpt lat="48.00496" lon="6.98005">
        <ele>1205.63</ele>
        <time>2018-05-21T10:05:44Z</time>
      </trkpt>
      <trkpt lat="48.00513" lon="6.98001">
        <ele>1202.92</ele>
        <time>2018-05-21T10:06:00Z</time>
      </trkpt>
      <trkpt lat="48.00532" lon="6.98001">
        <ele>1201.55</ele>
        <time>2018-05-21T10:06:17Z</time>
      </trkpt>
      <trkpt lat="48.00549" lon="6.98">
        <ele>1200.64</ele>
        <time>2018-05-21T10:06:33Z</time>
      </trkpt>
      <trkpt lat="48.00549" lon="6.98003">
        <ele>1201.15</ele>
        <time>2018-05-21T10:06:48Z</time>
      </trkpt>
      <trkpt lat="48.00546" lon="6.98004">
        <ele>1200.59</ele>
        <time>2018-05-21T10:07:05Z</time>
      </trkpt>
      <trkpt lat="48.00543" lon="6.98013">
        <ele>1201.2</ele>
        <time>2018-05-21T10:07:24Z</time>
      </trkpt>
      <trkpt lat="48.00541" lon="6.98018">
        <ele>1200.64</ele>
        <time>2018-05-21T10:07:38Z</time>
      </trkpt>
      <trkpt lat="48.00543" lon="6.98008">
        <ele>1200.9</ele>
        <time>2018-05-21T10:07:59Z</time>
      </trkpt>
      <trkpt lat="48.00544" lon="6.98007">
        <ele>1201</ele>
        <time>2018-05-21T10:08:25Z</time>
      </trkpt>
      <trkpt lat="48.00542" lon="6.98005">
        <ele>1201.44</ele>
        <time>2018-05-21T10:08:51Z</time>
      </trkpt>
      <trkpt lat="48.00542" lon="6.97999">
        <ele>1201.51</ele>
        <time>2018-05-21T10:09:08Z</time>
      </trkpt>
      <trkpt lat="48.00542" lon="6.98002">
        <ele>1201.05</ele>
        <time>2018-05-21T10:09:31Z</time>
      </trkpt>
      <trkpt lat="48.00541" lon="6.98002">
        <ele>1200.88</ele>
        <time>2018-05-21T10:10:03Z</time>
      </trkpt>
      <trkpt lat="48.00543" lon="6.98003">
        <ele>1201.03</ele>
        <time>2018-05-21T10:10:33Z</time>
      </trkpt>
      <trkpt lat="48.0054" lon="6.98015">
        <ele>1200.16</ele>
        <time>2018-05-21T10:10:54Z</time>
      </trkpt>
      <trkpt lat="48.00539" lon="6.98025">
        <ele>1200.55</ele>
        <time>2018-05-21T10:11:10Z</time>
      </trkpt>
      <trkpt lat="48.00537" lon="6.9803">
        <ele>1200.23</ele>
        <time>2018-05-21T10:11:28Z</time>
      </trkpt>
      <trkpt lat="48.00533" lon="6.98049">
        <ele>1199.31</ele>
        <time>2018-05-21T10:11:47Z</time>
      </trkpt>
      <trkpt lat="48.00532" lon="6.98056">
        <ele>1199.58</ele>
        <time>2018-05-21T10:11:52Z</time>
      </trkpt>
      <trkpt lat="48.00532" lon="6.98069">
        <ele>1199.37</ele>
        <time>2018-05-21T10:12:02Z</time>
      </trkpt>
      <trkpt lat="48.00533" lon="6.9808">
        <ele>1199.04</ele>
        <time>2018-05-21T10:12:12Z</time>
      </trkpt>
      <trkpt lat="48.00533" lon="6.98085">
        <ele>1198.88</ele>
        <time>2018-05-21T10:12:16Z</time>
      </trkpt>
      <trkpt lat="48.00535" lon="6.98107">
        <ele>1196.66</ele>
        <time>2018-05-21T10:12:33Z</time>
      </trkpt>
      <trkpt lat="48.00535" lon="6.98114">
        <ele>1196.34</ele>
        <time>2018-05-21T10:12:49Z</time>
      </trkpt>
      <trkpt lat="48.0054" lon="6.98105">
        <ele>1197.11</ele>
        <time>2018-05-21T10:13:02Z</time>
      </trkpt>
      <trkpt lat="48.00542" lon="6.98103">
        <ele>1197.97</ele>
        <time>2018-05-21T10:13:04Z</time>
      </trkpt>
      <trkpt lat="48.00549" lon="6.98096">
        <ele>1198.97</ele>
        <time>2018-05-21T10:13:13Z</time>
      </trkpt>
      <trkpt lat="48.00565" lon="6.98092">
        <ele>1201.76</ele>
        <time>2018-05-21T10:13:30Z</time>
      </trkpt>
      <trkpt lat="48.00578" lon="6.98092">
        <ele>1203.68</ele>
        <time>2018-05-21T10:13:47Z</time>
      </trkpt>
      <trkpt lat="48.00588" lon="6.98097">
        <ele>1206.89</ele>
        <time>2018-05-21T10:14:03Z</time>
      </trkpt>
      <trkpt lat="48.00601" lon="6.98101">
        <ele>1210.2</ele>
        <time>2018-05-21T10:14:26Z</time>
      </trkpt>
      <trkpt lat="48.00612" lon="6.98104">
        <ele>1211.54</ele>
        <time>2018-05-21T10:14:42Z</time>
      </trkpt>
      <trkpt lat="48.00627" lon="6.98111">
        <ele>1213.93</ele>
        <time>2018-05-21T10:15:00Z</time>
      </trkpt>
      <trkpt lat="48.00629" lon="6.98111">
        <ele>1213.03</ele>
        <time>2018-05-21T10:15:02Z</time>
      </trkpt>
      <trkpt lat="48.00641" lon="6.98117">
        <ele>1216.54</ele>
        <time>2018-05-21T10:15:17Z</time>
      </trkpt>
      <trkpt lat="48.00653" lon="6.98124">
        <ele>1219.77</ele>
        <time>2018-05-21T10:15:34Z</time>
      </trkpt>
      <trkpt lat="48.00666" lon="6.98133">
        <ele>1220.67</ele>
        <time>2018-05-21T10:15:53Z</time>
      </trkpt>
      <trkpt lat="48.00668" lon="6.98133">
        <ele>1223.75</ele>
        <time>2018-05-21T10:15:57Z</time>
      </trkpt>
      <trkpt lat="48.00678" lon="6.98136">
        <ele>1226.85</ele>
        <time>2018-05-21T10:16:18Z</time>
      </trkpt>
      <trkpt lat="48.00692" lon="6.98147">
        <ele>1229.9</ele>
        <time>2018-05-21T10:16:41Z</time>
      </trkpt>
      <trkpt lat="48.00703" lon="6.98153">
        <ele>1233</ele>
        <time>2018-05-21T10:16:59Z</time>
      </trkpt>
      <trkpt lat="48.00714" lon="6.98157">
        <ele>1236.57</ele>
        <time>2018-05-21T10:17:19Z</time>
      </trkpt>
      <trkpt lat="48.00723" lon="6.98162">
        <ele>1238.94</ele>
        <time>2018-05-21T10:17:40Z</time>
      </trkpt>
      <trkpt lat="48.00733" lon="6.98168">
        <ele>1241.84</ele>
        <time>2018-05-21T10:18:00Z</time>
      </trkpt>
      <trkpt lat="48.0074" lon="6.98167">
        <ele>1245.05</ele>
        <time>2018-05-21T10:18:15Z</time>
      </trkpt>
      <trkpt lat="48.00746" lon="6.98168">
        <ele>1244.86</ele>
        <time>2018-05-21T10:18:31Z</time>
      </trkpt>
      <trkpt lat="48.00749" lon="6.98168">
        <ele>1248.06</ele>
        <time>2018-05-21T10:18:38Z</time>
      </trkpt>
      <trkpt lat="48.00756" lon="6.98167">
        <ele>1251.12</ele>
        <time>2018-05-21T10:18:59Z</time>
      </trkpt>
      <trkpt lat="48.00762" lon="6.98166">
        <ele>1254.72</ele>
        <time>2018-05-21T10:19:15Z</time>
      </trkpt>
      <trkpt lat="48.00774" lon="6.98166">
        <ele>1256.97</ele>
        <time>2018-05-21T10:19:37Z</time>
      </trkpt>
      <trkpt lat="48.00782" lon="6.98169">
        <ele>1260.35</ele>
        <time>2018-05-21T10:19:51Z</time>
      </trkpt>
      <trkpt lat="48.00794" lon="6.98171">
        <ele>1262.4</ele>
        <time>2018-05-21T10:20:11Z</time>
      </trkpt>
      <trkpt lat="48.00806" lon="6.9818">
        <ele>1265.96</ele>
        <time>2018-05-21T10:20:30Z</time>
      </trkpt>
      <trkpt lat="48.0082" lon="6.98187">
        <ele>1268.02</ele>
        <time>2018-05-21T10:20:52Z</time>
      </trkpt>
      <trkpt lat="48.00829" lon="6.98188">
        <ele>1271.19</ele>
        <time>2018-05-21T10:21:08Z</time>
      </trkpt>
      <trkpt lat="48.00843" lon="6.98194">
        <ele>1274.24</ele>
        <time>2018-05-21T10:21:30Z</time>
      </trkpt>
      <trkpt lat="48.00855" lon="6.98202">
        <ele>1276.38</ele>
        <time>2018-05-21T10:21:50Z</time>
      </trkpt>
      <trkpt lat="48.00864" lon="6.98209">
        <ele>1280.05</ele>
        <time>2018-05-21T10:22:10Z</time>
      </trkpt>
      <trkpt lat="48.00865" lon="6.9821">
        <ele>1279.99</ele>
        <time>2018-05-21T10:22:11Z</time>
      </trkpt>
      <trkpt lat="48.00877" lon="6.98217">
        <ele>1281.96</ele>
        <time>2018-05-21T10:22:32Z</time>
      </trkpt>
      <trkpt lat="48.00886" lon="6.98231">
        <ele>1284.23</ele>
        <time>2018-05-21T10:22:51Z</time>
      </trkpt>
      <trkpt lat="48.00896" lon="6.98244">
        <ele>1286.04</ele>
        <time>2018-05-21T10:23:08Z</time>
      </trkpt>
      <trkpt lat="48.00904" lon="6.98255">
        <ele>1289.18</ele>
        <time>2018-05-21T10:23:23Z</time>
      </trkpt>
      <trkpt lat="48.00914" lon="6.9827">
        <ele>1290.83</ele>
        <time>2018-05-21T10:23:46Z</time>
      </trkpt>
      <trkpt lat="48.00915" lon="6.98274">
        <ele>1291.13</ele>
        <time>2018-05-21T10:23:54Z</time>
      </trkpt>
      <trkpt lat="48.00923" lon="6.98298">
        <ele>1291.39</ele>
        <time>2018-05-21T10:24:10Z</time>
      </trkpt>
      <trkpt lat="48.00931" lon="6.98317">
        <ele>1293.5</ele>
        <time>2018-05-21T10:24:25Z</time>
      </trkpt>
      <trkpt lat="48.00938" lon="6.98332">
        <ele>1295.84</ele>
        <time>2018-05-21T10:24:43Z</time>
      </trkpt>
      <trkpt lat="48.00941" lon="6.98336">
        <ele>1295.17</ele>
        <time>2018-05-21T10:24:58Z</time>
      </trkpt>
      <trkpt lat="48.0094" lon="6.98336">
        <ele>1295.04</ele>
        <time>2018-05-21T10:25:19Z</time>
      </trkpt>
      <trkpt lat="48.0094" lon="6.98338">
        <ele>1295.36</ele>
        <time>2018-05-21T10:25:46Z</time>
      </trkpt>
      <trkpt lat="48.00939" lon="6.98336">
        <ele>1295.25</ele>
        <time>2018-05-21T10:26:04Z</time>
      </trkpt>
      <trkpt lat="48.00943" lon="6.98335">
        <ele>1294.53</ele>
        <time>2018-05-21T10:26:24Z</time>
      </trkpt>
      <trkpt lat="48.00943" lon="6.98334">
        <ele>1294.72</ele>
        <time>2018-05-21T10:26:39Z</time>
      </trkpt>
      <trkpt lat="48.00944" lon="6.98332">
        <ele>1294.71</ele>
        <time>2018-05-21T10:27:07Z</time>
      </trkpt>
      <trkpt lat="48.00944" lon="6.98331">
        <ele>1294.71</ele>
        <time>2018-05-21T10:27:35Z</time>
      </trkpt>
      <trkpt lat="48.00944" lon="6.98332">
        <ele>1294.24</ele>
        <time>2018-05-21T10:28:04Z</time>
      </trkpt>
      <trkpt lat="48.00943" lon="6.98334">
        <ele>1294.6</ele>
        <time>2018-05-21T10:28:47Z</time>
      </trkpt>
      <trkpt lat="48.00943" lon="6.98335">
        <ele>1295.04</ele>
        <time>2018-05-21T10:29:21Z</time>
      </trkpt>
      <trkpt lat="48.00943" lon="6.98335">
        <ele>1295.06</ele>
        <time>2018-05-21T10:30:08Z</time>
      </trkpt>
      <trkpt lat="48.00943" lon="6.98334">
        <ele>1295.2</ele>
        <time>2018-05-21T10:30:31Z</time>
      </trkpt>
      <trkpt lat="48.00942" lon="6.98332">
        <ele>1295.35</ele>
        <time>2018-05-21T10:31:06Z</time>
      </trkpt>
      <trkpt lat="48.00942" lon="6.98333">
        <ele>1296.87</ele>
        <time>2018-05-21T10:31:36Z</time>
      </trkpt>
      <trkpt lat="48.00942" lon="6.98335">
        <ele>1296.36</ele>
        <time>2018-05-21T10:32:01Z</time>
      </trkpt>
      <trkpt lat="48.00941" lon="6.98335">
        <ele>1296.27</ele>
        <time>2018-05-21T10:32:07Z</time>
      </trkpt>
      <trkpt lat="48.00942" lon="6.98335">
        <ele>1295.19</ele>
        <time>2018-05-21T10:32:43Z</time>
      </trkpt>
      <trkpt lat="48.00942" lon="6.98336">
        <ele>1294.75</ele>
        <time>2018-05-21T10:33:13Z</time>
      </trkpt>
      <trkpt lat="48.00941" lon="6.98337">
        <ele>1295.04</ele>
        <time>2018-05-21T10:33:41Z</time>
      </trkpt>
      <trkpt lat="48.00941" lon="6.98336">
        <ele>1295.27</ele>
        <time>2018-05-21T10:34:09Z</time>
      </trkpt>
      <trkpt lat="48.00943" lon="6.98336">
        <ele>1294.9</ele>
        <time>2018-05-21T10:34:36Z</time>
      </trkpt>
      <trkpt lat="48.00944" lon="6.98336">
        <ele>1295.54</ele>
        <time>2018-05-21T10:35:04Z</time>
      </trkpt>
      <trkpt lat="48.00943" lon="6.98338">
        <ele>1294.94</ele>
        <time>2018-05-21T10:35:39Z</time>
      </trkpt>
      <trkpt lat="48.00943" lon="6.98337">
        <ele>1295.22</ele>
        <time>2018-05-21T10:36:23Z</time>
      </trkpt>
      <trkpt lat="48.00943" lon="6.98337">
        <ele>1296.3</ele>
        <time>2018-05-21T10:36:47Z</time>
      </trkpt>
      <trkpt lat="48.00943" lon="6.98337">
        <ele>1295.3</ele>
        <time>2018-05-21T10:36:49Z</time>
      </trkpt>
      <trkpt lat="48.00942" lon="6.98334">
        <ele>1295.49</ele>
        <time>2018-05-21T10:37:26Z</time>
      </trkpt>
      <trkpt lat="48.00942" lon="6.98335">
        <ele>1295.48</ele>
        <time>2018-05-21T10:37:55Z</time>
      </trkpt>
      <trkpt lat="48.00941" lon="6.98335">
        <ele>1295.71</ele>
        <time>2018-05-21T10:38:31Z</time>
      </trkpt>
      <trkpt lat="48.00941" lon="6.98335">
        <ele>1295.72</ele>
        <time>2018-05-21T10:39:13Z</time>
      </trkpt>
      <trkpt lat="48.00941" lon="6.98334">
        <ele>1296.55</ele>
        <time>2018-05-21T10:39:42Z</time>
      </trkpt>
      <trkpt lat="48.00941" lon="6.98335">
        <ele>1293.43</ele>
        <time>2018-05-21T10:40:05Z</time>
      </trkpt>
      <trkpt lat="48.00941" lon="6.98335">
        <ele>1298.73</ele>
        <time>2018-05-21T10:40:06Z</time>
      </trkpt>
      <trkpt lat="48.00941" lon="6.98335">
        <ele>1298.58</ele>
        <time>2018-05-21T10:40:07Z</time>
      </trkpt>
      <trkpt lat="48.00942" lon="6.98336">
        <ele>1297.01</ele>
        <time>2018-05-21T10:40:09Z</time>
      </trkpt>
      <trkpt lat="48.00945" lon="6.98343">
        <ele>1296.14</ele>
        <time>2018-05-21T10:40:20Z</time>
      </trkpt>
      <trkpt lat="48.00949" lon="6.98344">
        <ele>1295.76</ele>
        <time>2018-05-21T10:40:39Z</time>
      </trkpt>
      <trkpt lat="48.00945" lon="6.98345">
        <ele>1296.84</ele>
        <time>2018-05-21T10:40:54Z</time>
      </trkpt>
      <trkpt lat="48.0094" lon="6.98341">
        <ele>1297.38</ele>
        <time>2018-05-21T10:41:08Z</time>
      </trkpt>
      <trkpt lat="48.00935" lon="6.98341">
        <ele>1297.41</ele>
        <time>2018-05-21T10:41:17Z</time>
      </trkpt>
      <trkpt lat="48.00936" lon="6.98336">
        <ele>1297.47</ele>
        <time>2018-05-21T10:41:34Z</time>
      </trkpt>
      <trkpt lat="48.00941" lon="6.98335">
        <ele>1296.77</ele>
        <time>2018-05-21T10:41:47Z</time>
      </trkpt>
      <trkpt lat="48.00942" lon="6.98334">
        <ele>1296.33</ele>
        <time>2018-05-21T10:42:17Z</time>
      </trkpt>
      <trkpt lat="48.00942" lon="6.98335">
        <ele>1295.97</ele>
        <time>2018-05-21T10:42:59Z</time>
      </trkpt>
      <trkpt lat="48.00941" lon="6.98334">
        <ele>1296.21</ele>
        <time>2018-05-21T10:43:35Z</time>
      </trkpt>
      <trkpt lat="48.00942" lon="6.98334">
        <ele>1295.73</ele>
        <time>2018-05-21T10:44:15Z</time>
      </trkpt>
      <trkpt lat="48.00942" lon="6.98333">
        <ele>1296.2</ele>
        <time>2018-05-21T10:44:54Z</time>
      </trkpt>
      <trkpt lat="48.00943" lon="6.98333">
        <ele>1295.81</ele>
        <time>2018-05-21T10:45:43Z</time>
      </trkpt>
      <trkpt lat="48.00943" lon="6.98333">
        <ele>1296.44</ele>
        <time>2018-05-21T10:46:20Z</time>
      </trkpt>
      <trkpt lat="48.00942" lon="6.98333">
        <ele>1295.61</ele>
        <time>2018-05-21T10:46:53Z</time>
      </trkpt>
      <trkpt lat="48.00943" lon="6.98333">
        <ele>1296.1</ele>
        <time>2018-05-21T10:47:35Z</time>
      </trkpt>
      <trkpt lat="48.00943" lon="6.98332">
        <ele>1295.97</ele>
        <time>2018-05-21T10:48:22Z</time>
      </trkpt>
      <trkpt lat="48.00942" lon="6.98333">
        <ele>1296.12</ele>
        <time>2018-05-21T10:49:05Z</time>
      </trkpt>
      <trkpt lat="48.00943" lon="6.98333">
        <ele>1296.29</ele>
        <time>2018-05-21T10:49:48Z</time>
      </trkpt>
      <trkpt lat="48.00942" lon="6.98333">
        <ele>1296.13</ele>
        <time>2018-05-21T10:50:16Z</time>
      </trkpt>
      <trkpt lat="48.00943" lon="6.98332">
        <ele>1296.51</ele>
        <time>2018-05-21T10:50:56Z</time>
      </trkpt>
      <trkpt lat="48.00943" lon="6.98333">
        <ele>1296.38</ele>
        <time>2018-05-21T10:51:35Z</time>
      </trkpt>
      <trkpt lat="48.00943" lon="6.98333">
        <ele>1296.25</ele>
        <time>2018-05-21T10:52:23Z</time>
      </trkpt>
      <trkpt lat="48.00943" lon="6.98333">
        <ele>1296.86</ele>
        <time>2018-05-21T10:53:05Z</time>
      </trkpt>
      <trkpt lat="48.00943" lon="6.98334">
        <ele>1296.06</ele>
        <time>2018-05-21T10:53:34Z</time>
      </trkpt>
      <trkpt lat="48.00942" lon="6.98334">
        <ele>1296.23</ele>
        <time>2018-05-21T10:54:10Z</time>
      </trkpt>
      <trkpt lat="48.00942" lon="6.98333">
        <ele>1296.47</ele>
        <time>2018-05-21T10:55:01Z</time>
      </trkpt>
      <trkpt lat="48.00941" lon="6.98333">
        <ele>1295.66</ele>
        <time>2018-05-21T10:55:41Z</time>
      </trkpt>
      <trkpt lat="48.00942" lon="6.98334">
        <ele>1296.22</ele>
        <time>2018-05-21T10:56:16Z</time>
      </trkpt>
      <trkpt lat="48.00941" lon="6.98333">
        <ele>1295.54</ele>
        <time>2018-05-21T10:56:57Z</time>
      </trkpt>
      <trkpt lat="48.00944" lon="6.9834">
        <ele>1295.55</ele>
        <time>2018-05-21T10:57:24Z</time>
      </trkpt>
      <trkpt lat="48.00949" lon="6.98347">
        <ele>1294.17</ele>
        <time>2018-05-21T10:57:40Z</time>
      </trkpt>
      <trkpt lat="48.00951" lon="6.98348">
        <ele>1294.36</ele>
        <time>2018-05-21T10:57:58Z</time>
      </trkpt>
      <trkpt lat="48.00952" lon="6.98347">
        <ele>1293.82</ele>
        <time>2018-05-21T10:58:02Z</time>
      </trkpt>
      <trkpt lat="48.00946" lon="6.98343">
        <ele>1295.56</ele>
        <time>2018-05-21T10:58:12Z</time>
      </trkpt>
      <trkpt lat="48.0094" lon="6.9834">
        <ele>1295.86</ele>
        <time>2018-05-21T10:58:28Z</time>
      </trkpt>
      <trkpt lat="48.00941" lon="6.98336">
        <ele>1295.55</ele>
        <time>2018-05-21T10:58:43Z</time>
      </trkpt>
      <trkpt lat="48.0094" lon="6.98337">
        <ele>1295.46</ele>
        <time>2018-05-21T10:59:04Z</time>
      </trkpt>
      <trkpt lat="48.00942" lon="6.98336">
        <ele>1295.82</ele>
        <time>2018-05-21T10:59:18Z</time>
      </trkpt>
      <trkpt lat="48.00942" lon="6.98334">
        <ele>1295.81</ele>
        <time>2018-05-21T10:59:44Z</time>
      </trkpt>
      <trkpt lat="48.00943" lon="6.98333">
        <ele>1295.87</ele>
        <time>2018-05-21T11:00:27Z</time>
      </trkpt>
      <trkpt lat="48.00944" lon="6.98336">
        <ele>1296.28</ele>
        <time>2018-05-21T11:00:46Z</time>
      </trkpt>
      <trkpt lat="48.00939" lon="6.98341">
        <ele>1296.13</ele>
        <time>2018-05-21T11:01:01Z</time>
      </trkpt>
      <trkpt lat="48.00935" lon="6.98335">
        <ele>1295.79</ele>
        <time>2018-05-21T11:01:14Z</time>
      </trkpt>
      <trkpt lat="48.00936" lon="6.98332">
        <ele>1295.11</ele>
        <time>2018-05-21T11:01:29Z</time>
      </trkpt>
      <trkpt lat="48.00936" lon="6.98335">
        <ele>1295.85</ele>
        <time>2018-05-21T11:01:49Z</time>
      </trkpt>
      <trkpt lat="48.00937" lon="6.98337">
        <ele>1295.92</ele>
        <time>2018-05-21T11:01:55Z</time>
      </trkpt>
      <trkpt lat="48.00942" lon="6.98335">
        <ele>1295.39</ele>
        <time>2018-05-21T11:02:06Z</time>
      </trkpt>
      <trkpt lat="48.00942" lon="6.98333">
        <ele>1296.13</ele>
        <time>2018-05-21T11:02:36Z</time>
      </trkpt>
      <trkpt lat="48.00943" lon="6.98332">
        <ele>1295.25</ele>
        <time>2018-05-21T11:03:01Z</time>
      </trkpt>
      <trkpt lat="48.00942" lon="6.98331">
        <ele>1294.91</ele>
        <time>2018-05-21T11:03:25Z</time>
      </trkpt>
      <trkpt lat="48.00942" lon="6.98331">
        <ele>1295.73</ele>
        <time>2018-05-21T11:04:00Z</time>
      </trkpt>
      <trkpt lat="48.00941" lon="6.98332">
        <ele>1295.65</ele>
        <time>2018-05-21T11:04:37Z</time>
      </trkpt>
      <trkpt lat="48.00941" lon="6.98335">
        <ele>1295.59</ele>
        <time>2018-05-21T11:04:57Z</time>
      </trkpt>
      <trkpt lat="48.00941" lon="6.98335">
        <ele>1296.11</ele>
        <time>2018-05-21T11:05:31Z</time>
      </trkpt>
      <trkpt lat="48.00938" lon="6.98336">
        <ele>1296.55</ele>
        <time>2018-05-21T11:05:48Z</time>
      </trkpt>
      <trkpt lat="48.00935" lon="6.98328">
        <ele>1290.02</ele>
        <time>2018-05-21T11:06:06Z</time>
      </trkpt>
      <trkpt lat="48.00936" lon="6.98328">
        <ele>1299.29</ele>
        <time>2018-05-21T11:06:07Z</time>
      </trkpt>
      <trkpt lat="48.00936" lon="6.98328">
        <ele>1295.1</ele>
        <time>2018-05-21T11:06:08Z</time>
      </trkpt>
      <trkpt lat="48.00936" lon="6.98329">
        <ele>1295.42</ele>
        <time>2018-05-21T11:06:33Z</time>
      </trkpt>
      <trkpt lat="48.00935" lon="6.98329">
        <ele>1293.65</ele>
        <time>2018-05-21T11:06:35Z</time>
      </trkpt>
      <trkpt lat="48.00935" lon="6.98329">
        <ele>1297.48</ele>
        <time>2018-05-21T11:06:37Z</time>
      </trkpt>
      <trkpt lat="48.00938" lon="6.98337">
        <ele>1296.67</ele>
        <time>2018-05-21T11:06:49Z</time>
      </trkpt>
      <trkpt lat="48.00942" lon="6.98336">
        <ele>1295.87</ele>
        <time>2018-05-21T11:07:04Z</time>
      </trkpt>
      <trkpt lat="48.00944" lon="6.98342">
        <ele>1296.29</ele>
        <time>2018-05-21T11:07:20Z</time>
      </trkpt>
      <trkpt lat="48.00948" lon="6.98343">
        <ele>1296.01</ele>
        <time>2018-05-21T11:07:35Z</time>
      </trkpt>
      <trkpt lat="48.00947" lon="6.98344">
        <ele>1295.94</ele>
        <time>2018-05-21T11:08:03Z</time>
      </trkpt>
      <trkpt lat="48.00948" lon="6.98344">
        <ele>1296.14</ele>
        <time>2018-05-21T11:08:30Z</time>
      </trkpt>
      <trkpt lat="48.00947" lon="6.98342">
        <ele>1297.35</ele>
        <time>2018-05-21T11:08:45Z</time>
      </trkpt>
      <trkpt lat="48.00943" lon="6.98335">
        <ele>1296.58</ele>
        <time>2018-05-21T11:08:58Z</time>
      </trkpt>
      <trkpt lat="48.00944" lon="6.98335">
        <ele>1296.25</ele>
        <time>2018-05-21T11:09:13Z</time>
      </trkpt>
      <trkpt lat="48.00943" lon="6.98334">
        <ele>1296.77</ele>
        <time>2018-05-21T11:09:42Z</time>
      </trkpt>
      <trkpt lat="48.00942" lon="6.98334">
        <ele>1293.65</ele>
        <time>2018-05-21T11:10:00Z</time>
      </trkpt>
      <trkpt lat="48.00942" lon="6.98334">
        <ele>1298.11</ele>
        <time>2018-05-21T11:10:01Z</time>
      </trkpt>
      <trkpt lat="48.00941" lon="6.98338">
        <ele>1296.71</ele>
        <time>2018-05-21T11:10:24Z</time>
      </trkpt>
      <trkpt lat="48.00942" lon="6.98337">
        <ele>1296.41</ele>
        <time>2018-05-21T11:10:45Z</time>
      </trkpt>
      <trkpt lat="48.00943" lon="6.98338">
        <ele>1296.93</ele>
        <time>2018-05-21T11:11:19Z</time>
      </trkpt>
      <trkpt lat="48.00945" lon="6.98342">
        <ele>1296.62</ele>
        <time>2018-05-21T11:11:39Z</time>
      </trkpt>
      <trkpt lat="48.00945" lon="6.98343">
        <ele>1296.23</ele>
        <time>2018-05-21T11:12:07Z</time>
      </trkpt>
      <trkpt lat="48.00953" lon="6.9834">
        <ele>1296</ele>
        <time>2018-05-21T11:12:26Z</time>
      </trkpt>
      <trkpt lat="48.00954" lon="6.9834">
        <ele>1296.68</ele>
        <time>2018-05-21T11:12:46Z</time>
      </trkpt>
      <trkpt lat="48.00957" lon="6.98337">
        <ele>1296.57</ele>
        <time>2018-05-21T11:13:06Z</time>
      </trkpt>
      <trkpt lat="48.00958" lon="6.98338">
        <ele>1296.05</ele>
        <time>2018-05-21T11:13:38Z</time>
      </trkpt>
      <trkpt lat="48.00959" lon="6.9833">
        <ele>1297.03</ele>
        <time>2018-05-21T11:14:03Z</time>
      </trkpt>
      <trkpt lat="48.00959" lon="6.98327">
        <ele>1298.21</ele>
        <time>2018-05-21T11:14:05Z</time>
      </trkpt>
      <trkpt lat="48.0096" lon="6.98321">
        <ele>1299.98</ele>
        <time>2018-05-21T11:14:13Z</time>
      </trkpt>
      <trkpt lat="48.00963" lon="6.9832">
        <ele>1299.37</ele>
        <time>2018-05-21T11:14:16Z</time>
      </trkpt>
      <trkpt lat="48.00966" lon="6.98318">
        <ele>1299.91</ele>
        <time>2018-05-21T11:14:20Z</time>
      </trkpt>
      <trkpt lat="48.00969" lon="6.983">
        <ele>1301.33</ele>
        <time>2018-05-21T11:14:35Z</time>
      </trkpt>
      <trkpt lat="48.00971" lon="6.98293">
        <ele>1302.17</ele>
        <time>2018-05-21T11:14:40Z</time>
      </trkpt>
      <trkpt lat="48.00978" lon="6.9828">
        <ele>1303.13</ele>
        <time>2018-05-21T11:14:50Z</time>
      </trkpt>
      <trkpt lat="48.0098" lon="6.98276">
        <ele>1302.84</ele>
        <time>2018-05-21T11:15:03Z</time>
      </trkpt>
      <trkpt lat="48.0098" lon="6.98275">
        <ele>1303.82</ele>
        <time>2018-05-21T11:15:17Z</time>
      </trkpt>
      <trkpt lat="48.0098" lon="6.98276">
        <ele>1305.45</ele>
        <time>2018-05-21T11:15:19Z</time>
      </trkpt>
      <trkpt lat="48.0098" lon="6.98276">
        <ele>1303.12</ele>
        <time>2018-05-21T11:15:22Z</time>
      </trkpt>
      <trkpt lat="48.0098" lon="6.98276">
        <ele>1302.71</ele>
        <time>2018-05-21T11:15:44Z</time>
      </trkpt>
      <trkpt lat="48.00981" lon="6.98268">
        <ele>1302.49</ele>
        <time>2018-05-21T11:16:02Z</time>
      </trkpt>
      <trkpt lat="48.00981" lon="6.98265">
        <ele>1302.21</ele>
        <time>2018-05-21T11:16:04Z</time>
      </trkpt>
      <trkpt lat="48.00981" lon="6.98261">
        <ele>1303.11</ele>
        <time>2018-05-21T11:16:07Z</time>
      </trkpt>
      <trkpt lat="48.0098" lon="6.98256">
        <ele>1302.7</ele>
        <time>2018-05-21T11:16:11Z</time>
      </trkpt>
      <trkpt lat="48.00978" lon="6.98252">
        <ele>1303.03</ele>
        <time>2018-05-21T11:16:14Z</time>
      </trkpt>
      <trkpt lat="48.00974" lon="6.9824">
        <ele>1302.8</ele>
        <time>2018-05-21T11:16:29Z</time>
      </trkpt>
      <trkpt lat="48.00973" lon="6.98237">
        <ele>1302.46</ele>
        <time>2018-05-21T11:16:34Z</time>
      </trkpt>
      <trkpt lat="48.00966" lon="6.98213">
        <ele>1301.41</ele>
        <time>2018-05-21T11:16:53Z</time>
      </trkpt>
      <trkpt lat="48.00961" lon="6.98197">
        <ele>1300.59</ele>
        <time>2018-05-21T11:17:10Z</time>
      </trkpt>
      <trkpt lat="48.00955" lon="6.98177">
        <ele>1298.93</ele>
        <time>2018-05-21T11:17:27Z</time>
      </trkpt>
      <trkpt lat="48.00957" lon="6.98162">
        <ele>1298.55</ele>
        <time>2018-05-21T11:17:41Z</time>
      </trkpt>
      <trkpt lat="48.00957" lon="6.9816">
        <ele>1297.46</ele>
        <time>2018-05-21T11:17:43Z</time>
      </trkpt>
      <trkpt lat="48.00957" lon="6.98157">
        <ele>1297.36</ele>
        <time>2018-05-21T11:17:45Z</time>
      </trkpt>
      <trkpt lat="48.00956" lon="6.98134">
        <ele>1296.05</ele>
        <time>2018-05-21T11:18:02Z</time>
      </trkpt>
      <trkpt lat="48.00954" lon="6.98109">
        <ele>1292.88</ele>
        <time>2018-05-21T11:18:20Z</time>
      </trkpt>
      <trkpt lat="48.00952" lon="6.98085">
        <ele>1291.02</ele>
        <time>2018-05-21T11:18:38Z</time>
      </trkpt>
      <trkpt lat="48.00951" lon="6.98062">
        <ele>1289.36</ele>
        <time>2018-05-21T11:19:00Z</time>
      </trkpt>
      <trkpt lat="48.0095" lon="6.98056">
        <ele>1289.18</ele>
        <time>2018-05-21T11:19:07Z</time>
      </trkpt>
      <trkpt lat="48.0095" lon="6.9805">
        <ele>1288.94</ele>
        <time>2018-05-21T11:19:11Z</time>
      </trkpt>
      <trkpt lat="48.0095" lon="6.98042">
        <ele>1287.85</ele>
        <time>2018-05-21T11:19:16Z</time>
      </trkpt>
      <trkpt lat="48.00946" lon="6.98026">
        <ele>1286.52</ele>
        <time>2018-05-21T11:19:28Z</time>
      </trkpt>
      <trkpt lat="48.00946" lon="6.98012">
        <ele>1285.51</ele>
        <time>2018-05-21T11:19:38Z</time>
      </trkpt>
      <trkpt lat="48.00944" lon="6.97983">
        <ele>1284.87</ele>
        <time>2018-05-21T11:19:55Z</time>
      </trkpt>
      <trkpt lat="48.00939" lon="6.9795">
        <ele>1282.42</ele>
        <time>2018-05-21T11:20:17Z</time>
      </trkpt>
      <trkpt lat="48.00935" lon="6.97924">
        <ele>1280.91</ele>
        <time>2018-05-21T11:20:36Z</time>
      </trkpt>
      <trkpt lat="48.00935" lon="6.97903">
        <ele>1277.8</ele>
        <time>2018-05-21T11:20:56Z</time>
      </trkpt>
      <trkpt lat="48.00934" lon="6.97893">
        <ele>1277.51</ele>
        <time>2018-05-21T11:21:03Z</time>
      </trkpt>
      <trkpt lat="48.00935" lon="6.97871">
        <ele>1275.53</ele>
        <time>2018-05-21T11:21:18Z</time>
      </trkpt>
      <trkpt lat="48.00933" lon="6.97843">
        <ele>1272.48</ele>
        <time>2018-05-21T11:21:38Z</time>
      </trkpt>
      <trkpt lat="48.00934" lon="6.97827">
        <ele>1268.56</ele>
        <time>2018-05-21T11:21:53Z</time>
      </trkpt>
      <trkpt lat="48.00933" lon="6.97802">
        <ele>1265.7</ele>
        <time>2018-05-21T11:22:14Z</time>
      </trkpt>
      <trkpt lat="48.00935" lon="6.97786">
        <ele>1262.43</ele>
        <time>2018-05-21T11:22:32Z</time>
      </trkpt>
      <trkpt lat="48.00932" lon="6.97765">
        <ele>1260.64</ele>
        <time>2018-05-21T11:22:54Z</time>
      </trkpt>
      <trkpt lat="48.00931" lon="6.97748">
        <ele>1258</ele>
        <time>2018-05-21T11:23:15Z</time>
      </trkpt>
      <trkpt lat="48.00933" lon="6.97731">
        <ele>1255.02</ele>
        <time>2018-05-21T11:23:33Z</time>
      </trkpt>
      <trkpt lat="48.00933" lon="6.97717">
        <ele>1253.22</ele>
        <time>2018-05-21T11:23:49Z</time>
      </trkpt>
      <trkpt lat="48.00932" lon="6.97698">
        <ele>1249.97</ele>
        <time>2018-05-21T11:24:04Z</time>
      </trkpt>
      <trkpt lat="48.00934" lon="6.97677">
        <ele>1246.95</ele>
        <time>2018-05-21T11:24:20Z</time>
      </trkpt>
      <trkpt lat="48.00936" lon="6.97658">
        <ele>1243.48</ele>
        <time>2018-05-21T11:24:39Z</time>
      </trkpt>
      <trkpt lat="48.00937" lon="6.97644">
        <ele>1240.72</ele>
        <time>2018-05-21T11:24:57Z</time>
      </trkpt>
      <trkpt lat="48.00936" lon="6.97624">
        <ele>1238.02</ele>
        <time>2018-05-21T11:25:13Z</time>
      </trkpt>
      <trkpt lat="48.00934" lon="6.97614">
        <ele>1236.28</ele>
        <time>2018-05-21T11:25:27Z</time>
      </trkpt>
      <trkpt lat="48.00935" lon="6.97597">
        <ele>1234.02</ele>
        <time>2018-05-21T11:25:47Z</time>
      </trkpt>
      <trkpt lat="48.00934" lon="6.97582">
        <ele>1230.95</ele>
        <time>2018-05-21T11:26:01Z</time>
      </trkpt>
      <trkpt lat="48.00935" lon="6.97547">
        <ele>1228.67</ele>
        <time>2018-05-21T11:26:21Z</time>
      </trkpt>
      <trkpt lat="48.00924" lon="6.97516">
        <ele>1225.69</ele>
        <time>2018-05-21T11:26:43Z</time>
      </trkpt>
      <trkpt lat="48.00913" lon="6.97502">
        <ele>1222.66</ele>
        <time>2018-05-21T11:27:02Z</time>
      </trkpt>
      <trkpt lat="48.00905" lon="6.97483">
        <ele>1219.88</ele>
        <time>2018-05-21T11:27:22Z</time>
      </trkpt>
      <trkpt lat="48.00896" lon="6.9747">
        <ele>1216.34</ele>
        <time>2018-05-21T11:27:42Z</time>
      </trkpt>
      <trkpt lat="48.00883" lon="6.9746">
        <ele>1213.07</ele>
        <time>2018-05-21T11:28:07Z</time>
      </trkpt>
      <trkpt lat="48.00878" lon="6.97454">
        <ele>1209.95</ele>
        <time>2018-05-21T11:28:20Z</time>
      </trkpt>
      <trkpt lat="48.00869" lon="6.97444">
        <ele>1207.05</ele>
        <time>2018-05-21T11:28:44Z</time>
      </trkpt>
      <trkpt lat="48.00866" lon="6.9744">
        <ele>1205.53</ele>
        <time>2018-05-21T11:28:54Z</time>
      </trkpt>
      <trkpt lat="48.00858" lon="6.97426">
        <ele>1204.98</ele>
        <time>2018-05-21T11:29:11Z</time>
      </trkpt>
      <trkpt lat="48.00855" lon="6.97429">
        <ele>1204.84</ele>
        <time>2018-05-21T11:29:31Z</time>
      </trkpt>
      <trkpt lat="48.00857" lon="6.97429">
        <ele>1204.73</ele>
        <time>2018-05-21T11:29:55Z</time>
      </trkpt>
      <trkpt lat="48.00855" lon="6.97417">
        <ele>1201.67</ele>
        <time>2018-05-21T11:30:16Z</time>
      </trkpt>
      <trkpt lat="48.00848" lon="6.9741">
        <ele>1199.31</ele>
        <time>2018-05-21T11:30:36Z</time>
      </trkpt>
      <trkpt lat="48.00852" lon="6.9741">
        <ele>1200.16</ele>
        <time>2018-05-21T11:31:03Z</time>
      </trkpt>
      <trkpt lat="48.00854" lon="6.97409">
        <ele>1200.74</ele>
        <time>2018-05-21T11:31:30Z</time>
      </trkpt>
      <trkpt lat="48.00851" lon="6.97406">
        <ele>1201.22</ele>
        <time>2018-05-21T11:32:01Z</time>
      </trkpt>
      <trkpt lat="48.00847" lon="6.97405">
        <ele>1200.85</ele>
        <time>2018-05-21T11:32:32Z</time>
      </trkpt>
      <trkpt lat="48.00846" lon="6.97405">
        <ele>1201.77</ele>
        <time>2018-05-21T11:33:02Z</time>
      </trkpt>
      <trkpt lat="48.00847" lon="6.97407">
        <ele>1201.22</ele>
        <time>2018-05-21T11:33:30Z</time>
      </trkpt>
      <trkpt lat="48.00842" lon="6.974">
        <ele>1199.59</ele>
        <time>2018-05-21T11:33:57Z</time>
      </trkpt>
      <trkpt lat="48.0084" lon="6.97391">
        <ele>1196.48</ele>
        <time>2018-05-21T11:34:12Z</time>
      </trkpt>
      <trkpt lat="48.00838" lon="6.97377">
        <ele>1193.1</ele>
        <time>2018-05-21T11:34:33Z</time>
      </trkpt>
      <trkpt lat="48.00832" lon="6.97364">
        <ele>1189.47</ele>
        <time>2018-05-21T11:34:50Z</time>
      </trkpt>
      <trkpt lat="48.00826" lon="6.97344">
        <ele>1186.45</ele>
        <time>2018-05-21T11:35:10Z</time>
      </trkpt>
      <trkpt lat="48.0082" lon="6.9733">
        <ele>1183.43</ele>
        <time>2018-05-21T11:35:28Z</time>
      </trkpt>
      <trkpt lat="48.00817" lon="6.97323">
        <ele>1182.73</ele>
        <time>2018-05-21T11:35:34Z</time>
      </trkpt>
      <trkpt lat="48.00807" lon="6.97322">
        <ele>1182.34</ele>
        <time>2018-05-21T11:35:56Z</time>
      </trkpt>
      <trkpt lat="48.00803" lon="6.97346">
        <ele>1183.91</ele>
        <time>2018-05-21T11:36:16Z</time>
      </trkpt>
      <trkpt lat="48.00801" lon="6.9737">
        <ele>1185.73</ele>
        <time>2018-05-21T11:36:33Z</time>
      </trkpt>
      <trkpt lat="48.00799" lon="6.97395">
        <ele>1186.71</ele>
        <time>2018-05-21T11:36:53Z</time>
      </trkpt>
      <trkpt lat="48.00803" lon="6.97415">
        <ele>1188.93</ele>
        <time>2018-05-21T11:37:14Z</time>
      </trkpt>
      <trkpt lat="48.008" lon="6.97425">
        <ele>1189.74</ele>
        <time>2018-05-21T11:37:28Z</time>
      </trkpt>
      <trkpt lat="48.00799" lon="6.97429">
        <ele>1189.54</ele>
        <time>2018-05-21T11:37:57Z</time>
      </trkpt>
      <trkpt lat="48.008" lon="6.97434">
        <ele>1189.85</ele>
        <time>2018-05-21T11:38:06Z</time>
      </trkpt>
      <trkpt lat="48.00797" lon="6.97452">
        <ele>1190.92</ele>
        <time>2018-05-21T11:38:28Z</time>
      </trkpt>
      <trkpt lat="48.00795" lon="6.9748">
        <ele>1191.12</ele>
        <time>2018-05-21T11:38:49Z</time>
      </trkpt>
      <trkpt lat="48.00788" lon="6.9749">
        <ele>1191.31</ele>
        <time>2018-05-21T11:39:00Z</time>
      </trkpt>
      <trkpt lat="48.00784" lon="6.97501">
        <ele>1192.3</ele>
        <time>2018-05-21T11:39:15Z</time>
      </trkpt>
      <trkpt lat="48.0078" lon="6.97506">
        <ele>1191.64</ele>
        <time>2018-05-21T11:39:37Z</time>
      </trkpt>
      <trkpt lat="48.0078" lon="6.97498">
        <ele>1191.03</ele>
        <time>2018-05-21T11:39:56Z</time>
      </trkpt>
      <trkpt lat="48.00784" lon="6.97492">
        <ele>1190.9</ele>
        <time>2018-05-21T11:40:19Z</time>
      </trkpt>
      <trkpt lat="48.00786" lon="6.97483">
        <ele>1190.14</ele>
        <time>2018-05-21T11:40:42Z</time>
      </trkpt>
      <trkpt lat="48.0079" lon="6.97471">
        <ele>1188.87</ele>
        <time>2018-05-21T11:41:00Z</time>
      </trkpt>
      <trkpt lat="48.00791" lon="6.9747">
        <ele>1188.96</ele>
        <time>2018-05-21T11:41:01Z</time>
      </trkpt>
      <trkpt lat="48.00796" lon="6.97448">
        <ele>1187.5</ele>
        <time>2018-05-21T11:41:21Z</time>
      </trkpt>
      <trkpt lat="48.00796" lon="6.97447">
        <ele>1187.37</ele>
        <time>2018-05-21T11:41:22Z</time>
      </trkpt>
      <trkpt lat="48.00796" lon="6.97443">
        <ele>1187.03</ele>
        <time>2018-05-21T11:41:25Z</time>
      </trkpt>
      <trkpt lat="48.00797" lon="6.97441">
        <ele>1186.5</ele>
        <time>2018-05-21T11:41:27Z</time>
      </trkpt>
      <trkpt lat="48.00796" lon="6.9741">
        <ele>1183.54</ele>
        <time>2018-05-21T11:41:53Z</time>
      </trkpt>
      <trkpt lat="48.00798" lon="6.97374">
        <ele>1181.99</ele>
        <time>2018-05-21T11:42:15Z</time>
      </trkpt>
      <trkpt lat="48.00804" lon="6.97357">
        <ele>1180.48</ele>
        <time>2018-05-21T11:42:33Z</time>
      </trkpt>
      <trkpt lat="48.0081" lon="6.97342">
        <ele>1178.86</ele>
        <time>2018-05-21T11:42:51Z</time>
      </trkpt>
      <trkpt lat="48.0081" lon="6.97337">
        <ele>1178.65</ele>
        <time>2018-05-21T11:42:57Z</time>
      </trkpt>
      <trkpt lat="48.008" lon="6.97323">
        <ele>1176.1</ele>
        <time>2018-05-21T11:43:18Z</time>
      </trkpt>
      <trkpt lat="48.0079" lon="6.97317">
        <ele>1172.81</ele>
        <time>2018-05-21T11:43:39Z</time>
      </trkpt>
      <trkpt lat="48.00786" lon="6.97311">
        <ele>1172</ele>
        <time>2018-05-21T11:43:48Z</time>
      </trkpt>
      <trkpt lat="48.00779" lon="6.97302">
        <ele>1168.16</ele>
        <time>2018-05-21T11:44:02Z</time>
      </trkpt>
      <trkpt lat="48.00774" lon="6.97288">
        <ele>1165</ele>
        <time>2018-05-21T11:44:18Z</time>
      </trkpt>
      <trkpt lat="48.00761" lon="6.97263">
        <ele>1162.01</ele>
        <time>2018-05-21T11:44:41Z</time>
      </trkpt>
      <trkpt lat="48.00755" lon="6.97238">
        <ele>1159.31</ele>
        <time>2018-05-21T11:45:01Z</time>
      </trkpt>
      <trkpt lat="48.0075" lon="6.97221">
        <ele>1156.1</ele>
        <time>2018-05-21T11:45:20Z</time>
      </trkpt>
      <trkpt lat="48.0075" lon="6.97212">
        <ele>1154.33</ele>
        <time>2018-05-21T11:45:34Z</time>
      </trkpt>
      <trkpt lat="48.00752" lon="6.97201">
        <ele>1152.41</ele>
        <time>2018-05-21T11:45:55Z</time>
      </trkpt>
      <trkpt lat="48.00744" lon="6.97178">
        <ele>1152.25</ele>
        <time>2018-05-21T11:46:14Z</time>
      </trkpt>
      <trkpt lat="48.00743" lon="6.97174">
        <ele>1151.99</ele>
        <time>2018-05-21T11:46:18Z</time>
      </trkpt>
      <trkpt lat="48.00736" lon="6.97165">
        <ele>1149.6</ele>
        <time>2018-05-21T11:46:42Z</time>
      </trkpt>
      <trkpt lat="48.00725" lon="6.97154">
        <ele>1148.57</ele>
        <time>2018-05-21T11:47:03Z</time>
      </trkpt>
      <trkpt lat="48.00714" lon="6.97139">
        <ele>1147.22</ele>
        <time>2018-05-21T11:47:22Z</time>
      </trkpt>
      <trkpt lat="48.00708" lon="6.9712">
        <ele>1144.14</ele>
        <time>2018-05-21T11:47:40Z</time>
      </trkpt>
      <trkpt lat="48.00697" lon="6.97104">
        <ele>1141.15</ele>
        <time>2018-05-21T11:48:00Z</time>
      </trkpt>
      <trkpt lat="48.00691" lon="6.97088">
        <ele>1140.01</ele>
        <time>2018-05-21T11:48:10Z</time>
      </trkpt>
      <trkpt lat="48.00679" lon="6.97065">
        <ele>1138.45</ele>
        <time>2018-05-21T11:48:26Z</time>
      </trkpt>
      <trkpt lat="48.00665" lon="6.97043">
        <ele>1136.29</ele>
        <time>2018-05-21T11:48:44Z</time>
      </trkpt>
      <trkpt lat="48.00654" lon="6.97032">
        <ele>1133.26</ele>
        <time>2018-05-21T11:49:02Z</time>
      </trkpt>
      <trkpt lat="48.00654" lon="6.97019">
        <ele>1130.19</ele>
        <time>2018-05-21T11:49:17Z</time>
      </trkpt>
      <trkpt lat="48.00651" lon="6.97">
        <ele>1127.24</ele>
        <time>2018-05-21T11:49:38Z</time>
      </trkpt>
      <trkpt lat="48.00644" lon="6.96981">
        <ele>1123.97</ele>
        <time>2018-05-21T11:49:55Z</time>
      </trkpt>
      <trkpt lat="48.00641" lon="6.96968">
        <ele>1120.86</ele>
        <time>2018-05-21T11:50:12Z</time>
      </trkpt>
      <trkpt lat="48.00637" lon="6.96958">
        <ele>1117.84</ele>
        <time>2018-05-21T11:50:27Z</time>
      </trkpt>
      <trkpt lat="48.00632" lon="6.96936">
        <ele>1115.45</ele>
        <time>2018-05-21T11:50:44Z</time>
      </trkpt>
      <trkpt lat="48.00624" lon="6.96924">
        <ele>1111.42</ele>
        <time>2018-05-21T11:51:01Z</time>
      </trkpt>
      <trkpt lat="48.00616" lon="6.96914">
        <ele>1108.35</ele>
        <time>2018-05-21T11:51:19Z</time>
      </trkpt>
      <trkpt lat="48.00612" lon="6.96921">
        <ele>1106.17</ele>
        <time>2018-05-21T11:51:37Z</time>
      </trkpt>
      <trkpt lat="48.00605" lon="6.96923">
        <ele>1103.08</ele>
        <time>2018-05-21T11:51:52Z</time>
      </trkpt>
      <trkpt lat="48.00601" lon="6.96929">
        <ele>1100.01</ele>
        <time>2018-05-21T11:52:13Z</time>
      </trkpt>
      <trkpt lat="48.0059" lon="6.96944">
        <ele>1097.48</ele>
        <time>2018-05-21T11:52:31Z</time>
      </trkpt>
      <trkpt lat="48.00585" lon="6.96936">
        <ele>1094.47</ele>
        <time>2018-05-21T11:52:47Z</time>
      </trkpt>
      <trkpt lat="48.00583" lon="6.96919">
        <ele>1093.06</ele>
        <time>2018-05-21T11:53:04Z</time>
      </trkpt>
      <trkpt lat="48.00581" lon="6.96913">
        <ele>1089.97</ele>
        <time>2018-05-21T11:53:19Z</time>
      </trkpt>
      <trkpt lat="48.00577" lon="6.96921">
        <ele>1086.84</ele>
        <time>2018-05-21T11:53:33Z</time>
      </trkpt>
      <trkpt lat="48.0057" lon="6.96936">
        <ele>1086.62</ele>
        <time>2018-05-21T11:53:52Z</time>
      </trkpt>
      <trkpt lat="48.00565" lon="6.96935">
        <ele>1083.46</ele>
        <time>2018-05-21T11:54:11Z</time>
      </trkpt>
      <trkpt lat="48.00562" lon="6.96917">
        <ele>1080.47</ele>
        <time>2018-05-21T11:54:29Z</time>
      </trkpt>
      <trkpt lat="48.00554" lon="6.96918">
        <ele>1077.07</ele>
        <time>2018-05-21T11:54:43Z</time>
      </trkpt>
      <trkpt lat="48.00548" lon="6.96911">
        <ele>1074.06</ele>
        <time>2018-05-21T11:54:59Z</time>
      </trkpt>
      <trkpt lat="48.00543" lon="6.96927">
        <ele>1071.21</ele>
        <time>2018-05-21T11:55:18Z</time>
      </trkpt>
      <trkpt lat="48.00536" lon="6.96938">
        <ele>1068.19</ele>
        <time>2018-05-21T11:55:35Z</time>
      </trkpt>
      <trkpt lat="48.00532" lon="6.96929">
        <ele>1065.37</ele>
        <time>2018-05-21T11:55:50Z</time>
      </trkpt>
      <trkpt lat="48.00526" lon="6.96913">
        <ele>1062.5</ele>
        <time>2018-05-21T11:56:07Z</time>
      </trkpt>
      <trkpt lat="48.00521" lon="6.96903">
        <ele>1059.57</ele>
        <time>2018-05-21T11:56:22Z</time>
      </trkpt>
      <trkpt lat="48.0052" lon="6.96914">
        <ele>1056.08</ele>
        <time>2018-05-21T11:56:41Z</time>
      </trkpt>
      <trkpt lat="48.0051" lon="6.96908">
        <ele>1053.97</ele>
        <time>2018-05-21T11:57:03Z</time>
      </trkpt>
      <trkpt lat="48.00505" lon="6.96898">
        <ele>1051.24</ele>
        <time>2018-05-21T11:57:15Z</time>
      </trkpt>
      <trkpt lat="48.00497" lon="6.96883">
        <ele>1048.23</ele>
        <time>2018-05-21T11:57:32Z</time>
      </trkpt>
      <trkpt lat="48.00491" lon="6.9686">
        <ele>1044.74</ele>
        <time>2018-05-21T11:57:52Z</time>
      </trkpt>
      <trkpt lat="48.0049" lon="6.96857">
        <ele>1044.37</ele>
        <time>2018-05-21T11:57:55Z</time>
      </trkpt>
      <trkpt lat="48.00489" lon="6.96854">
        <ele>1043.69</ele>
        <time>2018-05-21T11:57:58Z</time>
      </trkpt>
      <trkpt lat="48.00481" lon="6.96849">
        <ele>1040.28</ele>
        <time>2018-05-21T11:58:14Z</time>
      </trkpt>
      <trkpt lat="48.00476" lon="6.96832">
        <ele>1038.97</ele>
        <time>2018-05-21T11:58:33Z</time>
      </trkpt>
      <trkpt lat="48.0047" lon="6.96822">
        <ele>1035.9</ele>
        <time>2018-05-21T11:58:48Z</time>
      </trkpt>
      <trkpt lat="48.00461" lon="6.96828">
        <ele>1033.98</ele>
        <time>2018-05-21T11:59:08Z</time>
      </trkpt>
      <trkpt lat="48.00448" lon="6.96821">
        <ele>1030.92</ele>
        <time>2018-05-21T11:59:27Z</time>
      </trkpt>
      <trkpt lat="48.00436" lon="6.96818">
        <ele>1028.86</ele>
        <time>2018-05-21T11:59:45Z</time>
      </trkpt>
      <trkpt lat="48.00421" lon="6.96814">
        <ele>1029.85</ele>
        <time>2018-05-21T12:00:04Z</time>
      </trkpt>
      <trkpt lat="48.00418" lon="6.96799">
        <ele>1027.69</ele>
        <time>2018-05-21T12:00:23Z</time>
      </trkpt>
      <trkpt lat="48.00411" lon="6.96778">
        <ele>1024.65</ele>
        <time>2018-05-21T12:00:43Z</time>
      </trkpt>
      <trkpt lat="48.00394" lon="6.96764">
        <ele>1023.5</ele>
        <time>2018-05-21T12:01:04Z</time>
      </trkpt>
      <trkpt lat="48.00386" lon="6.96741">
        <ele>1022.38</ele>
        <time>2018-05-21T12:01:23Z</time>
      </trkpt>
      <trkpt lat="48.00388" lon="6.96738">
        <ele>1022.44</ele>
        <time>2018-05-21T12:01:36Z</time>
      </trkpt>
      <trkpt lat="48.00379" lon="6.96736">
        <ele>1021.14</ele>
        <time>2018-05-21T12:01:55Z</time>
      </trkpt>
      <trkpt lat="48.00378" lon="6.96735">
        <ele>1021.44</ele>
        <time>2018-05-21T12:01:57Z</time>
      </trkpt>
      <trkpt lat="48.00374" lon="6.96733">
        <ele>1020.95</ele>
        <time>2018-05-21T12:02:14Z</time>
      </trkpt>
      <trkpt lat="48.00377" lon="6.96734">
        <ele>1021.24</ele>
        <time>2018-05-21T12:02:32Z</time>
      </trkpt>
      <trkpt lat="48.00378" lon="6.96738">
        <ele>1024.47</ele>
        <time>2018-05-21T12:02:44Z</time>
      </trkpt>
      <trkpt lat="48.00379" lon="6.96738">
        <ele>1020.91</ele>
        <time>2018-05-21T12:02:46Z</time>
      </trkpt>
      <trkpt lat="48.00383" lon="6.96739">
        <ele>1020.83</ele>
        <time>2018-05-21T12:03:13Z</time>
      </trkpt>
      <trkpt lat="48.00386" lon="6.96736">
        <ele>1017.18</ele>
        <time>2018-05-21T12:03:33Z</time>
      </trkpt>
      <trkpt lat="48.00386" lon="6.96737">
        <ele>1023.31</ele>
        <time>2018-05-21T12:03:34Z</time>
      </trkpt>
      <trkpt lat="48.00386" lon="6.96737">
        <ele>1017.24</ele>
        <time>2018-05-21T12:03:36Z</time>
      </trkpt>
      <trkpt lat="48.00386" lon="6.96737">
        <ele>1023.64</ele>
        <time>2018-05-21T12:03:37Z</time>
      </trkpt>
      <trkpt lat="48.00386" lon="6.96739">
        <ele>1020.27</ele>
        <time>2018-05-21T12:03:40Z</time>
      </trkpt>
      <trkpt lat="48.0039" lon="6.96737">
        <ele>1020.21</ele>
        <time>2018-05-21T12:04:03Z</time>
      </trkpt>
      <trkpt lat="48.00389" lon="6.96732">
        <ele>1020.16</ele>
        <time>2018-05-21T12:04:29Z</time>
      </trkpt>
      <trkpt lat="48.0039" lon="6.96724">
        <ele>1019.69</ele>
        <time>2018-05-21T12:04:59Z</time>
      </trkpt>
      <trkpt lat="48.00392" lon="6.96722">
        <ele>1019.73</ele>
        <time>2018-05-21T12:05:24Z</time>
      </trkpt>
      <trkpt lat="48.00389" lon="6.96729">
        <ele>1019.45</ele>
        <time>2018-05-21T12:06:00Z</time>
      </trkpt>
      <trkpt lat="48.0039" lon="6.9673">
        <ele>1019.55</ele>
        <time>2018-05-21T12:06:05Z</time>
      </trkpt>
      <trkpt lat="48.00389" lon="6.96725">
        <ele>1019.46</ele>
        <time>2018-05-21T12:06:35Z</time>
      </trkpt>
      <trkpt lat="48.00387" lon="6.96721">
        <ele>1019.15</ele>
        <time>2018-05-21T12:06:54Z</time>
      </trkpt>
      <trkpt lat="48.00389" lon="6.9672">
        <ele>1019.11</ele>
        <time>2018-05-21T12:06:57Z</time>
      </trkpt>
      <trkpt lat="48.00391" lon="6.96718">
        <ele>1018.94</ele>
        <time>2018-05-21T12:07:27Z</time>
      </trkpt>
      <trkpt lat="48.00388" lon="6.96721">
        <ele>1018.73</ele>
        <time>2018-05-21T12:07:54Z</time>
      </trkpt>
      <trkpt lat="48.00388" lon="6.96722">
        <ele>1018.64</ele>
        <time>2018-05-21T12:08:17Z</time>
      </trkpt>
      <trkpt lat="48.00392" lon="6.96722">
        <ele>1018.51</ele>
        <time>2018-05-21T12:08:26Z</time>
      </trkpt>
      <trkpt lat="48.00404" lon="6.96722">
        <ele>1018.05</ele>
        <time>2018-05-21T12:08:54Z</time>
      </trkpt>
      <trkpt lat="48.00393" lon="6.96706">
        <ele>1015.98</ele>
        <time>2018-05-21T12:09:15Z</time>
      </trkpt>
      <trkpt lat="48.00389" lon="6.96694">
        <ele>1015.1</ele>
        <time>2018-05-21T12:09:28Z</time>
      </trkpt>
      <trkpt lat="48.00378" lon="6.96682">
        <ele>1014.9</ele>
        <time>2018-05-21T12:09:45Z</time>
      </trkpt>
      <trkpt lat="48.00371" lon="6.96673">
        <ele>1016.89</ele>
        <time>2018-05-21T12:09:56Z</time>
      </trkpt>
      <trkpt lat="48.00362" lon="6.96658">
        <ele>1016.54</ele>
        <time>2018-05-21T12:10:09Z</time>
      </trkpt>
      <trkpt lat="48.00351" lon="6.96642">
        <ele>1017.26</ele>
        <time>2018-05-21T12:10:25Z</time>
      </trkpt>
      <trkpt lat="48.0035" lon="6.96618">
        <ele>1018.29</ele>
        <time>2018-05-21T12:10:42Z</time>
      </trkpt>
      <trkpt lat="48.00349" lon="6.96612">
        <ele>1019.02</ele>
        <time>2018-05-21T12:10:51Z</time>
      </trkpt>
      <trkpt lat="48.00344" lon="6.96596">
        <ele>1019.31</ele>
        <time>2018-05-21T12:11:04Z</time>
      </trkpt>
      <trkpt lat="48.00336" lon="6.96587">
        <ele>1021.13</ele>
        <time>2018-05-21T12:11:19Z</time>
      </trkpt>
      <trkpt lat="48.00325" lon="6.96574">
        <ele>1023.08</ele>
        <time>2018-05-21T12:11:35Z</time>
      </trkpt>
      <trkpt lat="48.00319" lon="6.9657">
        <ele>1024.05</ele>
        <time>2018-05-21T12:11:47Z</time>
      </trkpt>
      <trkpt lat="48.0031" lon="6.96556">
        <ele>1024.57</ele>
        <time>2018-05-21T12:12:03Z</time>
      </trkpt>
      <trkpt lat="48.00298" lon="6.96551">
        <ele>1027.36</ele>
        <time>2018-05-21T12:12:18Z</time>
      </trkpt>
      <trkpt lat="48.00292" lon="6.9655">
        <ele>1027.93</ele>
        <time>2018-05-21T12:12:31Z</time>
      </trkpt>
      <trkpt lat="48.00291" lon="6.96542">
        <ele>1029.31</ele>
        <time>2018-05-21T12:12:45Z</time>
      </trkpt>
      <trkpt lat="48.00289" lon="6.96539">
        <ele>1030.59</ele>
        <time>2018-05-21T12:12:51Z</time>
      </trkpt>
      <trkpt lat="48.00277" lon="6.96534">
        <ele>1032.66</ele>
        <time>2018-05-21T12:13:05Z</time>
      </trkpt>
      <trkpt lat="48.00267" lon="6.96523">
        <ele>1033.39</ele>
        <time>2018-05-21T12:13:25Z</time>
      </trkpt>
      <trkpt lat="48.00261" lon="6.96505">
        <ele>1037.21</ele>
        <time>2018-05-21T12:13:43Z</time>
      </trkpt>
      <trkpt lat="48.00248" lon="6.96487">
        <ele>1037.39</ele>
        <time>2018-05-21T12:14:05Z</time>
      </trkpt>
      <trkpt lat="48.00239" lon="6.96478">
        <ele>1039.66</ele>
        <time>2018-05-21T12:14:22Z</time>
      </trkpt>
      <trkpt lat="48.00233" lon="6.96473">
        <ele>1039.62</ele>
        <time>2018-05-21T12:14:34Z</time>
      </trkpt>
      <trkpt lat="48.00221" lon="6.96458">
        <ele>1041.42</ele>
        <time>2018-05-21T12:14:47Z</time>
      </trkpt>
      <trkpt lat="48.00218" lon="6.96452">
        <ele>1041.39</ele>
        <time>2018-05-21T12:14:57Z</time>
      </trkpt>
      <trkpt lat="48.00211" lon="6.96449">
        <ele>1042.33</ele>
        <time>2018-05-21T12:15:10Z</time>
      </trkpt>
      <trkpt lat="48.00197" lon="6.96442">
        <ele>1043.24</ele>
        <time>2018-05-21T12:15:29Z</time>
      </trkpt>
      <trkpt lat="48.00185" lon="6.96435">
        <ele>1044.28</ele>
        <time>2018-05-21T12:15:41Z</time>
      </trkpt>
      <trkpt lat="48.00181" lon="6.96432">
        <ele>1044.75</ele>
        <time>2018-05-21T12:15:45Z</time>
      </trkpt>
      <trkpt lat="48.0017" lon="6.96426">
        <ele>1044.62</ele>
        <time>2018-05-21T12:16:02Z</time>
      </trkpt>
      <trkpt lat="48.00166" lon="6.96424">
        <ele>1044.48</ele>
        <time>2018-05-21T12:16:14Z</time>
      </trkpt>
      <trkpt lat="48.00157" lon="6.9642">
        <ele>1043.84</ele>
        <time>2018-05-21T12:16:28Z</time>
      </trkpt>
      <trkpt lat="48.00148" lon="6.96419">
        <ele>1044.28</ele>
        <time>2018-05-21T12:16:45Z</time>
      </trkpt>
      <trkpt lat="48.00136" lon="6.96421">
        <ele>1045.94</ele>
        <time>2018-05-21T12:17:01Z</time>
      </trkpt>
      <trkpt lat="48.0013" lon="6.96426">
        <ele>1044.82</ele>
        <time>2018-05-21T12:17:10Z</time>
      </trkpt>
      <trkpt lat="48.00126" lon="6.96431">
        <ele>1043.82</ele>
        <time>2018-05-21T12:17:18Z</time>
      </trkpt>
      <trkpt lat="48.00116" lon="6.96431">
        <ele>1043.33</ele>
        <time>2018-05-21T12:17:29Z</time>
      </trkpt>
      <trkpt lat="48.00108" lon="6.96429">
        <ele>1041.72</ele>
        <time>2018-05-21T12:17:40Z</time>
      </trkpt>
      <trkpt lat="48.00094" lon="6.96432">
        <ele>1040.52</ele>
        <time>2018-05-21T12:17:56Z</time>
      </trkpt>
      <trkpt lat="48.00088" lon="6.96434">
        <ele>1039.91</ele>
        <time>2018-05-21T12:18:01Z</time>
      </trkpt>
      <trkpt lat="48.00086" lon="6.96435">
        <ele>1039.26</ele>
        <time>2018-05-21T12:18:03Z</time>
      </trkpt>
      <trkpt lat="48.00081" lon="6.96434">
        <ele>1039.65</ele>
        <time>2018-05-21T12:18:09Z</time>
      </trkpt>
      <trkpt lat="48.00073" lon="6.96433">
        <ele>1038.11</ele>
        <time>2018-05-21T12:18:16Z</time>
      </trkpt>
      <trkpt lat="48.00068" lon="6.96431">
        <ele>1037.78</ele>
        <time>2018-05-21T12:18:21Z</time>
      </trkpt>
      <trkpt lat="48.00066" lon="6.96433">
        <ele>1038.04</ele>
        <time>2018-05-21T12:18:23Z</time>
      </trkpt>
      <trkpt lat="48.0006" lon="6.96433">
        <ele>1037.59</ele>
        <time>2018-05-21T12:18:32Z</time>
      </trkpt>
      <trkpt lat="48.0004" lon="6.96424">
        <ele>1040.28</ele>
        <time>2018-05-21T12:18:49Z</time>
      </trkpt>
      <trkpt lat="48.00038" lon="6.96423">
        <ele>1039.97</ele>
        <time>2018-05-21T12:18:53Z</time>
      </trkpt>
      <trkpt lat="48.00023" lon="6.96419">
        <ele>1042.16</ele>
        <time>2018-05-21T12:19:07Z</time>
      </trkpt>
      <trkpt lat="48.00011" lon="6.96415">
        <ele>1042.98</ele>
        <time>2018-05-21T12:19:21Z</time>
      </trkpt>
      <trkpt lat="48.00001" lon="6.96409">
        <ele>1043.98</ele>
        <time>2018-05-21T12:19:32Z</time>
      </trkpt>
      <trkpt lat="47.99988" lon="6.96401">
        <ele>1045.83</ele>
        <time>2018-05-21T12:19:44Z</time>
      </trkpt>
      <trkpt lat="47.99981" lon="6.96395">
        <ele>1046.06</ele>
        <time>2018-05-21T12:19:56Z</time>
      </trkpt>
      <trkpt lat="47.99973" lon="6.96385">
        <ele>1048.9</ele>
        <time>2018-05-21T12:20:13Z</time>
      </trkpt>
      <trkpt lat="47.99965" lon="6.9638">
        <ele>1048.04</ele>
        <time>2018-05-21T12:20:23Z</time>
      </trkpt>
      <trkpt lat="47.99956" lon="6.96375">
        <ele>1049.6</ele>
        <time>2018-05-21T12:20:36Z</time>
      </trkpt>
      <trkpt lat="47.99944" lon="6.96367">
        <ele>1051.07</ele>
        <time>2018-05-21T12:20:48Z</time>
      </trkpt>
      <trkpt lat="47.99937" lon="6.96358">
        <ele>1050.98</ele>
        <time>2018-05-21T12:21:01Z</time>
      </trkpt>
      <trkpt lat="47.9993" lon="6.96351">
        <ele>1052.58</ele>
        <time>2018-05-21T12:21:13Z</time>
      </trkpt>
      <trkpt lat="47.99922" lon="6.96343">
        <ele>1053.49</ele>
        <time>2018-05-21T12:21:26Z</time>
      </trkpt>
      <trkpt lat="47.9992" lon="6.96342">
        <ele>1054.67</ele>
        <time>2018-05-21T12:21:28Z</time>
      </trkpt>
      <trkpt lat="47.99908" lon="6.96334">
        <ele>1054.78</ele>
        <time>2018-05-21T12:21:43Z</time>
      </trkpt>
      <trkpt lat="47.99907" lon="6.96334">
        <ele>1054.75</ele>
        <time>2018-05-21T12:21:45Z</time>
      </trkpt>
      <trkpt lat="47.99904" lon="6.9633">
        <ele>1056.27</ele>
        <time>2018-05-21T12:21:49Z</time>
      </trkpt>
      <trkpt lat="47.99895" lon="6.96319">
        <ele>1057.83</ele>
        <time>2018-05-21T12:22:06Z</time>
      </trkpt>
      <trkpt lat="47.99887" lon="6.96313">
        <ele>1058.19</ele>
        <time>2018-05-21T12:22:17Z</time>
      </trkpt>
      <trkpt lat="47.99884" lon="6.96311">
        <ele>1058.44</ele>
        <time>2018-05-21T12:22:21Z</time>
      </trkpt>
      <trkpt lat="47.99876" lon="6.96307">
        <ele>1059.95</ele>
        <time>2018-05-21T12:22:33Z</time>
      </trkpt>
      <trkpt lat="47.99865" lon="6.96304">
        <ele>1060.53</ele>
        <time>2018-05-21T12:22:50Z</time>
      </trkpt>
      <trkpt lat="47.99861" lon="6.963">
        <ele>1061.76</ele>
        <time>2018-05-21T12:23:02Z</time>
      </trkpt>
      <trkpt lat="47.9985" lon="6.96293">
        <ele>1063.75</ele>
        <time>2018-05-21T12:23:18Z</time>
      </trkpt>
      <trkpt lat="47.99837" lon="6.96284">
        <ele>1064.02</ele>
        <time>2018-05-21T12:23:33Z</time>
      </trkpt>
      <trkpt lat="47.99833" lon="6.96279">
        <ele>1064.86</ele>
        <time>2018-05-21T12:23:40Z</time>
      </trkpt>
      <trkpt lat="47.99823" lon="6.96273">
        <ele>1065.87</ele>
        <time>2018-05-21T12:23:54Z</time>
      </trkpt>
      <trkpt lat="47.99817" lon="6.96262">
        <ele>1067.55</ele>
        <time>2018-05-21T12:24:07Z</time>
      </trkpt>
      <trkpt lat="47.99813" lon="6.96259">
        <ele>1067.74</ele>
        <time>2018-05-21T12:24:15Z</time>
      </trkpt>
      <trkpt lat="47.99807" lon="6.96261">
        <ele>1067.29</ele>
        <time>2018-05-21T12:24:20Z</time>
      </trkpt>
      <trkpt lat="47.99796" lon="6.96259">
        <ele>1068.05</ele>
        <time>2018-05-21T12:24:33Z</time>
      </trkpt>
      <trkpt lat="47.99787" lon="6.96252">
        <ele>1068.54</ele>
        <time>2018-05-21T12:24:44Z</time>
      </trkpt>
      <trkpt lat="47.99781" lon="6.96242">
        <ele>1068.64</ele>
        <time>2018-05-21T12:24:54Z</time>
      </trkpt>
      <trkpt lat="47.99777" lon="6.96229">
        <ele>1071.08</ele>
        <time>2018-05-21T12:25:09Z</time>
      </trkpt>
      <trkpt lat="47.99782" lon="6.96217">
        <ele>1071.24</ele>
        <time>2018-05-21T12:25:23Z</time>
      </trkpt>
      <trkpt lat="47.99784" lon="6.96207">
        <ele>1071.81</ele>
        <time>2018-05-21T12:25:34Z</time>
      </trkpt>
      <trkpt lat="47.99791" lon="6.96193">
        <ele>1073.4</ele>
        <time>2018-05-21T12:25:46Z</time>
      </trkpt>
      <trkpt lat="47.99795" lon="6.96176">
        <ele>1073.7</ele>
        <time>2018-05-21T12:26:00Z</time>
      </trkpt>
      <trkpt lat="47.99796" lon="6.96162">
        <ele>1074.4</ele>
        <time>2018-05-21T12:26:13Z</time>
      </trkpt>
      <trkpt lat="47.99794" lon="6.96152">
        <ele>1075.1</ele>
        <time>2018-05-21T12:26:24Z</time>
      </trkpt>
      <trkpt lat="47.99792" lon="6.96131">
        <ele>1075.17</ele>
        <time>2018-05-21T12:26:45Z</time>
      </trkpt>
      <trkpt lat="47.99792" lon="6.9613">
        <ele>1075.35</ele>
        <time>2018-05-21T12:26:47Z</time>
      </trkpt>
      <trkpt lat="47.9979" lon="6.96128">
        <ele>1075.58</ele>
        <time>2018-05-21T12:27:01Z</time>
      </trkpt>
      <trkpt lat="47.99787" lon="6.96134">
        <ele>1075.77</ele>
        <time>2018-05-21T12:27:08Z</time>
      </trkpt>
      <trkpt lat="47.99786" lon="6.9613">
        <ele>1075.54</ele>
        <time>2018-05-21T12:27:35Z</time>
      </trkpt>
      <trkpt lat="47.99784" lon="6.96125">
        <ele>1074.89</ele>
        <time>2018-05-21T12:28:05Z</time>
      </trkpt>
      <trkpt lat="47.99783" lon="6.96126">
        <ele>1076.19</ele>
        <time>2018-05-21T12:28:32Z</time>
      </trkpt>
      <trkpt lat="47.99788" lon="6.96122">
        <ele>1078.18</ele>
        <time>2018-05-21T12:28:50Z</time>
      </trkpt>
      <trkpt lat="47.99794" lon="6.96113">
        <ele>1079.99</ele>
        <time>2018-05-21T12:29:04Z</time>
      </trkpt>
      <trkpt lat="47.99798" lon="6.96104">
        <ele>1082.53</ele>
        <time>2018-05-21T12:29:16Z</time>
      </trkpt>
      <trkpt lat="47.99802" lon="6.96091">
        <ele>1083.71</ele>
        <time>2018-05-21T12:29:29Z</time>
      </trkpt>
      <trkpt lat="47.99808" lon="6.96082">
        <ele>1085.52</ele>
        <time>2018-05-21T12:29:41Z</time>
      </trkpt>
      <trkpt lat="47.99812" lon="6.9608">
        <ele>1086.07</ele>
        <time>2018-05-21T12:29:54Z</time>
      </trkpt>
      <trkpt lat="47.99821" lon="6.96067">
        <ele>1087.61</ele>
        <time>2018-05-21T12:30:09Z</time>
      </trkpt>
      <trkpt lat="47.99827" lon="6.96052">
        <ele>1090.6</ele>
        <time>2018-05-21T12:30:26Z</time>
      </trkpt>
      <trkpt lat="47.99834" lon="6.96045">
        <ele>1091.26</ele>
        <time>2018-05-21T12:30:32Z</time>
      </trkpt>
      <trkpt lat="47.99844" lon="6.96036">
        <ele>1092.12</ele>
        <time>2018-05-21T12:30:46Z</time>
      </trkpt>
      <trkpt lat="47.99855" lon="6.96024">
        <ele>1091.83</ele>
        <time>2018-05-21T12:30:57Z</time>
      </trkpt>
      <trkpt lat="47.99862" lon="6.96015">
        <ele>1091.85</ele>
        <time>2018-05-21T12:31:06Z</time>
      </trkpt>
      <trkpt lat="47.99865" lon="6.96009">
        <ele>1091.27</ele>
        <time>2018-05-21T12:31:11Z</time>
      </trkpt>
      <trkpt lat="47.99869" lon="6.96">
        <ele>1090.31</ele>
        <time>2018-05-21T12:31:18Z</time>
      </trkpt>
      <trkpt lat="47.99886" lon="6.95975">
        <ele>1088.84</ele>
        <time>2018-05-21T12:31:40Z</time>
      </trkpt>
      <trkpt lat="47.99892" lon="6.95966">
        <ele>1088.27</ele>
        <time>2018-05-21T12:31:46Z</time>
      </trkpt>
      <trkpt lat="47.99895" lon="6.95941">
        <ele>1085.98</ele>
        <time>2018-05-21T12:32:03Z</time>
      </trkpt>
      <trkpt lat="47.99898" lon="6.95929">
        <ele>1085.14</ele>
        <time>2018-05-21T12:32:11Z</time>
      </trkpt>
      <trkpt lat="47.99904" lon="6.95917">
        <ele>1084.78</ele>
        <time>2018-05-21T12:32:19Z</time>
      </trkpt>
      <trkpt lat="47.99905" lon="6.95915">
        <ele>1084.85</ele>
        <time>2018-05-21T12:32:21Z</time>
      </trkpt>
      <trkpt lat="47.99914" lon="6.95902">
        <ele>1084.2</ele>
        <time>2018-05-21T12:32:36Z</time>
      </trkpt>
      <trkpt lat="47.99923" lon="6.95893">
        <ele>1081.58</ele>
        <time>2018-05-21T12:32:52Z</time>
      </trkpt>
      <trkpt lat="47.99932" lon="6.95884">
        <ele>1080.02</ele>
        <time>2018-05-21T12:33:10Z</time>
      </trkpt>
      <trkpt lat="47.99951" lon="6.95871">
        <ele>1077.79</ele>
        <time>2018-05-21T12:33:30Z</time>
      </trkpt>
      <trkpt lat="47.99965" lon="6.95844">
        <ele>1075.53</ele>
        <time>2018-05-21T12:33:52Z</time>
      </trkpt>
      <trkpt lat="47.99975" lon="6.95825">
        <ele>1074.84</ele>
        <time>2018-05-21T12:34:08Z</time>
      </trkpt>
      <trkpt lat="47.99984" lon="6.95806">
        <ele>1072.6</ele>
        <time>2018-05-21T12:34:28Z</time>
      </trkpt>
      <trkpt lat="47.99998" lon="6.95781">
        <ele>1069.85</ele>
        <time>2018-05-21T12:34:48Z</time>
      </trkpt>
      <trkpt lat="48.00014" lon="6.95759">
        <ele>1067.66</ele>
        <time>2018-05-21T12:35:09Z</time>
      </trkpt>
      <trkpt lat="48.00031" lon="6.95733">
        <ele>1065.76</ele>
        <time>2018-05-21T12:35:29Z</time>
      </trkpt>
      <trkpt lat="48.00042" lon="6.95707">
        <ele>1063.03</ele>
        <time>2018-05-21T12:35:50Z</time>
      </trkpt>
      <trkpt lat="48.00052" lon="6.95681">
        <ele>1060.63</ele>
        <time>2018-05-21T12:36:10Z</time>
      </trkpt>
      <trkpt lat="48.0006" lon="6.95651">
        <ele>1058.15</ele>
        <time>2018-05-21T12:36:31Z</time>
      </trkpt>
      <trkpt lat="48.00062" lon="6.95622">
        <ele>1057.27</ele>
        <time>2018-05-21T12:36:53Z</time>
      </trkpt>
      <trkpt lat="48.00061" lon="6.95619">
        <ele>1057.01</ele>
        <time>2018-05-21T12:36:55Z</time>
      </trkpt>
      <trkpt lat="48.00062" lon="6.95616">
        <ele>1056.68</ele>
        <time>2018-05-21T12:36:57Z</time>
      </trkpt>
      <trkpt lat="48.00052" lon="6.9559">
        <ele>1054.36</ele>
        <time>2018-05-21T12:37:17Z</time>
      </trkpt>
      <trkpt lat="48.00043" lon="6.95566">
        <ele>1052.02</ele>
        <time>2018-05-21T12:37:38Z</time>
      </trkpt>
      <trkpt lat="48.00033" lon="6.95538">
        <ele>1050.17</ele>
        <time>2018-05-21T12:38:01Z</time>
      </trkpt>
      <trkpt lat="48.00026" lon="6.95522">
        <ele>1049.2</ele>
        <time>2018-05-21T12:38:23Z</time>
      </trkpt>
      <trkpt lat="48.00026" lon="6.95522">
        <ele>1048.92</ele>
        <time>2018-05-21T12:38:24Z</time>
      </trkpt>
      <trkpt lat="48.00021" lon="6.95503">
        <ele>1047.23</ele>
        <time>2018-05-21T12:38:47Z</time>
      </trkpt>
      <trkpt lat="48.00016" lon="6.95475">
        <ele>1044.92</ele>
        <time>2018-05-21T12:39:09Z</time>
      </trkpt>
      <trkpt lat="48.00017" lon="6.95448">
        <ele>1042.63</ele>
        <time>2018-05-21T12:39:29Z</time>
      </trkpt>
      <trkpt lat="48.00008" lon="6.95414">
        <ele>1040.75</ele>
        <time>2018-05-21T12:39:53Z</time>
      </trkpt>
      <trkpt lat="48.00014" lon="6.95389">
        <ele>1038.43</ele>
        <time>2018-05-21T12:40:13Z</time>
      </trkpt>
      <trkpt lat="48.00014" lon="6.95373">
        <ele>1036.53</ele>
        <time>2018-05-21T12:40:25Z</time>
      </trkpt>
      <trkpt lat="48.00016" lon="6.95351">
        <ele>1035.3</ele>
        <time>2018-05-21T12:40:39Z</time>
      </trkpt>
      <trkpt lat="48.00018" lon="6.95325">
        <ele>1033.42</ele>
        <time>2018-05-21T12:40:59Z</time>
      </trkpt>
      <trkpt lat="48.00009" lon="6.95305">
        <ele>1031.55</ele>
        <time>2018-05-21T12:41:18Z</time>
      </trkpt>
      <trkpt lat="48.00007" lon="6.95282">
        <ele>1028.51</ele>
        <time>2018-05-21T12:41:39Z</time>
      </trkpt>
      <trkpt lat="48.00006" lon="6.95261">
        <ele>1026.74</ele>
        <time>2018-05-21T12:41:53Z</time>
      </trkpt>
      <trkpt lat="48.00003" lon="6.95234">
        <ele>1024.21</ele>
        <time>2018-05-21T12:42:12Z</time>
      </trkpt>
      <trkpt lat="47.99999" lon="6.95199">
        <ele>1021.55</ele>
        <time>2018-05-21T12:42:32Z</time>
      </trkpt>
      <trkpt lat="48.00003" lon="6.95174">
        <ele>1018.86</ele>
        <time>2018-05-21T12:42:54Z</time>
      </trkpt>
      <trkpt lat="48.00008" lon="6.95147">
        <ele>1015.61</ele>
        <time>2018-05-21T12:43:15Z</time>
      </trkpt>
      <trkpt lat="48.00009" lon="6.95118">
        <ele>1013.14</ele>
        <time>2018-05-21T12:43:37Z</time>
      </trkpt>
      <trkpt lat="48.00009" lon="6.95117">
        <ele>1013.43</ele>
        <time>2018-05-21T12:43:38Z</time>
      </trkpt>
      <trkpt lat="48.00007" lon="6.95104">
        <ele>1012.42</ele>
        <time>2018-05-21T12:43:46Z</time>
      </trkpt>
      <trkpt lat="48.00006" lon="6.951">
        <ele>1011.56</ele>
        <time>2018-05-21T12:43:50Z</time>
      </trkpt>
      <trkpt lat="48.00004" lon="6.95077">
        <ele>1008.53</ele>
        <time>2018-05-21T12:44:10Z</time>
      </trkpt>
      <trkpt lat="48.00002" lon="6.95045">
        <ele>1006.88</ele>
        <time>2018-05-21T12:44:28Z</time>
      </trkpt>
      <trkpt lat="48.00006" lon="6.95027">
        <ele>1004.85</ele>
        <time>2018-05-21T12:44:42Z</time>
      </trkpt>
      <trkpt lat="48.00006" lon="6.95021">
        <ele>1004.49</ele>
        <time>2018-05-21T12:44:45Z</time>
      </trkpt>
      <trkpt lat="48.00008" lon="6.95017">
        <ele>1004.18</ele>
        <time>2018-05-21T12:44:48Z</time>
      </trkpt>
      <trkpt lat="48.00015" lon="6.94998">
        <ele>1002.31</ele>
        <time>2018-05-21T12:45:05Z</time>
      </trkpt>
      <trkpt lat="48.00016" lon="6.94991">
        <ele>1001.66</ele>
        <time>2018-05-21T12:45:09Z</time>
      </trkpt>
      <trkpt lat="48.00019" lon="6.9498">
        <ele>1000.77</ele>
        <time>2018-05-21T12:45:16Z</time>
      </trkpt>
      <trkpt lat="48.00025" lon="6.94966">
        <ele>999.21</ele>
        <time>2018-05-21T12:45:36Z</time>
      </trkpt>
      <trkpt lat="48.00024" lon="6.94964">
        <ele>999.36</ele>
        <time>2018-05-21T12:45:37Z</time>
      </trkpt>
      <trkpt lat="48.00003" lon="6.94943">
        <ele>996.2</ele>
        <time>2018-05-21T12:45:57Z</time>
      </trkpt>
      <trkpt lat="48.00001" lon="6.94938">
        <ele>996.39</ele>
        <time>2018-05-21T12:45:59Z</time>
      </trkpt>
      <trkpt lat="47.99993" lon="6.94914">
        <ele>993.22</ele>
        <time>2018-05-21T12:46:20Z</time>
      </trkpt>
      <trkpt lat="47.99993" lon="6.94907">
        <ele>993.41</ele>
        <time>2018-05-21T12:46:25Z</time>
      </trkpt>
      <trkpt lat="47.99991" lon="6.94897">
        <ele>991.53</ele>
        <time>2018-05-21T12:46:33Z</time>
      </trkpt>
      <trkpt lat="47.99985" lon="6.94876">
        <ele>989.01</ele>
        <time>2018-05-21T12:46:53Z</time>
      </trkpt>
      <trkpt lat="47.99982" lon="6.94854">
        <ele>987.18</ele>
        <time>2018-05-21T12:47:13Z</time>
      </trkpt>
      <trkpt lat="47.99986" lon="6.94835">
        <ele>986.84</ele>
        <time>2018-05-21T12:47:29Z</time>
      </trkpt>
      <trkpt lat="47.99994" lon="6.94812">
        <ele>987.34</ele>
        <time>2018-05-21T12:47:47Z</time>
      </trkpt>
      <trkpt lat="47.99994" lon="6.9481">
        <ele>986.72</ele>
        <time>2018-05-21T12:47:48Z</time>
      </trkpt>
      <trkpt lat="47.99998" lon="6.94791">
        <ele>986.51</ele>
        <time>2018-05-21T12:48:06Z</time>
      </trkpt>
      <trkpt lat="47.99998" lon="6.94768">
        <ele>983.13</ele>
        <time>2018-05-21T12:48:27Z</time>
      </trkpt>
      <trkpt lat="48" lon="6.94749">
        <ele>981.22</ele>
        <time>2018-05-21T12:48:48Z</time>
      </trkpt>
      <trkpt lat="47.99998" lon="6.94747">
        <ele>978.13</ele>
        <time>2018-05-21T12:49:02Z</time>
      </trkpt>
      <trkpt lat="47.99996" lon="6.94731">
        <ele>974.67</ele>
        <time>2018-05-21T12:49:20Z</time>
      </trkpt>
      <trkpt lat="47.99995" lon="6.94726">
        <ele>974.45</ele>
        <time>2018-05-21T12:49:24Z</time>
      </trkpt>
      <trkpt lat="47.99994" lon="6.94721">
        <ele>973.94</ele>
        <time>2018-05-21T12:49:28Z</time>
      </trkpt>
      <trkpt lat="47.99988" lon="6.94692">
        <ele>971.08</ele>
        <time>2018-05-21T12:49:46Z</time>
      </trkpt>
      <trkpt lat="47.99992" lon="6.94663">
        <ele>969.32</ele>
        <time>2018-05-21T12:50:07Z</time>
      </trkpt>
      <trkpt lat="48.00004" lon="6.94638">
        <ele>967.16</ele>
        <time>2018-05-21T12:50:28Z</time>
      </trkpt>
      <trkpt lat="48.00016" lon="6.94623">
        <ele>963.95</ele>
        <time>2018-05-21T12:50:46Z</time>
      </trkpt>
      <trkpt lat="48.00024" lon="6.9461">
        <ele>960.65</ele>
        <time>2018-05-21T12:51:05Z</time>
      </trkpt>
      <trkpt lat="48.00026" lon="6.94607">
        <ele>960.35</ele>
        <time>2018-05-21T12:51:10Z</time>
      </trkpt>
      <trkpt lat="48.00028" lon="6.94605">
        <ele>959.04</ele>
        <time>2018-05-21T12:51:16Z</time>
      </trkpt>
      <trkpt lat="48.00023" lon="6.94596">
        <ele>955.62</ele>
        <time>2018-05-21T12:51:32Z</time>
      </trkpt>
      <trkpt lat="48.00023" lon="6.94595">
        <ele>955.78</ele>
        <time>2018-05-21T12:51:34Z</time>
      </trkpt>
      <trkpt lat="48.00017" lon="6.94587">
        <ele>953.58</ele>
        <time>2018-05-21T12:51:45Z</time>
      </trkpt>
      <trkpt lat="48.00022" lon="6.94559">
        <ele>952.07</ele>
        <time>2018-05-21T12:52:07Z</time>
      </trkpt>
      <trkpt lat="48.00021" lon="6.94557">
        <ele>951.36</ele>
        <time>2018-05-21T12:52:27Z</time>
      </trkpt>
      <trkpt lat="48.0002" lon="6.94558">
        <ele>952.26</ele>
        <time>2018-05-21T12:52:29Z</time>
      </trkpt>
      <trkpt lat="48.00023" lon="6.94558">
        <ele>952.3</ele>
        <time>2018-05-21T12:52:32Z</time>
      </trkpt>
      <trkpt lat="48.00026" lon="6.94562">
        <ele>952.74</ele>
        <time>2018-05-21T12:52:36Z</time>
      </trkpt>
      <trkpt lat="48.00024" lon="6.94571">
        <ele>948.41</ele>
        <time>2018-05-21T12:52:57Z</time>
      </trkpt>
      <trkpt lat="48.00025" lon="6.94571">
        <ele>951.02</ele>
        <time>2018-05-21T12:52:58Z</time>
      </trkpt>
      <trkpt lat="48.00025" lon="6.9457">
        <ele>951.65</ele>
        <time>2018-05-21T12:53:00Z</time>
      </trkpt>
      <trkpt lat="48.00025" lon="6.9457">
        <ele>957.38</ele>
        <time>2018-05-21T12:53:01Z</time>
      </trkpt>
      <trkpt lat="48.00025" lon="6.9457">
        <ele>955.65</ele>
        <time>2018-05-21T12:53:02Z</time>
      </trkpt>
      <trkpt lat="48.00025" lon="6.94566">
        <ele>952.82</ele>
        <time>2018-05-21T12:53:04Z</time>
      </trkpt>
      <trkpt lat="48.0002" lon="6.94572">
        <ele>954.08</ele>
        <time>2018-05-21T12:53:23Z</time>
      </trkpt>
      <trkpt lat="48.00021" lon="6.94581">
        <ele>953.68</ele>
        <time>2018-05-21T12:53:39Z</time>
      </trkpt>
      <trkpt lat="48.00017" lon="6.94579">
        <ele>953.75</ele>
        <time>2018-05-21T12:53:41Z</time>
      </trkpt>
      <trkpt lat="48.00017" lon="6.94574">
        <ele>954.04</ele>
        <time>2018-05-21T12:54:02Z</time>
      </trkpt>
      <trkpt lat="48.00016" lon="6.94579">
        <ele>954.08</ele>
        <time>2018-05-21T12:54:13Z</time>
      </trkpt>
      <trkpt lat="48.00015" lon="6.94585">
        <ele>949.57</ele>
        <time>2018-05-21T12:54:26Z</time>
      </trkpt>
      <trkpt lat="48.00015" lon="6.94584">
        <ele>955.99</ele>
        <time>2018-05-21T12:54:27Z</time>
      </trkpt>
      <trkpt lat="48.00016" lon="6.94586">
        <ele>954.39</ele>
        <time>2018-05-21T12:54:31Z</time>
      </trkpt>
      <trkpt lat="48.00016" lon="6.94585">
        <ele>954.18</ele>
        <time>2018-05-21T12:54:38Z</time>
      </trkpt>
      <trkpt lat="48.00016" lon="6.94583">
        <ele>950.62</ele>
        <time>2018-05-21T12:54:49Z</time>
      </trkpt>
      <trkpt lat="48.00016" lon="6.94582">
        <ele>956.86</ele>
        <time>2018-05-21T12:54:50Z</time>
      </trkpt>
      <trkpt lat="48.00016" lon="6.94582">
        <ele>953.38</ele>
        <time>2018-05-21T12:54:51Z</time>
      </trkpt>
      <trkpt lat="48.00028" lon="6.94582">
        <ele>954.86</ele>
        <time>2018-05-21T12:55:31Z</time>
      </trkpt>
      <trkpt lat="48.00039" lon="6.9459">
        <ele>955.41</ele>
        <time>2018-05-21T12:56:16Z</time>
      </trkpt>
      <trkpt lat="48.00032" lon="6.94585">
        <ele>955.69</ele>
        <time>2018-05-21T12:56:45Z</time>
      </trkpt>
      <trkpt lat="48.00033" lon="6.94585">
        <ele>955.89</ele>
        <time>2018-05-21T12:57:33Z</time>
      </trkpt>
      <trkpt lat="48.00024" lon="6.9458">
        <ele>959.4</ele>
        <time>2018-05-21T12:58:22Z</time>
      </trkpt>
      <trkpt lat="48.00032" lon="6.94589">
        <ele>956.98</ele>
        <time>2018-05-21T12:58:25Z</time>
      </trkpt>
      <trkpt lat="48.00034" lon="6.94586">
        <ele>956.99</ele>
        <time>2018-05-21T12:58:32Z</time>
      </trkpt>
      <trkpt lat="48.00032" lon="6.94571">
        <ele>957.31</ele>
        <time>2018-05-21T12:58:48Z</time>
      </trkpt>
      <trkpt lat="48.00026" lon="6.94556">
        <ele>956.3</ele>
        <time>2018-05-21T12:59:12Z</time>
      </trkpt>
      <trkpt lat="48.00027" lon="6.94556">
        <ele>957.4</ele>
        <time>2018-05-21T12:59:36Z</time>
      </trkpt>
      <trkpt lat="48.00025" lon="6.94563">
        <ele>957.77</ele>
        <time>2018-05-21T12:59:57Z</time>
      </trkpt>
      <trkpt lat="48.00025" lon="6.9456">
        <ele>958.04</ele>
        <time>2018-05-21T13:00:19Z</time>
      </trkpt>
      <trkpt lat="48.00024" lon="6.94559">
        <ele>958.15</ele>
        <time>2018-05-21T13:00:45Z</time>
      </trkpt>
      <trkpt lat="48.00024" lon="6.94561">
        <ele>958.92</ele>
        <time>2018-05-21T13:01:11Z</time>
      </trkpt>
      <trkpt lat="48.0001" lon="6.9456">
        <ele>958.56</ele>
        <time>2018-05-21T13:01:34Z</time>
      </trkpt>
      <trkpt lat="47.99996" lon="6.94567">
        <ele>959.15</ele>
        <time>2018-05-21T13:01:52Z</time>
      </trkpt>
      <trkpt lat="47.99979" lon="6.94566">
        <ele>960.87</ele>
        <time>2018-05-21T13:02:15Z</time>
      </trkpt>
      <trkpt lat="47.99976" lon="6.94551">
        <ele>962.68</ele>
        <time>2018-05-21T13:02:31Z</time>
      </trkpt>
      <trkpt lat="47.99975" lon="6.94549">
        <ele>962.52</ele>
        <time>2018-05-21T13:02:33Z</time>
      </trkpt>
      <trkpt lat="47.99969" lon="6.94563">
        <ele>959.16</ele>
        <time>2018-05-21T13:02:53Z</time>
      </trkpt>
      <trkpt lat="47.99971" lon="6.94582">
        <ele>956.02</ele>
        <time>2018-05-21T13:03:07Z</time>
      </trkpt>
      <trkpt lat="47.99968" lon="6.94582">
        <ele>955.71</ele>
        <time>2018-05-21T13:03:13Z</time>
      </trkpt>
      <trkpt lat="47.99959" lon="6.94572">
        <ele>953.56</ele>
        <time>2018-05-21T13:03:28Z</time>
      </trkpt>
      <trkpt lat="47.99949" lon="6.94571">
        <ele>950.06</ele>
        <time>2018-05-21T13:03:45Z</time>
      </trkpt>
      <trkpt lat="47.9995" lon="6.9459">
        <ele>946.63</ele>
        <time>2018-05-21T13:04:06Z</time>
      </trkpt>
      <trkpt lat="47.99947" lon="6.94613">
        <ele>943.41</ele>
        <time>2018-05-21T13:04:23Z</time>
      </trkpt>
      <trkpt lat="47.99947" lon="6.94641">
        <ele>941.82</ele>
        <time>2018-05-21T13:04:45Z</time>
      </trkpt>
      <trkpt lat="47.99944" lon="6.9467">
        <ele>939.69</ele>
        <time>2018-05-21T13:05:10Z</time>
      </trkpt>
      <trkpt lat="47.99941" lon="6.94694">
        <ele>937.06</ele>
        <time>2018-05-21T13:05:31Z</time>
      </trkpt>
      <trkpt lat="47.99939" lon="6.94716">
        <ele>934.73</ele>
        <time>2018-05-21T13:05:49Z</time>
      </trkpt>
      <trkpt lat="47.99935" lon="6.9474">
        <ele>933.63</ele>
        <time>2018-05-21T13:06:04Z</time>
      </trkpt>
      <trkpt lat="47.99925" lon="6.94766">
        <ele>930.98</ele>
        <time>2018-05-21T13:06:28Z</time>
      </trkpt>
      <trkpt lat="47.99915" lon="6.94763">
        <ele>927.76</ele>
        <time>2018-05-21T13:06:48Z</time>
      </trkpt>
      <trkpt lat="47.99914" lon="6.94757">
        <ele>927.51</ele>
        <time>2018-05-21T13:06:52Z</time>
      </trkpt>
      <trkpt lat="47.99913" lon="6.94743">
        <ele>926.22</ele>
        <time>2018-05-21T13:07:04Z</time>
      </trkpt>
      <trkpt lat="47.99905" lon="6.94713">
        <ele>923.92</ele>
        <time>2018-05-21T13:07:27Z</time>
      </trkpt>
      <trkpt lat="47.9989" lon="6.947">
        <ele>922.45</ele>
        <time>2018-05-21T13:07:48Z</time>
      </trkpt>
      <trkpt lat="47.9988" lon="6.94713">
        <ele>920.52</ele>
        <time>2018-05-21T13:08:07Z</time>
      </trkpt>
      <trkpt lat="47.99862" lon="6.94724">
        <ele>918.44</ele>
        <time>2018-05-21T13:08:28Z</time>
      </trkpt>
      <trkpt lat="47.99848" lon="6.94718">
        <ele>916.08</ele>
        <time>2018-05-21T13:08:46Z</time>
      </trkpt>
      <trkpt lat="47.99829" lon="6.94707">
        <ele>914.22</ele>
        <time>2018-05-21T13:09:07Z</time>
      </trkpt>
      <trkpt lat="47.99817" lon="6.94696">
        <ele>912.52</ele>
        <time>2018-05-21T13:09:27Z</time>
      </trkpt>
      <trkpt lat="47.99807" lon="6.94686">
        <ele>910.72</ele>
        <time>2018-05-21T13:09:43Z</time>
      </trkpt>
      <trkpt lat="47.99804" lon="6.94686">
        <ele>909.63</ele>
        <time>2018-05-21T13:09:53Z</time>
      </trkpt>
      <trkpt lat="47.9978" lon="6.94687">
        <ele>906.63</ele>
        <time>2018-05-21T13:10:12Z</time>
      </trkpt>
      <trkpt lat="47.99769" lon="6.94702">
        <ele>904.67</ele>
        <time>2018-05-21T13:10:29Z</time>
      </trkpt>
      <trkpt lat="47.99768" lon="6.94706">
        <ele>904.77</ele>
        <time>2018-05-21T13:10:34Z</time>
      </trkpt>
      <trkpt lat="47.9976" lon="6.94737">
        <ele>903.76</ele>
        <time>2018-05-21T13:10:50Z</time>
      </trkpt>
      <trkpt lat="47.99746" lon="6.94769">
        <ele>902.74</ele>
        <time>2018-05-21T13:11:12Z</time>
      </trkpt>
      <trkpt lat="47.99736" lon="6.94794">
        <ele>901.63</ele>
        <time>2018-05-21T13:11:33Z</time>
      </trkpt>
      <trkpt lat="47.99734" lon="6.948">
        <ele>901.01</ele>
        <time>2018-05-21T13:11:41Z</time>
      </trkpt>
      <trkpt lat="47.99723" lon="6.94826">
        <ele>899.32</ele>
        <time>2018-05-21T13:12:06Z</time>
      </trkpt>
      <trkpt lat="47.99721" lon="6.9484">
        <ele>897.98</ele>
        <time>2018-05-21T13:12:28Z</time>
      </trkpt>
      <trkpt lat="47.99721" lon="6.9484">
        <ele>898.1</ele>
        <time>2018-05-21T13:12:29Z</time>
      </trkpt>
      <trkpt lat="47.99712" lon="6.94843">
        <ele>897.37</ele>
        <time>2018-05-21T13:12:53Z</time>
      </trkpt>
      <trkpt lat="47.99708" lon="6.9484">
        <ele>897.08</ele>
        <time>2018-05-21T13:13:17Z</time>
      </trkpt>
      <trkpt lat="47.997" lon="6.94832">
        <ele>897.81</ele>
        <time>2018-05-21T13:13:42Z</time>
      </trkpt>
      <trkpt lat="47.99711" lon="6.94841">
        <ele>897.51</ele>
        <time>2018-05-21T13:14:05Z</time>
      </trkpt>
      <trkpt lat="47.99705" lon="6.94843">
        <ele>897.81</ele>
        <time>2018-05-21T13:14:30Z</time>
      </trkpt>
      <trkpt lat="47.99704" lon="6.94842">
        <ele>897.67</ele>
        <time>2018-05-21T13:14:32Z</time>
      </trkpt>
      <trkpt lat="47.99706" lon="6.94844">
        <ele>897.51</ele>
        <time>2018-05-21T13:14:56Z</time>
      </trkpt>
      <trkpt lat="47.997" lon="6.94853">
        <ele>893.94</ele>
        <time>2018-05-21T13:15:16Z</time>
      </trkpt>
      <trkpt lat="47.99701" lon="6.9486">
        <ele>891.86</ele>
        <time>2018-05-21T13:15:39Z</time>
      </trkpt>
      <trkpt lat="47.99702" lon="6.9487">
        <ele>888.77</ele>
        <time>2018-05-21T13:15:57Z</time>
      </trkpt>
      <trkpt lat="47.99701" lon="6.94885">
        <ele>885.28</ele>
        <time>2018-05-21T13:16:12Z</time>
      </trkpt>
      <trkpt lat="47.997" lon="6.94896">
        <ele>882.4</ele>
        <time>2018-05-21T13:16:32Z</time>
      </trkpt>
      <trkpt lat="47.99701" lon="6.94904">
        <ele>880.2</ele>
        <time>2018-05-21T13:16:44Z</time>
      </trkpt>
      <trkpt lat="47.99693" lon="6.94914">
        <ele>876.95</ele>
        <time>2018-05-21T13:17:03Z</time>
      </trkpt>
      <trkpt lat="47.99685" lon="6.94946">
        <ele>873.73</ele>
        <time>2018-05-21T13:17:25Z</time>
      </trkpt>
      <trkpt lat="47.99682" lon="6.9496">
        <ele>870.66</ele>
        <time>2018-05-21T13:17:44Z</time>
      </trkpt>
      <trkpt lat="47.99678" lon="6.94973">
        <ele>867.59</ele>
        <time>2018-05-21T13:18:01Z</time>
      </trkpt>
      <trkpt lat="47.99677" lon="6.94991">
        <ele>864.43</ele>
        <time>2018-05-21T13:18:22Z</time>
      </trkpt>
      <trkpt lat="47.99672" lon="6.95011">
        <ele>863.94</ele>
        <time>2018-05-21T13:18:38Z</time>
      </trkpt>
      <trkpt lat="47.99664" lon="6.95036">
        <ele>860.65</ele>
        <time>2018-05-21T13:18:54Z</time>
      </trkpt>
      <trkpt lat="47.99657" lon="6.95069">
        <ele>858.82</ele>
        <time>2018-05-21T13:19:16Z</time>
      </trkpt>
      <trkpt lat="47.99654" lon="6.9509">
        <ele>857.53</ele>
        <time>2018-05-21T13:19:35Z</time>
      </trkpt>
      <trkpt lat="47.99646" lon="6.95116">
        <ele>855.73</ele>
        <time>2018-05-21T13:19:52Z</time>
      </trkpt>
      <trkpt lat="47.99639" lon="6.95127">
        <ele>855.62</ele>
        <time>2018-05-21T13:20:12Z</time>
      </trkpt>
      <trkpt lat="47.99636" lon="6.95132">
        <ele>854.45</ele>
        <time>2018-05-21T13:20:17Z</time>
      </trkpt>
      <trkpt lat="47.99624" lon="6.95146">
        <ele>850.99</ele>
        <time>2018-05-21T13:20:39Z</time>
      </trkpt>
      <trkpt lat="47.99609" lon="6.95158">
        <ele>849.63</ele>
        <time>2018-05-21T13:20:59Z</time>
      </trkpt>
      <trkpt lat="47.99604" lon="6.95174">
        <ele>846.9</ele>
        <time>2018-05-21T13:21:19Z</time>
      </trkpt>
      <trkpt lat="47.99602" lon="6.9519">
        <ele>844.44</ele>
        <time>2018-05-21T13:21:39Z</time>
      </trkpt>
      <trkpt lat="47.99598" lon="6.95203">
        <ele>841.3</ele>
        <time>2018-05-21T13:22:00Z</time>
      </trkpt>
      <trkpt lat="47.99596" lon="6.95222">
        <ele>838.55</ele>
        <time>2018-05-21T13:22:17Z</time>
      </trkpt>
      <trkpt lat="47.99592" lon="6.95239">
        <ele>835.19</ele>
        <time>2018-05-21T13:22:36Z</time>
      </trkpt>
      <trkpt lat="47.99587" lon="6.95252">
        <ele>832.02</ele>
        <time>2018-05-21T13:22:59Z</time>
      </trkpt>
      <trkpt lat="47.99585" lon="6.95262">
        <ele>830.05</ele>
        <time>2018-05-21T13:23:16Z</time>
      </trkpt>
      <trkpt lat="47.99577" lon="6.95274">
        <ele>827.84</ele>
        <time>2018-05-21T13:23:34Z</time>
      </trkpt>
      <trkpt lat="47.99564" lon="6.95308">
        <ele>824.33</ele>
        <time>2018-05-21T13:23:57Z</time>
      </trkpt>
      <trkpt lat="47.99551" lon="6.95322">
        <ele>822.43</ele>
        <time>2018-05-21T13:24:22Z</time>
      </trkpt>
      <trkpt lat="47.99546" lon="6.95326">
        <ele>821.32</ele>
        <time>2018-05-21T13:24:31Z</time>
      </trkpt>
      <trkpt lat="47.99538" lon="6.95342">
        <ele>820.47</ele>
        <time>2018-05-21T13:24:50Z</time>
      </trkpt>
      <trkpt lat="47.99533" lon="6.95369">
        <ele>818.53</ele>
        <time>2018-05-21T13:25:09Z</time>
      </trkpt>
      <trkpt lat="47.99522" lon="6.95383">
        <ele>817.07</ele>
        <time>2018-05-21T13:25:29Z</time>
      </trkpt>
      <trkpt lat="47.99513" lon="6.95392">
        <ele>815.82</ele>
        <time>2018-05-21T13:25:44Z</time>
      </trkpt>
      <trkpt lat="47.99498" lon="6.95411">
        <ele>813.93</ele>
        <time>2018-05-21T13:26:07Z</time>
      </trkpt>
      <trkpt lat="47.99482" lon="6.95432">
        <ele>814.8</ele>
        <time>2018-05-21T13:26:30Z</time>
      </trkpt>
      <trkpt lat="47.99473" lon="6.95442">
        <ele>815.65</ele>
        <time>2018-05-21T13:26:42Z</time>
      </trkpt>
      <trkpt lat="47.99469" lon="6.9545">
        <ele>814.18</ele>
        <time>2018-05-21T13:26:54Z</time>
      </trkpt>
      <trkpt lat="47.99465" lon="6.95475">
        <ele>811.02</ele>
        <time>2018-05-21T13:27:12Z</time>
      </trkpt>
      <trkpt lat="47.9946" lon="6.95497">
        <ele>807.78</ele>
        <time>2018-05-21T13:27:32Z</time>
      </trkpt>
      <trkpt lat="47.99448" lon="6.95512">
        <ele>804.84</ele>
        <time>2018-05-21T13:27:54Z</time>
      </trkpt>
      <trkpt lat="47.99447" lon="6.95523">
        <ele>801.76</ele>
        <time>2018-05-21T13:28:10Z</time>
      </trkpt>
      <trkpt lat="47.99437" lon="6.95532">
        <ele>800.52</ele>
        <time>2018-05-21T13:28:27Z</time>
      </trkpt>
      <trkpt lat="47.99425" lon="6.95526">
        <ele>799.73</ele>
        <time>2018-05-21T13:28:43Z</time>
      </trkpt>
      <trkpt lat="47.99422" lon="6.9554">
        <ele>798.7</ele>
        <time>2018-05-21T13:28:53Z</time>
      </trkpt>
      <trkpt lat="47.99407" lon="6.9555">
        <ele>796.75</ele>
        <time>2018-05-21T13:29:14Z</time>
      </trkpt>
      <trkpt lat="47.99396" lon="6.95569">
        <ele>794.78</ele>
        <time>2018-05-21T13:29:33Z</time>
      </trkpt>
      <trkpt lat="47.99381" lon="6.95579">
        <ele>792.66</ele>
        <time>2018-05-21T13:29:53Z</time>
      </trkpt>
      <trkpt lat="47.99363" lon="6.9559">
        <ele>790.88</ele>
        <time>2018-05-21T13:30:14Z</time>
      </trkpt>
      <trkpt lat="47.9934" lon="6.95602">
        <ele>787.94</ele>
        <time>2018-05-21T13:30:36Z</time>
      </trkpt>
      <trkpt lat="47.99324" lon="6.95619">
        <ele>786.63</ele>
        <time>2018-05-21T13:31:00Z</time>
      </trkpt>
      <trkpt lat="47.99311" lon="6.95635">
        <ele>784.98</ele>
        <time>2018-05-21T13:31:20Z</time>
      </trkpt>
      <trkpt lat="47.99307" lon="6.95652">
        <ele>783.83</ele>
        <time>2018-05-21T13:31:34Z</time>
      </trkpt>
      <trkpt lat="47.99301" lon="6.95674">
        <ele>782.23</ele>
        <time>2018-05-21T13:31:49Z</time>
      </trkpt>
      <trkpt lat="47.99298" lon="6.95684">
        <ele>780.41</ele>
        <time>2018-05-21T13:32:00Z</time>
      </trkpt>
      <trkpt lat="47.99295" lon="6.95698">
        <ele>779.76</ele>
        <time>2018-05-21T13:32:16Z</time>
      </trkpt>
      <trkpt lat="47.99288" lon="6.95713">
        <ele>780.23</ele>
        <time>2018-05-21T13:32:39Z</time>
      </trkpt>
      <trkpt lat="47.99288" lon="6.95716">
        <ele>780.74</ele>
        <time>2018-05-21T13:33:00Z</time>
      </trkpt>
      <trkpt lat="47.99289" lon="6.9571">
        <ele>779.96</ele>
        <time>2018-05-21T13:33:16Z</time>
      </trkpt>
      <trkpt lat="47.99277" lon="6.95719">
        <ele>778.35</ele>
        <time>2018-05-21T13:33:36Z</time>
      </trkpt>
      <trkpt lat="47.99269" lon="6.95735">
        <ele>776.25</ele>
        <time>2018-05-21T13:33:55Z</time>
      </trkpt>
      <trkpt lat="47.99261" lon="6.95746">
        <ele>774.53</ele>
        <time>2018-05-21T13:34:09Z</time>
      </trkpt>
      <trkpt lat="47.99253" lon="6.95763">
        <ele>773.3</ele>
        <time>2018-05-21T13:34:23Z</time>
      </trkpt>
      <trkpt lat="47.99242" lon="6.95788">
        <ele>771.78</ele>
        <time>2018-05-21T13:34:43Z</time>
      </trkpt>
      <trkpt lat="47.99233" lon="6.95808">
        <ele>770.29</ele>
        <time>2018-05-21T13:35:02Z</time>
      </trkpt>
      <trkpt lat="47.99229" lon="6.95819">
        <ele>769.36</ele>
        <time>2018-05-21T13:35:15Z</time>
      </trkpt>
      <trkpt lat="47.99227" lon="6.95823">
        <ele>768.67</ele>
        <time>2018-05-21T13:35:19Z</time>
      </trkpt>
      <trkpt lat="47.99219" lon="6.95843">
        <ele>767.1</ele>
        <time>2018-05-21T13:35:40Z</time>
      </trkpt>
      <trkpt lat="47.99212" lon="6.9586">
        <ele>765.75</ele>
        <time>2018-05-21T13:35:58Z</time>
      </trkpt>
      <trkpt lat="47.99202" lon="6.95883">
        <ele>764.01</ele>
        <time>2018-05-21T13:36:18Z</time>
      </trkpt>
      <trkpt lat="47.99194" lon="6.95905">
        <ele>762.09</ele>
        <time>2018-05-21T13:36:37Z</time>
      </trkpt>
      <trkpt lat="47.9918" lon="6.95932">
        <ele>759.88</ele>
        <time>2018-05-21T13:36:58Z</time>
      </trkpt>
      <trkpt lat="47.99164" lon="6.95951">
        <ele>756.57</ele>
        <time>2018-05-21T13:37:18Z</time>
      </trkpt>
      <trkpt lat="47.99153" lon="6.95968">
        <ele>754.91</ele>
        <time>2018-05-21T13:37:33Z</time>
      </trkpt>
      <trkpt lat="47.99138" lon="6.95993">
        <ele>752.98</ele>
        <time>2018-05-21T13:37:53Z</time>
      </trkpt>
      <trkpt lat="47.99131" lon="6.96018">
        <ele>750.93</ele>
        <time>2018-05-21T13:38:15Z</time>
      </trkpt>
      <trkpt lat="47.99115" lon="6.96043">
        <ele>748.49</ele>
        <time>2018-05-21T13:38:39Z</time>
      </trkpt>
      <trkpt lat="47.99107" lon="6.9606">
        <ele>746.67</ele>
        <time>2018-05-21T13:38:57Z</time>
      </trkpt>
      <trkpt lat="47.99088" lon="6.96067">
        <ele>744.37</ele>
        <time>2018-05-21T13:39:21Z</time>
      </trkpt>
      <trkpt lat="47.99069" lon="6.96073">
        <ele>742.21</ele>
        <time>2018-05-21T13:39:42Z</time>
      </trkpt>
      <trkpt lat="47.99061" lon="6.96091">
        <ele>740.68</ele>
        <time>2018-05-21T13:40:02Z</time>
      </trkpt>
      <trkpt lat="47.99053" lon="6.96117">
        <ele>738.27</ele>
        <time>2018-05-21T13:40:23Z</time>
      </trkpt>
      <trkpt lat="47.99043" lon="6.96139">
        <ele>736.47</ele>
        <time>2018-05-21T13:40:44Z</time>
      </trkpt>
      <trkpt lat="47.99029" lon="6.96153">
        <ele>735.2</ele>
        <time>2018-05-21T13:41:04Z</time>
      </trkpt>
      <trkpt lat="47.99016" lon="6.96162">
        <ele>732.09</ele>
        <time>2018-05-21T13:41:21Z</time>
      </trkpt>
      <trkpt lat="47.98995" lon="6.9617">
        <ele>730.13</ele>
        <time>2018-05-21T13:41:42Z</time>
      </trkpt>
      <trkpt lat="47.98975" lon="6.9617">
        <ele>728.18</ele>
        <time>2018-05-21T13:42:01Z</time>
      </trkpt>
      <trkpt lat="47.98975" lon="6.9617">
        <ele>728.08</ele>
        <time>2018-05-21T13:42:02Z</time>
      </trkpt>
      <trkpt lat="47.98958" lon="6.96177">
        <ele>725.67</ele>
        <time>2018-05-21T13:42:25Z</time>
      </trkpt>
      <trkpt lat="47.98945" lon="6.96186">
        <ele>725.2</ele>
        <time>2018-05-21T13:42:46Z</time>
      </trkpt>
      <trkpt lat="47.98941" lon="6.96186">
        <ele>725.3</ele>
        <time>2018-05-21T13:43:11Z</time>
      </trkpt>
      <trkpt lat="47.98939" lon="6.9619">
        <ele>725.04</ele>
        <time>2018-05-21T13:43:38Z</time>
      </trkpt>
      <trkpt lat="47.98947" lon="6.96184">
        <ele>725.05</ele>
        <time>2018-05-21T13:44:07Z</time>
      </trkpt>
      <trkpt lat="47.98949" lon="6.96185">
        <ele>725.31</ele>
        <time>2018-05-21T13:44:29Z</time>
      </trkpt>
      <trkpt lat="47.98942" lon="6.96189">
        <ele>724.73</ele>
        <time>2018-05-21T13:44:52Z</time>
      </trkpt>
      <trkpt lat="47.98937" lon="6.962">
        <ele>724.27</ele>
        <time>2018-05-21T13:45:07Z</time>
      </trkpt>
      <trkpt lat="47.98927" lon="6.96204">
        <ele>724.07</ele>
        <time>2018-05-21T13:45:23Z</time>
      </trkpt>
      <trkpt lat="47.98913" lon="6.96211">
        <ele>720.84</ele>
        <time>2018-05-21T13:45:46Z</time>
      </trkpt>
      <trkpt lat="47.98903" lon="6.96228">
        <ele>719.61</ele>
        <time>2018-05-21T13:46:07Z</time>
      </trkpt>
      <trkpt lat="47.98903" lon="6.96219">
        <ele>718.48</ele>
        <time>2018-05-21T13:46:27Z</time>
      </trkpt>
      <trkpt lat="47.98898" lon="6.96203">
        <ele>716.02</ele>
        <time>2018-05-21T13:46:47Z</time>
      </trkpt>
      <trkpt lat="47.98877" lon="6.96191">
        <ele>714.79</ele>
        <time>2018-05-21T13:47:11Z</time>
      </trkpt>
      <trkpt lat="47.98865" lon="6.9619">
        <ele>713.43</ele>
        <time>2018-05-21T13:47:32Z</time>
      </trkpt>
      <trkpt lat="47.98847" lon="6.96183">
        <ele>711.6</ele>
        <time>2018-05-21T13:47:54Z</time>
      </trkpt>
      <trkpt lat="47.98828" lon="6.96186">
        <ele>709.64</ele>
        <time>2018-05-21T13:48:14Z</time>
      </trkpt>
      <trkpt lat="47.98809" lon="6.96188">
        <ele>708.36</ele>
        <time>2018-05-21T13:48:31Z</time>
      </trkpt>
      <trkpt lat="47.98795" lon="6.96193">
        <ele>706.42</ele>
        <time>2018-05-21T13:48:48Z</time>
      </trkpt>
      <trkpt lat="47.98782" lon="6.96192">
        <ele>705.21</ele>
        <time>2018-05-21T13:49:05Z</time>
      </trkpt>
      <trkpt lat="47.98771" lon="6.96199">
        <ele>703.66</ele>
        <time>2018-05-21T13:49:24Z</time>
      </trkpt>
      <trkpt lat="47.98758" lon="6.96203">
        <ele>702.12</ele>
        <time>2018-05-21T13:49:39Z</time>
      </trkpt>
      <trkpt lat="47.98745" lon="6.96201">
        <ele>701.02</ele>
        <time>2018-05-21T13:49:53Z</time>
      </trkpt>
      <trkpt lat="47.98722" lon="6.96195">
        <ele>698.15</ele>
        <time>2018-05-21T13:50:16Z</time>
      </trkpt>
      <trkpt lat="47.987" lon="6.96185">
        <ele>695.91</ele>
        <time>2018-05-21T13:50:38Z</time>
      </trkpt>
      <trkpt lat="47.98687" lon="6.96179">
        <ele>695.08</ele>
        <time>2018-05-21T13:50:58Z</time>
      </trkpt>
      <trkpt lat="47.98672" lon="6.96174">
        <ele>692.61</ele>
        <time>2018-05-21T13:51:17Z</time>
      </trkpt>
      <trkpt lat="47.9865" lon="6.96172">
        <ele>690.52</ele>
        <time>2018-05-21T13:51:39Z</time>
      </trkpt>
      <trkpt lat="47.98636" lon="6.96166">
        <ele>689.67</ele>
        <time>2018-05-21T13:51:55Z</time>
      </trkpt>
      <trkpt lat="47.98623" lon="6.96167">
        <ele>688.1</ele>
        <time>2018-05-21T13:52:10Z</time>
      </trkpt>
      <trkpt lat="47.98607" lon="6.96172">
        <ele>686.12</ele>
        <time>2018-05-21T13:52:28Z</time>
      </trkpt>
      <trkpt lat="47.98594" lon="6.96177">
        <ele>686.54</ele>
        <time>2018-05-21T13:52:51Z</time>
      </trkpt>
      <trkpt lat="47.9858" lon="6.96182">
        <ele>683.38</ele>
        <time>2018-05-21T13:53:08Z</time>
      </trkpt>
      <trkpt lat="47.98564" lon="6.96189">
        <ele>682.06</ele>
        <time>2018-05-21T13:53:30Z</time>
      </trkpt>
      <trkpt lat="47.98545" lon="6.96189">
        <ele>679.27</ele>
        <time>2018-05-21T13:53:50Z</time>
      </trkpt>
      <trkpt lat="47.98525" lon="6.96189">
        <ele>676.93</ele>
        <time>2018-05-21T13:54:11Z</time>
      </trkpt>
      <trkpt lat="47.98502" lon="6.96185">
        <ele>675.27</ele>
        <time>2018-05-21T13:54:33Z</time>
      </trkpt>
      <trkpt lat="47.98482" lon="6.96184">
        <ele>672.26</ele>
        <time>2018-05-21T13:54:55Z</time>
      </trkpt>
      <trkpt lat="47.9847" lon="6.96183">
        <ele>672.64</ele>
        <time>2018-05-21T13:55:07Z</time>
      </trkpt>
      <trkpt lat="47.98457" lon="6.96179">
        <ele>669.64</ele>
        <time>2018-05-21T13:55:22Z</time>
      </trkpt>
      <trkpt lat="47.98444" lon="6.96182">
        <ele>669.49</ele>
        <time>2018-05-21T13:55:36Z</time>
      </trkpt>
      <trkpt lat="47.98435" lon="6.96189">
        <ele>669.08</ele>
        <time>2018-05-21T13:55:53Z</time>
      </trkpt>
      <trkpt lat="47.9843" lon="6.96192">
        <ele>666.15</ele>
        <time>2018-05-21T13:56:01Z</time>
      </trkpt>
      <trkpt lat="47.98426" lon="6.96193">
        <ele>663.85</ele>
        <time>2018-05-21T13:56:12Z</time>
      </trkpt>
      <trkpt lat="47.98418" lon="6.96194">
        <ele>660.58</ele>
        <time>2018-05-21T13:56:30Z</time>
      </trkpt>
      <trkpt lat="47.9841" lon="6.96187">
        <ele>661.61</ele>
        <time>2018-05-21T13:56:42Z</time>
      </trkpt>
      <trkpt lat="47.98409" lon="6.96184">
        <ele>661.35</ele>
        <time>2018-05-21T13:56:45Z</time>
      </trkpt>
      <trkpt lat="47.98401" lon="6.9617">
        <ele>663.66</ele>
        <time>2018-05-21T13:57:03Z</time>
      </trkpt>
      <trkpt lat="47.98396" lon="6.96165">
        <ele>664.89</ele>
        <time>2018-05-21T13:57:17Z</time>
      </trkpt>
      <trkpt lat="47.98389" lon="6.96152">
        <ele>666.04</ele>
        <time>2018-05-21T13:57:28Z</time>
      </trkpt>
      <trkpt lat="47.98371" lon="6.96138">
        <ele>667.11</ele>
        <time>2018-05-21T13:57:42Z</time>
      </trkpt>
      <trkpt lat="47.98353" lon="6.96125">
        <ele>669.56</ele>
        <time>2018-05-21T13:58:02Z</time>
      </trkpt>
      <trkpt lat="47.98338" lon="6.96116">
        <ele>670.8</ele>
        <time>2018-05-21T13:58:20Z</time>
      </trkpt>
      <trkpt lat="47.98324" lon="6.96111">
        <ele>670.97</ele>
        <time>2018-05-21T13:58:34Z</time>
      </trkpt>
      <trkpt lat="47.98311" lon="6.96106">
        <ele>671.62</ele>
        <time>2018-05-21T13:58:50Z</time>
      </trkpt>
      <trkpt lat="47.98291" lon="6.96098">
        <ele>671.68</ele>
        <time>2018-05-21T13:59:13Z</time>
      </trkpt>
      <trkpt lat="47.98265" lon="6.96085">
        <ele>672.05</ele>
        <time>2018-05-21T13:59:34Z</time>
      </trkpt>
      <trkpt lat="47.98246" lon="6.96079">
        <ele>672.11</ele>
        <time>2018-05-21T13:59:55Z</time>
      </trkpt>
      <trkpt lat="47.98234" lon="6.96076">
        <ele>672.29</ele>
        <time>2018-05-21T14:00:09Z</time>
      </trkpt>
      <trkpt lat="47.98222" lon="6.96076">
        <ele>673.75</ele>
        <time>2018-05-21T14:00:20Z</time>
      </trkpt>
      <trkpt lat="47.98207" lon="6.96075">
        <ele>671.4</ele>
        <time>2018-05-21T14:00:36Z</time>
      </trkpt>
      <trkpt lat="47.98193" lon="6.9607">
        <ele>669.94</ele>
        <time>2018-05-21T14:00:50Z</time>
      </trkpt>
      <trkpt lat="47.98179" lon="6.96063">
        <ele>671.96</ele>
        <time>2018-05-21T14:01:07Z</time>
      </trkpt>
      <trkpt lat="47.98176" lon="6.9606">
        <ele>674.73</ele>
        <time>2018-05-21T14:01:12Z</time>
      </trkpt>
      <trkpt lat="47.98166" lon="6.96053">
        <ele>672.63</ele>
        <time>2018-05-21T14:01:31Z</time>
      </trkpt>
      <trkpt lat="47.98166" lon="6.96053">
        <ele>672.55</ele>
        <time>2018-05-21T14:01:32Z</time>
      </trkpt>
      <trkpt lat="47.98163" lon="6.96051">
        <ele>673.4</ele>
        <time>2018-05-21T14:01:39Z</time>
      </trkpt>
      <trkpt lat="47.98154" lon="6.9603">
        <ele>672.85</ele>
        <time>2018-05-21T14:01:54Z</time>
      </trkpt>
      <trkpt lat="47.98147" lon="6.96015">
        <ele>673.03</ele>
        <time>2018-05-21T14:02:09Z</time>
      </trkpt>
      <trkpt lat="47.98137" lon="6.9599">
        <ele>674.11</ele>
        <time>2018-05-21T14:02:31Z</time>
      </trkpt>
      <trkpt lat="47.98131" lon="6.9597">
        <ele>675.69</ele>
        <time>2018-05-21T14:02:53Z</time>
      </trkpt>
      <trkpt lat="47.98123" lon="6.95947">
        <ele>672.48</ele>
        <time>2018-05-21T14:03:15Z</time>
      </trkpt>
      <trkpt lat="47.98109" lon="6.95925">
        <ele>670.15</ele>
        <time>2018-05-21T14:03:35Z</time>
      </trkpt>
      <trkpt lat="47.98101" lon="6.95919">
        <ele>669.08</ele>
        <time>2018-05-21T14:03:56Z</time>
      </trkpt>
      <trkpt lat="47.98092" lon="6.95912">
        <ele>666.84</ele>
        <time>2018-05-21T14:04:08Z</time>
      </trkpt>
      <trkpt lat="47.98077" lon="6.95899">
        <ele>664.55</ele>
        <time>2018-05-21T14:04:28Z</time>
      </trkpt>
      <trkpt lat="47.98074" lon="6.95915">
        <ele>662.29</ele>
        <time>2018-05-21T14:04:45Z</time>
      </trkpt>
      <trkpt lat="47.98074" lon="6.95942">
        <ele>661.82</ele>
        <time>2018-05-21T14:05:04Z</time>
      </trkpt>
      <trkpt lat="47.98076" lon="6.95956">
        <ele>660.61</ele>
        <time>2018-05-21T14:05:13Z</time>
      </trkpt>
      <trkpt lat="47.98071" lon="6.95961">
        <ele>658.32</ele>
        <time>2018-05-21T14:05:28Z</time>
      </trkpt>
      <trkpt lat="47.98065" lon="6.95971">
        <ele>655.27</ele>
        <time>2018-05-21T14:05:46Z</time>
      </trkpt>
      <trkpt lat="47.98062" lon="6.95983">
        <ele>652.18</ele>
        <time>2018-05-21T14:06:02Z</time>
      </trkpt>
      <trkpt lat="47.98056" lon="6.95979">
        <ele>649.11</ele>
        <time>2018-05-21T14:06:18Z</time>
      </trkpt>
      <trkpt lat="47.98046" lon="6.9597">
        <ele>646.18</ele>
        <time>2018-05-21T14:06:37Z</time>
      </trkpt>
      <trkpt lat="47.98038" lon="6.95964">
        <ele>643.1</ele>
        <time>2018-05-21T14:06:54Z</time>
      </trkpt>
      <trkpt lat="47.98031" lon="6.9595">
        <ele>640.36</ele>
        <time>2018-05-21T14:07:11Z</time>
      </trkpt>
      <trkpt lat="47.9803" lon="6.95937">
        <ele>638.84</ele>
        <time>2018-05-21T14:07:28Z</time>
      </trkpt>
      <trkpt lat="47.98021" lon="6.95939">
        <ele>635.71</ele>
        <time>2018-05-21T14:07:53Z</time>
      </trkpt>
      <trkpt lat="47.98017" lon="6.95944">
        <ele>632.66</ele>
        <time>2018-05-21T14:08:04Z</time>
      </trkpt>
      <trkpt lat="47.98018" lon="6.9595">
        <ele>631.83</ele>
        <time>2018-05-21T14:08:14Z</time>
      </trkpt>
      <trkpt lat="47.98018" lon="6.95956">
        <ele>630.73</ele>
        <time>2018-05-21T14:08:19Z</time>
      </trkpt>
      <trkpt lat="47.98013" lon="6.95982">
        <ele>627.5</ele>
        <time>2018-05-21T14:08:34Z</time>
      </trkpt>
      <trkpt lat="47.98006" lon="6.95998">
        <ele>625.26</ele>
        <time>2018-05-21T14:08:54Z</time>
      </trkpt>
      <trkpt lat="47.97994" lon="6.9601">
        <ele>622.22</ele>
        <time>2018-05-21T14:09:16Z</time>
      </trkpt>
      <trkpt lat="47.97984" lon="6.96019">
        <ele>621.27</ele>
        <time>2018-05-21T14:09:39Z</time>
      </trkpt>
      <trkpt lat="47.97976" lon="6.9602">
        <ele>618.94</ele>
        <time>2018-05-21T14:09:56Z</time>
      </trkpt>
      <trkpt lat="47.97965" lon="6.96025">
        <ele>617.09</ele>
        <time>2018-05-21T14:10:11Z</time>
      </trkpt>
      <trkpt lat="47.9795" lon="6.96038">
        <ele>615.74</ele>
        <time>2018-05-21T14:10:30Z</time>
      </trkpt>
      <trkpt lat="47.97945" lon="6.96047">
        <ele>614.79</ele>
        <time>2018-05-21T14:10:37Z</time>
      </trkpt>
      <trkpt lat="47.97936" lon="6.96072">
        <ele>612.21</ele>
        <time>2018-05-21T14:10:53Z</time>
      </trkpt>
      <trkpt lat="47.97932" lon="6.9608">
        <ele>611.29</ele>
        <time>2018-05-21T14:11:01Z</time>
      </trkpt>
      <trkpt lat="47.97929" lon="6.9609">
        <ele>610.89</ele>
        <time>2018-05-21T14:11:07Z</time>
      </trkpt>
      <trkpt lat="47.97923" lon="6.9611">
        <ele>610.44</ele>
        <time>2018-05-21T14:11:19Z</time>
      </trkpt>
      <trkpt lat="47.97922" lon="6.96115">
        <ele>609.48</ele>
        <time>2018-05-21T14:11:21Z</time>
      </trkpt>
      <trkpt lat="47.97914" lon="6.96136">
        <ele>608.56</ele>
        <time>2018-05-21T14:11:37Z</time>
      </trkpt>
      <trkpt lat="47.97904" lon="6.96141">
        <ele>607.01</ele>
        <time>2018-05-21T14:11:52Z</time>
      </trkpt>
      <trkpt lat="47.97897" lon="6.96136">
        <ele>606.45</ele>
        <time>2018-05-21T14:12:03Z</time>
      </trkpt>
      <trkpt lat="47.97893" lon="6.96132">
        <ele>606.62</ele>
        <time>2018-05-21T14:12:07Z</time>
      </trkpt>
      <trkpt lat="47.97888" lon="6.96129">
        <ele>606</ele>
        <time>2018-05-21T14:12:11Z</time>
      </trkpt>
      <trkpt lat="47.97886" lon="6.96128">
        <ele>605.84</ele>
        <time>2018-05-21T14:12:13Z</time>
      </trkpt>
      <trkpt lat="47.97882" lon="6.96126">
        <ele>605.31</ele>
        <time>2018-05-21T14:12:17Z</time>
      </trkpt>
      <trkpt lat="47.97877" lon="6.96131">
        <ele>604.98</ele>
        <time>2018-05-21T14:12:22Z</time>
      </trkpt>
      <trkpt lat="47.97871" lon="6.96135">
        <ele>604.76</ele>
        <time>2018-05-21T14:12:38Z</time>
      </trkpt>
      <trkpt lat="47.97862" lon="6.96128">
        <ele>604.79</ele>
        <time>2018-05-21T14:12:49Z</time>
      </trkpt>
      <trkpt lat="47.97847" lon="6.96125">
        <ele>603.26</ele>
        <time>2018-05-21T14:13:06Z</time>
      </trkpt>
      <trkpt lat="47.97835" lon="6.96131">
        <ele>603.3</ele>
        <time>2018-05-21T14:13:17Z</time>
      </trkpt>
      <trkpt lat="47.97812" lon="6.96124">
        <ele>603.17</ele>
        <time>2018-05-21T14:13:33Z</time>
      </trkpt>
      <trkpt lat="47.97808" lon="6.96121">
        <ele>602.82</ele>
        <time>2018-05-21T14:13:37Z</time>
      </trkpt>
      <trkpt lat="47.97792" lon="6.96109">
        <ele>602.52</ele>
        <time>2018-05-21T14:13:51Z</time>
      </trkpt>
      <trkpt lat="47.97781" lon="6.96099">
        <ele>602.1</ele>
        <time>2018-05-21T14:14:02Z</time>
      </trkpt>
      <trkpt lat="47.97771" lon="6.96093">
        <ele>601.77</ele>
        <time>2018-05-21T14:14:13Z</time>
      </trkpt>
      <trkpt lat="47.97749" lon="6.96078">
        <ele>600.36</ele>
        <time>2018-05-21T14:14:32Z</time>
      </trkpt>
      <trkpt lat="47.97744" lon="6.96077">
        <ele>600.61</ele>
        <time>2018-05-21T14:14:39Z</time>
      </trkpt>
      <trkpt lat="47.97739" lon="6.96078">
        <ele>600.32</ele>
        <time>2018-05-21T14:14:43Z</time>
      </trkpt>
      <trkpt lat="47.97722" lon="6.9608">
        <ele>600.41</ele>
        <time>2018-05-21T14:14:56Z</time>
      </trkpt>
      <trkpt lat="47.97719" lon="6.96079">
        <ele>600.59</ele>
        <time>2018-05-21T14:15:01Z</time>
      </trkpt>
      <trkpt lat="47.97712" lon="6.96077">
        <ele>600.22</ele>
        <time>2018-05-21T14:15:10Z</time>
      </trkpt>
      <trkpt lat="47.9771" lon="6.96077">
        <ele>600.18</ele>
        <time>2018-05-21T14:15:12Z</time>
      </trkpt>
      <trkpt lat="47.97702" lon="6.96074">
        <ele>600.48</ele>
        <time>2018-05-21T14:15:21Z</time>
      </trkpt>
      <trkpt lat="47.97684" lon="6.96072">
        <ele>599.59</ele>
        <time>2018-05-21T14:15:36Z</time>
      </trkpt>
      <trkpt lat="47.97681" lon="6.96073">
        <ele>599.74</ele>
        <time>2018-05-21T14:15:39Z</time>
      </trkpt>
      <trkpt lat="47.97666" lon="6.96074">
        <ele>599.31</ele>
        <time>2018-05-21T14:15:56Z</time>
      </trkpt>
      <trkpt lat="47.97662" lon="6.96078">
        <ele>599.25</ele>
        <time>2018-05-21T14:16:03Z</time>
      </trkpt>
      <trkpt lat="47.97661" lon="6.96083">
        <ele>598.91</ele>
        <time>2018-05-21T14:16:22Z</time>
      </trkpt>
      <trkpt lat="47.97658" lon="6.96073">
        <ele>598.62</ele>
        <time>2018-05-21T14:16:35Z</time>
      </trkpt>
    </trkseg>
  </trk>
</gpx>